[[{"header":{"parameterUnit":"m.s-1","parameterCategory":1,"la1":31.0,"la2":29.5877,"lo1":-88.7671,"lo2":-86.6584,"dy":0.0162,"dx":0.0185,"nx":115,"ny":88,"refTime":"2024-06-13T18:00:00:Z","depth":0,"parameterNumber":2,"parameterNumberName":"U-component_of_WINDS"},"data":[0.0,0.0,0.0,0.0,0.0,0.0,0.0,0.0,0.0,0.0,0.0,0.0,0.0,0.0,0.0,0.0,0.0,0.0,0.0,0.0,0.0,0.0,0.0,0.0,0.0,0.0,0.0,0.0,0.0,0.0,0.0,0.0,0.0,0.0,0.0,0.0,0.0,0.0,0.0,0.0,0.0,0.0,0.0,0.0,0.0,0.0,0.0,0.0,0.0,0.0,0.0,0.0,0.0,0.0,0.0,0.0,0.0,0.0,0.0,0.0,0.0,0.0,0.0,0.0,0.0,0.0,0.0,0.0,0.0,0.0,0.0,0.0,0.0,0.0,0.0,0.0,0.0,0.0,0.0,0.0,0.0,0.0,0.0,0.0,0.0,0.0,0.0,0.0,0.0,0.0,0.0,0.0,0.0,0.0,0.0,0.0,0.0,0.0,0.0,0.0,0.0,0.0,0.0,0.0,0.0,0.0,0.0,0.0,0.0,0.0,0.0,0.0,0.0,0.0,0.0,0.0,0.0,0.0,0.0,0.0,0.0,0.0,0.0,0.0,0.0,0.0,0.0,0.0,0.0,0.0,0.0,0.0,0.0,0.0,0.0,0.0,0.0,0.0,0.0,0.0,0.0,0.0,0.0,0.0,0.0,0.0,0.0,0.0,0.0,0.0,0.0,0.0,0.0,0.0,0.0,0.0,0.0,0.0,0.0,0.0,0.0,0.0,0.0,0.0,0.0,0.0,0.0,0.0,0.0,0.0,0.0,0.0,0.0,0.0,0.0,0.0,0.0,0.0,0.0,0.0,0.0,0.0,0.0,0.0,0.0,0.0,0.0,0.0,0.0,0.0,0.0,0.0,0.0,0.0,0.0,0.0,0.0,0.0,0.0,0.0,0.0,0.0,0.0,0.0,0.0,0.0,0.0,0.0,0.0,0.0,0.0,0.0,0.0,0.0,0.0,0.0,0.0,0.0,0.0,0.0,0.0,0.0,0.0,0.0,0.0,0.0,0.0,0.0,0.0,0.0,0.0,0.0,0.0,0.0,0.0,0.0,0.0,0.0,0.0,0.0,0.0,0.0,0.0,0.0,0.0,0.0,0.0,0.0,0.0,0.0,0.0,0.0,0.0,0.0,0.0,0.0,0.0,0.0,0.0,0.0,0.0,0.0,0.0,0.0,0.0,0.0,0.0,0.0,0.0,0.0,0.0,0.0,0.0,0.0,0.0,0.0,0.0,0.0,0.0,0.0,0.0,0.0,0.0,0.0,0.0,0.0,0.0,0.0,0.0,0.0,0.0,0.0,0.0,0.0,0.0,0.0,0.0,0.0,0.0,0.0,0.0,0.0,0.0,0.0,0.0,0.0,0.0,0.0,0.0,0.0,0.0,0.0,0.0,0.0,0.0,0.0,0.0,0.0,0.0,0.0,0.0,0.0,0.0,0.0,0.0,0.0,0.0,0.0,0.0,0.0,0.0,0.0,0.0,0.0,0.0,0.0,0.0,0.0,0.0,0.0,0.0,0.0,0.0,0.0,0.0,0.0,0.0,0.0,0.0,0.0,0.0,0.0,0.0,0.0,0.0,0.0,0.0,0.0,0.0,0.0,0.0,0.0,0.0,0.0,0.0,0.0,0.0,0.0,0.0,0.0,0.0,0.0,0.0,0.0,0.0,0.0,0.0,0.0,0.0,0.0,0.0,0.0,0.0,0.0,0.0,0.0,0.0,0.0,0.0,0.0,0.0,0.0,0.0,0.0,0.0,0.0,0.0,0.0,0.0,0.0,0.0,0.0,0.0,0.0,0.0,0.0,0.0,0.0,0.0,0.0,0.0,0.0,0.0,0.0,0.0,0.0,0.0,0.0,0.0,0.0,0.0,0.0,0.0,0.0,0.0,0.0,0.0,0.0,0.0,0.0,0.0,0.0,0.0,0.0,0.0,0.0,0.0,0.0,0.0,0.0,0.0,0.0,0.0,0.0,0.0,0.0,0.0,0.0,0.0,0.0,0.0,0.0,0.0,0.0,0.0,0.0,0.0,0.0,0.0,0.0,0.0,0.0,0.0,0.0,0.0,0.0,0.0,0.0,0.0,0.0,0.0,0.0,0.0,0.0,0.0,0.0,0.0,0.0,0.0,0.0,0.0,0.0,0.0,0.0,0.0,0.0,0.0,0.0,0.0,0.0,0.0,0.0,0.0,0.0,0.0,0.0,0.0,0.0,0.0,0.0,0.0,0.0,0.0,0.0,0.0,0.0,0.0,0.0,0.0,0.0,0.0,0.0,0.0,0.0,0.0,0.0,0.0,0.0,0.0,0.0,0.0,0.0,0.0,0.0,0.0,0.0,0.0,0.0,0.0,0.0,0.0,0.0,0.0,0.0,0.0,0.0,0.0,0.0,0.0,0.0,0.0,0.0,0.0,0.0,0.0,0.0,0.0,0.0,0.0,0.0,0.0,0.0,0.0,0.0,0.0,0.0,0.0,0.0,0.0,0.0,0.0,0.0,0.0,0.0,0.0,0.0,0.0,0.0,0.0,0.0,0.0,0.0,0.0,0.0,0.0,0.0,0.0,0.0,0.0,0.0,0.0,0.0,0.0,0.0,0.0,0.0,0.0,0.0,0.0,0.0,0.0,0.0,0.0,0.0,0.0,0.0,0.0,0.0,0.0,0.0,0.0,0.0,0.0,0.0,0.0,0.0,0.0,0.0,0.0,0.0,0.0,0.0,0.0,0.0,0.0,0.0,0.0,0.0,0.0,0.0,0.0,0.0,0.0,0.0,0.0,0.0,0.0,0.0,0.0,0.0,0.0,0.0,0.0,0.0,0.0,0.0,0.0,0.0,0.0,0.0,0.0,0.0,0.0,0.0,0.0,0.0,0.0,0.0,0.0,0.0,0.0,0.0,0.0,0.0,0.0,0.0,0.0,0.0,0.0,0.0,0.0,0.0,0.0,0.0,0.0,0.0,0.0,0.0,0.0,0.0,0.0,0.0,0.0,0.0,0.0,0.0,0.0,0.0,0.0,0.0,0.0,0.0,0.0,0.0,0.0,0.0,0.0,0.0,0.0,0.0,0.0,0.0,0.0,0.0,0.0,0.0,0.0,0.0,0.0,0.0,0.0,0.0,0.0,0.0,0.0,0.0,0.0,0.0,0.0,0.0,0.0,0.0,0.0,0.0,0.0,0.0,0.0,0.0,0.0,0.0,0.0,0.0,0.0,0.0,0.0,0.0,0.0,0.0,0.0,0.0,0.0,0.0,0.0,0.0,0.0,0.0,0.0,0.0,0.0,0.0,0.0,0.0,0.0,0.0,0.0,0.0,0.0,0.0,0.0,0.0,0.0,0.0,0.0,0.0,0.0,0.0,0.0,0.0,0.0,0.0,0.0,0.0,0.0,0.0,0.0,0.0,0.0,0.0,0.0,0.0,0.0,0.0,0.0,0.0,0.0,0.0,0.0,0.0,0.0,0.0,0.0,0.0,0.0,0.0,0.0,0.0,0.0,0.0,0.0,0.0,0.0,0.0,0.0,0.0,0.0,0.0,0.0,0.0,0.0,0.0,0.0,0.0,0.0,0.0,0.0,0.0,0.0,0.0,0.0,0.0,0.0,0.0,0.0,0.0,0.0,0.0,0.0,0.0,0.0,0.0,0.0,0.0,0.0,0.0,0.0,0.0,0.0,0.0,0.0,0.0,0.0,0.0,0.0,0.0,0.0,0.0,0.0,0.0,0.0,0.0,0.0,0.0,0.0,0.0,0.0,0.0,0.0,0.0,0.0,0.0,0.0,0.0,0.0,0.0,0.0,0.0,0.0,0.0,0.0,0.0,0.0,0.0,0.0,0.0,0.0,0.0,0.0,0.0,0.0,0.0,0.0,0.0,0.0,0.0,0.0,0.0,0.0,0.0,0.0,0.0,0.0,0.0,0.0,0.0,0.0,0.0,0.0,0.0,0.0,0.0,0.0,0.0,0.0,0.0,0.0,0.0,0.0,0.0,0.0,0.0,0.0,0.0,0.0,0.0,0.0,0.0,0.0,0.0,0.0,0.0,0.0,0.0,0.0,0.0,0.0,0.0,0.0,0.0,0.0,0.0,0.0,0.0,0.0,0.0,0.0,0.0,0.0,0.0,0.0,0.0,0.0,0.0,0.0,0.0,0.0,0.0,0.0,0.0,0.0,0.0,0.0,0.0,0.0,0.0,0.0,0.0,0.0,0.0,0.0,0.0,0.0,0.0,0.0,0.0,0.0,0.0,0.0,0.0,0.0,0.0,0.0,0.0,0.0,0.0,0.0,0.0,-2.1218,0.0,0.0,0.0,0.0,0.0,0.0,0.0,0.0,0.0,0.0,0.0,0.0,0.0,0.0,0.0,0.0,0.0,0.0,0.0,0.0,0.0,0.0,0.0,0.0,0.0,0.0,0.0,0.0,0.0,0.0,0.0,0.0,0.0,0.0,0.0,0.0,0.0,0.0,0.0,0.0,0.0,0.0,0.0,0.0,0.0,0.0,0.0,0.0,0.0,0.0,0.0,0.0,0.0,0.0,0.0,0.0,0.0,0.0,0.0,0.0,0.0,0.0,0.0,0.0,0.0,0.0,0.0,0.0,0.0,0.0,0.0,0.0,0.0,0.0,0.0,0.0,0.0,0.0,0.0,0.0,0.0,0.0,0.0,0.0,0.0,0.0,0.0,0.0,0.0,0.0,0.0,0.0,0.0,0.0,0.0,0.0,0.0,0.0,0.0,0.0,0.0,0.0,0.0,0.0,0.0,0.0,0.0,0.0,0.0,0.0,-2.2194,-2.2194,-2.2194,-2.2067,-2.18,0.0,0.0,0.0,0.0,0.0,0.0,0.0,0.0,0.0,0.0,0.0,0.0,0.0,0.0,0.0,0.0,0.0,0.0,0.0,0.0,0.0,0.0,0.0,0.0,0.0,0.0,0.0,0.0,0.0,0.0,0.0,0.0,0.0,0.0,0.0,0.0,0.0,0.0,0.0,0.0,0.0,0.0,0.0,0.0,0.0,0.0,0.0,0.0,0.0,0.0,0.0,0.0,0.0,0.0,0.0,0.0,0.0,0.0,0.0,0.0,0.0,0.0,0.0,0.0,0.0,0.0,0.0,0.0,0.0,0.0,0.0,0.0,0.0,0.0,0.0,0.0,0.0,0.0,0.0,0.0,0.0,0.0,0.0,0.0,0.0,0.0,0.0,0.0,0.0,0.0,0.0,0.0,0.0,0.0,0.0,0.0,0.0,0.0,0.0,0.0,0.0,0.0,0.0,0.0,0.0,0.0,0.0,0.0,0.0,0.0,0.0,0.0,-2.2419,-2.2419,-2.2419,0.0,0.0,0.0,0.0,0.0,0.0,0.0,0.0,0.0,0.0,0.0,0.0,0.0,0.0,0.0,0.0,0.0,0.0,0.0,0.0,0.0,0.0,0.0,0.0,0.0,0.0,0.0,0.0,0.0,0.0,0.0,0.0,0.0,0.0,0.0,0.0,0.0,0.0,0.0,0.0,0.0,0.0,0.0,0.0,0.0,0.0,0.0,0.0,0.0,0.0,0.0,0.0,0.0,0.0,0.0,0.0,0.0,0.0,0.0,0.0,0.0,0.0,0.0,0.0,0.0,0.0,0.0,0.0,0.0,0.0,0.0,0.0,0.0,0.0,0.0,0.0,0.0,0.0,0.0,0.0,0.0,0.0,0.0,0.0,0.0,0.0,0.0,0.0,0.0,0.0,0.0,0.0,0.0,0.0,0.0,0.0,0.0,0.0,0.0,0.0,0.0,0.0,0.0,0.0,0.0,0.0,0.0,0.0,0.0,0.0,-2.2437,-2.2999,-2.3013,0.0,-2.3013,0.0,0.0,0.0,0.0,0.0,0.0,0.0,0.0,0.0,0.0,0.0,0.0,0.0,0.0,0.0,0.0,0.0,0.0,0.0,0.0,0.0,0.0,0.0,0.0,0.0,0.0,0.0,0.0,0.0,0.0,0.0,0.0,0.0,0.0,0.0,0.0,0.0,0.0,0.0,0.0,0.0,0.0,0.0,0.0,0.0,0.0,0.0,0.0,0.0,0.0,0.0,0.0,0.0,0.0,0.0,0.0,0.0,0.0,0.0,0.0,0.0,0.0,0.0,0.0,0.0,0.0,0.0,0.0,0.0,0.0,0.0,0.0,0.0,0.0,0.0,0.0,0.0,0.0,0.0,0.0,0.0,0.0,0.0,0.0,0.0,0.0,0.0,0.0,0.0,0.0,0.0,0.0,0.0,0.0,0.0,0.0,0.0,0.0,0.0,0.0,0.0,0.0,0.0,0.0,0.0,0.0,0.0,0.0,0.0,0.0,-2.2893,-2.3205,-2.3219,-2.3219,0.0,0.0,0.0,0.0,0.0,0.0,0.0,0.0,0.0,0.0,0.0,0.0,0.0,0.0,0.0,0.0,0.0,0.0,0.0,0.0,0.0,0.0,0.0,0.0,0.0,0.0,0.0,0.0,0.0,0.0,0.0,0.0,0.0,0.0,0.0,0.0,0.0,0.0,0.0,0.0,0.0,0.0,0.0,0.0,0.0,0.0,0.0,0.0,0.0,0.0,0.0,0.0,0.0,0.0,0.0,0.0,0.0,0.0,0.0,0.0,0.0,0.0,0.0,0.0,0.0,0.0,0.0,0.0,0.0,0.0,0.0,0.0,0.0,0.0,0.0,0.0,0.0,0.0,0.0,0.0,0.0,0.0,0.0,0.0,0.0,0.0,0.0,0.0,0.0,0.0,0.0,0.0,0.0,0.0,0.0,0.0,0.0,0.0,0.0,0.0,0.0,0.0,0.0,0.0,0.0,0.0,0.0,0.0,0.0,0.0,-2.3029,-2.3318,-2.3595,-2.3633,-2.3477,-2.3084,0.0,0.0,0.0,0.0,0.0,0.0,0.0,0.0,0.0,0.0,0.0,0.0,0.0,0.0,0.0,0.0,0.0,0.0,0.0,0.0,0.0,0.0,0.0,0.0,0.0,0.0,0.0,0.0,0.0,0.0,0.0,0.0,0.0,0.0,0.0,0.0,0.0,0.0,0.0,0.0,0.0,0.0,0.0,0.0,0.0,0.0,0.0,0.0,0.0,0.0,0.0,0.0,0.0,0.0,0.0,0.0,0.0,0.0,0.0,0.0,0.0,0.0,0.0,0.0,0.0,0.0,0.0,0.0,0.0,0.0,0.0,0.0,0.0,0.0,0.0,0.0,0.0,0.0,0.0,0.0,0.0,0.0,0.0,0.0,0.0,0.0,0.0,0.0,0.0,0.0,0.0,0.0,0.0,0.0,0.0,0.0,0.0,0.0,0.0,0.0,0.0,0.0,0.0,0.0,0.0,0.0,0.0,0.0,-2.4095,-2.3589,-2.3676,-2.4437,-2.4465,-2.383,0.0,0.0,0.0,0.0,0.0,0.0,0.0,0.0,0.0,0.0,0.0,0.0,0.0,0.0,0.0,0.0,0.0,0.0,0.0,0.0,0.0,0.0,0.0,0.0,0.0,0.0,0.0,0.0,0.0,0.0,0.0,0.0,0.0,0.0,0.0,0.0,0.0,0.0,0.0,0.0,0.0,0.0,0.0,0.0,0.0,0.0,0.0,0.0,0.0,0.0,0.0,0.0,0.0,0.0,0.0,0.0,0.0,0.0,0.0,0.0,0.0,0.0,0.0,0.0,0.0,0.0,0.0,0.0,0.0,0.0,0.0,0.0,0.0,0.0,0.0,0.0,0.0,0.0,0.0,0.0,0.0,0.0,0.0,0.0,0.0,0.0,0.0,0.0,0.0,0.0,0.0,0.0,0.0,0.0,0.0,0.0,0.0,0.0,0.0,0.0,0.0,0.0,0.0,0.0,0.0,0.0,0.0,0.0,0.0,-2.306,-2.3412,-2.4085,-2.5124,-2.4406,-2.376,0.0,0.0,0.0,0.0,0.0,0.0,0.0,0.0,0.0,0.0,0.0,0.0,0.0,0.0,0.0,0.0,0.0,0.0,0.0,0.0,0.0,0.0,0.0,0.0,0.0,0.0,0.0,0.0,0.0,0.0,0.0,0.0,0.0,0.0,0.0,0.0,0.0,0.0,0.0,0.0,0.0,0.0,0.0,0.0,0.0,0.0,0.0,0.0,0.0,0.0,0.0,0.0,0.0,0.0,0.0,0.0,0.0,0.0,0.0,0.0,0.0,0.0,0.0,0.0,0.0,0.0,0.0,0.0,0.0,0.0,0.0,0.0,0.0,0.0,0.0,0.0,0.0,0.0,0.0,0.0,0.0,0.0,0.0,0.0,0.0,0.0,0.0,0.0,0.0,0.0,0.0,0.0,0.0,0.0,0.0,0.0,0.0,0.0,0.0,0.0,0.0,0.0,0.0,0.0,0.0,0.0,0.0,0.0,0.0,-2.3136,0.0,-2.4712,0.0,-2.4514,-2.3764,0.0,0.0,0.0,0.0,0.0,0.0,0.0,0.0,0.0,0.0,0.0,0.0,0.0,0.0,0.0,0.0,0.0,0.0,0.0,0.0,0.0,0.0,0.0,0.0,0.0,0.0,0.0,0.0,0.0,0.0,0.0,0.0,0.0,0.0,0.0,0.0,0.0,0.0,0.0,0.0,0.0,0.0,0.0,0.0,0.0,0.0,0.0,0.0,0.0,0.0,0.0,0.0,0.0,0.0,0.0,0.0,0.0,0.0,0.0,0.0,0.0,0.0,0.0,0.0,0.0,0.0,0.0,0.0,0.0,0.0,0.0,0.0,0.0,0.0,0.0,0.0,0.0,0.0,0.0,0.0,0.0,0.0,0.0,0.0,0.0,0.0,0.0,0.0,0.0,0.0,0.0,0.0,0.0,0.0,0.0,0.0,0.0,0.0,0.0,0.0,0.0,0.0,0.0,0.0,0.0,0.0,0.0,0.0,-2.316,-2.4609,-2.5325,-2.5444,-2.496,-2.481,-2.3911,0.0,0.0,0.0,0.0,0.0,0.0,0.0,0.0,0.0,0.0,0.0,0.0,0.0,0.0,0.0,0.0,0.0,0.0,0.0,0.0,0.0,0.0,0.0,0.0,0.0,0.0,0.0,0.0,0.0,0.0,0.0,0.0,0.0,0.0,0.0,0.0,0.0,0.0,0.0,0.0,0.0,0.0,0.0,0.0,0.0,0.0,0.0,0.0,0.0,0.0,0.0,0.0,0.0,0.0,0.0,0.0,0.0,0.0,0.0,0.0,0.0,0.0,0.0,0.0,0.0,0.0,0.0,0.0,0.0,0.0,0.0,0.0,0.0,0.0,0.0,0.0,0.0,0.0,0.0,0.0,0.0,0.0,0.0,0.0,0.0,0.0,0.0,0.0,0.0,0.0,0.0,0.0,0.0,0.0,0.0,0.0,0.0,0.0,0.0,0.0,0.0,0.0,0.0,0.0,0.0,0.0,0.0,0.0,0.0,-2.4019,-2.4732,-2.5255,-2.5458,-2.4631,-2.3905,0.0,0.0,0.0,0.0,0.0,0.0,0.0,0.0,0.0,0.0,0.0,0.0,0.0,0.0,0.0,0.0,0.0,0.0,0.0,0.0,0.0,0.0,0.0,0.0,0.0,0.0,0.0,0.0,0.0,0.0,0.0,0.0,0.0,0.0,0.0,0.0,0.0,0.0,0.0,0.0,0.0,0.0,0.0,0.0,0.0,0.0,0.0,0.0,0.0,0.0,0.0,0.0,0.0,0.0,0.0,0.0,0.0,0.0,0.0,0.0,0.0,0.0,0.0,0.0,0.0,0.0,0.0,0.0,0.0,0.0,0.0,0.0,0.0,0.0,0.0,0.0,0.0,0.0,0.0,0.0,0.0,0.0,0.0,0.0,0.0,0.0,0.0,0.0,0.0,0.0,0.0,0.0,0.0,0.0,0.0,0.0,0.0,0.0,0.0,0.0,0.0,0.0,0.0,0.0,0.0,0.0,0.0,0.0,0.0,-2.451,-2.5177,-2.5633,-2.5803,-2.4776,-2.4123,-2.3914,0.0,0.0,0.0,0.0,0.0,0.0,0.0,0.0,0.0,0.0,0.0,0.0,0.0,0.0,0.0,0.0,0.0,0.0,0.0,0.0,0.0,0.0,0.0,0.0,0.0,0.0,0.0,0.0,0.0,0.0,0.0,0.0,0.0,0.0,0.0,0.0,0.0,0.0,0.0,0.0,0.0,0.0,0.0,0.0,0.0,0.0,0.0,0.0,0.0,0.0,0.0,0.0,0.0,0.0,0.0,0.0,0.0,0.0,0.0,0.0,0.0,0.0,0.0,0.0,0.0,0.0,0.0,0.0,0.0,0.0,0.0,0.0,0.0,0.0,0.0,0.0,0.0,0.0,0.0,0.0,0.0,0.0,0.0,0.0,0.0,0.0,0.0,0.0,0.0,0.0,0.0,0.0,0.0,0.0,0.0,0.0,0.0,0.0,0.0,0.0,0.0,0.0,0.0,0.0,0.0,0.0,0.0,0.0,-2.5836,-2.6515,-2.6518,-2.589,-2.5197,-2.4534,0.0,0.0,0.0,0.0,0.0,0.0,0.0,0.0,0.0,0.0,0.0,0.0,0.0,0.0,0.0,0.0,0.0,0.0,0.0,0.0,0.0,0.0,0.0,0.0,0.0,0.0,0.0,0.0,0.0,0.0,0.0,0.0,0.0,0.0,0.0,0.0,0.0,0.0,0.0,0.0,0.0,0.0,0.0,0.0,0.0,0.0,0.0,0.0,0.0,0.0,0.0,0.0,0.0,0.0,0.0,0.0,0.0,0.0,0.0,0.0,0.0,0.0,0.0,0.0,0.0,0.0,0.0,0.0,0.0,0.0,0.0,0.0,0.0,0.0,0.0,0.0,0.0,0.0,0.0,0.0,0.0,0.0,0.0,0.0,0.0,0.0,0.0,0.0,0.0,0.0,0.0,0.0,0.0,0.0,0.0,0.0,0.0,0.0,0.0,0.0,0.0,0.0,0.0,0.0,0.0,0.0,0.0,0.0,0.0,-2.6547,-2.7157,-2.7171,-2.6544,-2.5404,-2.4737,0.0,0.0,0.0,0.0,0.0,0.0,0.0,0.0,0.0,0.0,0.0,0.0,0.0,0.0,0.0,0.0,0.0,0.0,0.0,0.0,0.0,0.0,0.0,0.0,0.0,0.0,0.0,0.0,0.0,0.0,0.0,0.0,0.0,0.0,0.0,0.0,0.0,0.0,0.0,0.0,0.0,0.0,0.0,0.0,0.0,0.0,0.0,0.0,0.0,0.0,0.0,0.0,0.0,0.0,0.0,0.0,0.0,0.0,0.0,0.0,0.0,0.0,0.0,0.0,0.0,0.0,0.0,0.0,0.0,0.0,0.0,0.0,0.0,0.0,0.0,0.0,0.0,0.0,0.0,0.0,0.0,0.0,0.0,0.0,0.0,0.0,0.0,0.0,0.0,0.0,0.0,0.0,0.0,0.0,0.0,0.0,0.0,0.0,0.0,0.0,0.0,0.0,0.0,0.0,0.0,0.0,0.0,0.0,-2.6942,-2.7186,-2.7521,-2.7536,-2.72,-2.5908,-2.5085,0.0,0.0,0.0,0.0,0.0,0.0,0.0,0.0,0.0,0.0,0.0,0.0,0.0,0.0,0.0,0.0,0.0,0.0,0.0,0.0,0.0,0.0,0.0,0.0,0.0,0.0,0.0,0.0,0.0,0.0,0.0,0.0,0.0,0.0,0.0,0.0,0.0,0.0,0.0,0.0,0.0,0.0,0.0,0.0,0.0,0.0,0.0,0.0,0.0,0.0,0.0,0.0,0.0,0.0,0.0,0.0,0.0,0.0,0.0,0.0,0.0,0.0,0.0,0.0,0.0,0.0,0.0,0.0,0.0,0.0,0.0,0.0,0.0,0.0,0.0,0.0,0.0,0.0,0.0,0.0,0.0,0.0,0.0,0.0,0.0,0.0,0.0,0.0,0.0,0.0,0.0,0.0,0.0,0.0,0.0,0.0,0.0,0.0,0.0,0.0,0.0,0.0,0.0,0.0,0.0,0.0,0.0,0.0,-2.7535,-2.7797,-2.7855,-2.7826,-2.7666,-2.646,-2.5502,0.0,0.0,0.0,0.0,0.0,0.0,0.0,0.0,0.0,0.0,0.0,0.0,0.0,0.0,0.0,0.0,0.0,0.0,0.0,0.0,0.0,0.0,0.0,0.0,0.0,0.0,0.0,0.0,0.0,0.0,0.0,0.0,0.0,0.0,0.0,0.0,0.0,0.0,0.0,0.0,0.0,0.0,0.0,0.0,0.0,0.0,0.0,0.0,0.0,0.0,0.0,0.0,0.0,0.0,0.0,0.0,0.0,0.0,0.0,0.0,0.0,0.0,0.0,0.0,0.0,0.0,0.0,0.0,0.0,0.0,0.0,0.0,0.0,0.0,0.0,0.0,0.0,0.0,0.0,0.0,0.0,0.0,0.0,0.0,0.0,0.0,0.0,0.0,0.0,0.0,0.0,0.0,0.0,0.0,0.0,0.0,0.0,0.0,0.0,0.0,0.0,0.0,0.0,0.0,0.0,0.0,0.0,0.0,-2.8182,-2.8492,-2.8942,-2.8725,-2.7724,-2.646,-2.5487,0.0,0.0,0.0,0.0,0.0,0.0,0.0,0.0,0.0,0.0,0.0,0.0,0.0,0.0,0.0,0.0,0.0,0.0,0.0,0.0,0.0,0.0,0.0,0.0,0.0,0.0,0.0,0.0,0.0,0.0,0.0,0.0,0.0,0.0,0.0,0.0,0.0,0.0,0.0,0.0,0.0,0.0,0.0,0.0,0.0,0.0,0.0,0.0,-2.481,0.0,0.0,0.0,0.0,0.0,0.0,0.0,0.0,0.0,0.0,0.0,0.0,0.0,0.0,0.0,0.0,0.0,0.0,0.0,0.0,0.0,0.0,0.0,0.0,0.0,0.0,0.0,0.0,0.0,0.0,0.0,0.0,0.0,0.0,0.0,0.0,0.0,0.0,0.0,0.0,0.0,0.0,0.0,0.0,0.0,0.0,0.0,0.0,0.0,0.0,0.0,0.0,0.0,0.0,0.0,0.0,0.0,0.0,0.0,-2.8484,-2.9116,-2.9421,-2.916,-2.8202,-2.7215,-2.6086,0.0,0.0,0.0,0.0,0.0,0.0,0.0,0.0,0.0,0.0,0.0,0.0,0.0,0.0,0.0,0.0,0.0,0.0,0.0,0.0,0.0,0.0,0.0,0.0,0.0,0.0,0.0,0.0,0.0,0.0,0.0,0.0,0.0,0.0,0.0,0.0,0.0,0.0,0.0,0.0,0.0,0.0,0.0,0.0,0.0,0.0,0.0,0.0,0.0,0.0,0.0,0.0,0.0,0.0,0.0,0.0,0.0,0.0,0.0,0.0,0.0,0.0,0.0,0.0,0.0,0.0,0.0,0.0,0.0,0.0,0.0,0.0,0.0,0.0,0.0,0.0,0.0,0.0,0.0,0.0,0.0,0.0,0.0,0.0,0.0,0.0,0.0,0.0,0.0,0.0,0.0,0.0,0.0,0.0,0.0,0.0,0.0,0.0,0.0,0.0,0.0,0.0,0.0,0.0,0.0,0.0,0.0,-2.7725,-2.8728,-2.9711,-2.974,-2.9479,-2.8826,-2.8216,-2.6956,-2.5042,0.0,0.0,0.0,0.0,0.0,0.0,0.0,0.0,0.0,0.0,0.0,0.0,0.0,0.0,0.0,0.0,0.0,0.0,0.0,0.0,0.0,0.0,0.0,0.0,0.0,0.0,0.0,0.0,0.0,0.0,0.0,0.0,0.0,0.0,0.0,0.0,0.0,0.0,-2.3912,-2.4893,0.0,0.0,0.0,0.0,0.0,0.0,0.0,0.0,-2.5893,0.0,0.0,0.0,0.0,0.0,0.0,0.0,0.0,0.0,0.0,0.0,0.0,0.0,0.0,0.0,0.0,0.0,0.0,0.0,0.0,0.0,0.0,0.0,0.0,0.0,0.0,0.0,0.0,0.0,0.0,0.0,0.0,0.0,0.0,0.0,0.0,0.0,0.0,0.0,0.0,0.0,0.0,0.0,0.0,0.0,0.0,0.0,0.0,0.0,0.0,0.0,0.0,0.0,0.0,0.0,0.0,-2.7854,-2.8268,-2.9103,-3.0364,-3.0452,-3.0118,-2.9493,-2.8855,-2.7607,-2.5749,0.0,0.0,0.0,0.0,0.0,0.0,0.0,0.0,0.0,0.0,0.0,0.0,0.0,0.0,0.0,0.0,0.0,0.0,0.0,0.0,0.0,0.0,0.0,0.0,0.0,0.0,0.0,0.0,0.0,0.0,0.0,0.0,0.0,0.0,0.0,0.0,0.0,0.0,0.0,-2.3809,-2.4006,0.0,0.0,0.0,0.0,0.0,0.0,0.0,0.0,-2.5893,0.0,0.0,0.0,0.0,0.0,0.0,0.0,0.0,0.0,0.0,0.0,0.0,0.0,0.0,0.0,0.0,0.0,0.0,0.0,0.0,0.0,0.0,0.0,0.0,0.0,0.0,0.0,0.0,0.0,0.0,0.0,0.0,0.0,0.0,0.0,0.0,0.0,0.0,0.0,0.0,0.0,0.0,0.0,0.0,0.0,0.0,0.0,0.0,0.0,0.0,0.0,0.0,0.0,0.0,0.0,-2.8097,-2.8641,-2.942,-3.0569,-3.0612,-3.0147,-2.916,-2.8521,-2.7246,0.0,0.0,0.0,0.0,0.0,0.0,0.0,0.0,0.0,0.0,0.0,0.0,0.0,0.0,0.0,0.0,0.0,0.0,0.0,0.0,0.0,0.0,0.0,0.0,0.0,0.0,0.0,0.0,0.0,0.0,0.0,0.0,0.0,0.0,0.0,0.0,0.0,0.0,0.0,0.0,-2.457,-2.4808,-2.5397,0.0,0.0,0.0,0.0,0.0,0.0,-2.5893,-2.5893,0.0,0.0,0.0,0.0,0.0,0.0,0.0,0.0,0.0,0.0,0.0,0.0,0.0,0.0,0.0,0.0,0.0,0.0,0.0,0.0,0.0,0.0,0.0,0.0,0.0,0.0,0.0,0.0,0.0,0.0,0.0,0.0,0.0,0.0,0.0,0.0,0.0,0.0,0.0,0.0,0.0,0.0,0.0,0.0,0.0,0.0,0.0,0.0,0.0,0.0,0.0,0.0,0.0,0.0,0.0,-2.794,-2.8812,-2.9648,-3.0509,-3.0582,-3.006,-2.8927,-2.826,-2.6985,0.0,0.0,0.0,0.0,0.0,0.0,0.0,0.0,0.0,0.0,0.0,0.0,0.0,0.0,0.0,0.0,0.0,0.0,0.0,0.0,0.0,0.0,0.0,0.0,0.0,0.0,0.0,0.0,0.0,0.0,0.0,0.0,0.0,0.0,0.0,0.0,0.0,0.0,0.0,0.0,0.0,-2.5981,-2.5744,-2.6344,0.0,0.0,0.0,0.0,-2.5893,-2.5893,0.0,0.0,0.0,0.0,0.0,0.0,0.0,0.0,0.0,0.0,0.0,0.0,0.0,0.0,0.0,0.0,0.0,0.0,0.0,0.0,0.0,0.0,0.0,0.0,0.0,0.0,0.0,0.0,0.0,0.0,0.0,0.0,0.0,0.0,0.0,0.0,0.0,0.0,0.0,0.0,0.0,0.0,0.0,0.0,0.0,0.0,0.0,0.0,0.0,0.0,0.0,0.0,0.0,0.0,0.0,0.0,-2.7215,-2.8641,-2.9693,-3.0299,-3.0507,-3.0263,-2.9508,-2.8898,-2.7665,0.0,0.0,0.0,0.0,0.0,0.0,0.0,0.0,0.0,0.0,0.0,0.0,0.0,0.0,0.0,0.0,0.0,0.0,0.0,0.0,0.0,0.0,0.0,0.0,0.0,0.0,0.0,0.0,0.0,0.0,0.0,0.0,0.0,0.0,0.0,0.0,0.0,0.0,0.0,0.0,0.0,-2.6315,-2.5268,-2.6091,-2.6596,0.0,0.0,-2.5893,-2.5893,-2.5893,0.0,0.0,0.0,0.0,0.0,0.0,0.0,0.0,0.0,0.0,0.0,0.0,0.0,0.0,0.0,0.0,0.0,0.0,0.0,0.0,0.0,0.0,0.0,0.0,0.0,0.0,0.0,0.0,0.0,0.0,0.0,0.0,0.0,0.0,0.0,0.0,0.0,0.0,0.0,0.0,0.0,0.0,0.0,0.0,0.0,0.0,0.0,0.0,0.0,0.0,0.0,0.0,0.0,0.0,0.0,-2.6099,-2.7116,-2.8752,-2.9827,-3.0174,-3.0249,-2.9865,-2.8958,-2.8323,-2.7149,0.0,0.0,0.0,0.0,0.0,0.0,0.0,0.0,0.0,0.0,0.0,0.0,0.0,0.0,0.0,0.0,0.0,0.0,0.0,0.0,0.0,0.0,0.0,0.0,0.0,0.0,0.0,0.0,0.0,0.0,0.0,0.0,0.0,0.0,0.0,0.0,0.0,0.0,0.0,0.0,0.0,0.0,-2.6103,-2.6805,0.0,0.0,0.0,-2.6413,-2.6413,0.0,0.0,0.0,0.0,0.0,0.0,0.0,0.0,0.0,0.0,0.0,0.0,0.0,0.0,0.0,0.0,0.0,0.0,0.0,0.0,0.0,0.0,0.0,0.0,0.0,0.0,0.0,0.0,0.0,0.0,0.0,0.0,0.0,0.0,0.0,0.0,0.0,0.0,0.0,0.0,0.0,0.0,0.0,0.0,0.0,0.0,0.0,0.0,0.0,0.0,0.0,0.0,0.0,0.0,0.0,0.0,0.0,-2.6805,-2.8788,-2.9853,-3.0005,-2.9924,-2.9384,-2.8383,-2.7779,0.0,0.0,0.0,0.0,0.0,0.0,0.0,0.0,0.0,0.0,0.0,0.0,0.0,0.0,0.0,0.0,0.0,0.0,0.0,0.0,0.0,0.0,0.0,0.0,0.0,0.0,0.0,-1.8377,0.0,0.0,0.0,0.0,0.0,0.0,0.0,0.0,0.0,0.0,0.0,0.0,0.0,0.0,-2.7042,-2.7044,-2.7607,-2.7974,0.0,0.0,-2.6989,-2.6821,-2.6778,-2.661,0.0,0.0,0.0,0.0,0.0,0.0,0.0,0.0,0.0,0.0,0.0,0.0,0.0,0.0,0.0,0.0,0.0,0.0,0.0,0.0,0.0,0.0,0.0,0.0,0.0,0.0,0.0,0.0,0.0,0.0,0.0,0.0,0.0,0.0,0.0,0.0,0.0,0.0,0.0,0.0,0.0,0.0,0.0,0.0,0.0,0.0,0.0,0.0,0.0,0.0,0.0,0.0,0.0,0.0,-2.5921,-2.6061,-2.8516,-2.9808,-2.9808,-2.9465,-2.8926,-2.8226,-2.7639,-2.6465,0.0,0.0,0.0,0.0,0.0,0.0,0.0,0.0,0.0,0.0,0.0,0.0,0.0,0.0,0.0,0.0,0.0,0.0,0.0,0.0,0.0,0.0,0.0,0.0,0.0,0.0,0.0,0.0,0.0,0.0,0.0,0.0,0.0,0.0,0.0,0.0,0.0,0.0,0.0,0.0,0.0,-2.7659,-2.7731,-2.824,-2.8422,0.0,-2.7763,-2.7509,-2.6905,-2.6792,-2.6596,-2.5992,0.0,0.0,0.0,0.0,0.0,0.0,0.0,0.0,0.0,0.0,0.0,0.0,0.0,0.0,0.0,0.0,0.0,0.0,0.0,0.0,0.0,0.0,0.0,0.0,0.0,0.0,0.0,0.0,0.0,0.0,0.0,0.0,0.0,0.0,0.0,0.0,0.0,0.0,0.0,0.0,0.0,0.0,0.0,0.0,0.0,0.0,0.0,0.0,0.0,0.0,0.0,0.0,0.0,-2.5893,-2.5921,-2.8398,-2.9682,-2.9682,-2.9532,-2.8985,-2.811,-2.7854,-2.6715,0.0,0.0,0.0,0.0,0.0,0.0,0.0,0.0,0.0,0.0,0.0,0.0,0.0,0.0,0.0,0.0,0.0,0.0,0.0,0.0,0.0,0.0,0.0,0.0,0.0,0.0,0.0,0.0,-1.9709,-1.9711,-1.9459,0.0,0.0,0.0,0.0,0.0,0.0,0.0,0.0,0.0,0.0,-2.6982,-2.7001,-2.7577,0.0,0.0,-2.8307,-2.8254,-2.8015,-2.765,-2.72,-2.6568,-2.6146,0.0,0.0,0.0,0.0,0.0,0.0,0.0,0.0,0.0,0.0,0.0,0.0,0.0,0.0,0.0,0.0,0.0,0.0,0.0,0.0,0.0,0.0,0.0,0.0,0.0,0.0,0.0,0.0,0.0,0.0,0.0,0.0,0.0,0.0,0.0,0.0,0.0,0.0,0.0,0.0,0.0,0.0,0.0,0.0,0.0,0.0,0.0,0.0,0.0,0.0,0.0,0.0,-2.5893,-2.5907,-2.8352,-2.9602,-2.9602,-2.9434,-2.889,-2.7964,-2.7738,-2.6635,0.0,0.0,0.0,0.0,0.0,0.0,0.0,0.0,0.0,0.0,0.0,0.0,0.0,0.0,0.0,0.0,0.0,0.0,0.0,0.0,0.0,0.0,0.0,0.0,0.0,0.0,0.0,0.0,-1.9888,-1.963,-1.9384,0.0,0.0,0.0,0.0,0.0,0.0,0.0,0.0,0.0,0.0,-2.6356,-2.6765,-2.7405,-2.8012,-2.8438,-2.8761,-2.89,-2.8717,-2.8478,-2.8043,-2.7228,0.0,0.0,0.0,0.0,0.0,0.0,0.0,0.0,0.0,0.0,0.0,0.0,0.0,0.0,0.0,0.0,0.0,0.0,0.0,0.0,0.0,0.0,0.0,0.0,0.0,0.0,0.0,-1.8836,0.0,0.0,-1.8813,0.0,0.0,0.0,0.0,0.0,0.0,0.0,0.0,0.0,0.0,0.0,0.0,0.0,0.0,0.0,0.0,0.0,0.0,0.0,0.0,0.0,0.0,-2.5907,-2.5936,-2.8352,-2.9602,-2.9588,-2.9026,-2.8436,-2.7819,-2.7158,-2.5964,-2.4174,0.0,0.0,0.0,0.0,0.0,0.0,0.0,0.0,0.0,0.0,0.0,0.0,0.0,0.0,0.0,0.0,0.0,0.0,0.0,0.0,0.0,0.0,0.0,0.0,0.0,0.0,-2.1315,-2.0522,-1.9747,0.0,0.0,0.0,0.0,0.0,0.0,0.0,0.0,0.0,0.0,-2.5473,-2.6087,-2.7246,-2.8038,-2.8441,-2.85,-2.9103,-2.9361,-2.8783,-2.9164,-2.9167,0.0,0.0,0.0,0.0,0.0,0.0,0.0,0.0,0.0,0.0,0.0,0.0,0.0,0.0,0.0,0.0,0.0,0.0,0.0,0.0,0.0,0.0,0.0,0.0,0.0,0.0,0.0,-1.954,-1.9413,0.0,0.0,0.0,0.0,0.0,0.0,0.0,0.0,0.0,0.0,0.0,-2.2037,-2.3145,0.0,0.0,0.0,0.0,0.0,0.0,0.0,0.0,0.0,0.0,0.0,0.0,-2.609,-2.6582,-2.8549,-2.9602,-2.9602,-2.9406,-2.8816,-2.7833,-2.7594,-2.6385,-2.4163,0.0,0.0,0.0,0.0,0.0,0.0,0.0,0.0,0.0,0.0,0.0,0.0,0.0,0.0,0.0,0.0,0.0,0.0,0.0,0.0,0.0,0.0,0.0,0.0,0.0,-2.0706,0.0,0.0,0.0,0.0,0.0,0.0,0.0,0.0,0.0,0.0,0.0,-2.3853,-2.4367,-2.4923,-2.5521,-2.6257,-2.7116,-2.7752,0.0,0.0,0.0,0.0,0.0,0.0,0.0,0.0,0.0,0.0,0.0,0.0,0.0,0.0,-2.7664,-2.6462,-2.5463,-2.4639,-2.415,0.0,0.0,0.0,0.0,0.0,0.0,0.0,0.0,0.0,0.0,0.0,0.0,0.0,0.0,-2.0595,0.0,-2.0285,0.0,0.0,0.0,0.0,0.0,0.0,0.0,0.0,-2.2796,-2.3311,-2.3247,-2.4217,-2.4382,0.0,-2.4208,-2.3638,0.0,0.0,0.0,0.0,0.0,0.0,0.0,0.0,-2.6077,-2.6521,-2.8255,-2.923,-2.9216,-2.9216,-2.8646,-2.7482,-2.6828,-2.5827,-2.4458,-2.3403,-2.2658,0.0,0.0,0.0,0.0,0.0,0.0,0.0,0.0,0.0,0.0,0.0,0.0,0.0,0.0,0.0,0.0,0.0,0.0,0.0,0.0,0.0,0.0,0.0,-2.0085,0.0,0.0,0.0,0.0,0.0,0.0,0.0,0.0,0.0,-2.2967,-2.3746,-2.4366,-2.4647,-2.5156,-2.5608,-2.5939,0.0,0.0,0.0,0.0,0.0,0.0,0.0,-2.9019,-2.9192,-2.9166,-2.9224,-2.9467,-2.9591,-2.9403,-2.8654,0.0,0.0,-2.7835,-2.6651,-2.5725,-2.524,-2.4655,-2.4104,-2.3685,-2.3691,-2.3795,0.0,0.0,0.0,0.0,0.0,0.0,0.0,0.0,-2.1537,-2.1571,0.0,-2.1489,0.0,0.0,0.0,0.0,0.0,-2.1514,0.0,0.0,-2.4225,-2.5222,-2.5787,-2.6176,-2.6223,-2.5844,-2.6259,-2.5314,-2.3099,-2.268,0.0,0.0,0.0,0.0,0.0,0.0,-2.5858,-2.5891,-2.7575,-2.846,-2.8473,-2.846,-2.7936,-2.6758,-2.5073,-2.4381,-2.4899,-2.439,-2.3544,-2.2334,-2.2236,0.0,0.0,0.0,0.0,0.0,0.0,0.0,0.0,0.0,0.0,0.0,0.0,0.0,0.0,0.0,0.0,0.0,0.0,0.0,0.0,-2.0515,0.0,0.0,0.0,0.0,0.0,0.0,0.0,0.0,0.0,0.0,-2.4294,-2.4548,-2.5031,-2.5872,0.0,0.0,0.0,0.0,-2.7668,-2.7705,-2.8497,-2.9048,-2.9048,-2.9548,-2.9728,-2.9197,0.0,0.0,-2.9362,-2.9841,-3.0002,-2.9376,-2.969,-2.9977,-2.9138,-2.8066,-2.7324,-2.7232,-2.595,-2.4856,-2.4696,-2.432,-2.3911,-2.526,0.0,0.0,0.0,0.0,-2.3752,-2.3959,-2.459,-2.4074,-2.3523,-2.2972,-2.2823,0.0,0.0,0.0,0.0,0.0,0.0,-2.3442,-2.4281,-2.468,-2.5194,-2.5715,-2.5866,-2.5849,-2.5721,-2.5911,-2.559,-2.4908,-2.4425,-2.3637,-2.2623,0.0,0.0,0.0,0.0,-2.573,-2.6327,-2.7274,-2.7789,-2.7802,-2.7789,-2.7247,-2.6127,-2.5553,-2.4978,-2.4313,-2.4588,-2.4374,-2.3586,-2.3108,0.0,0.0,0.0,0.0,0.0,0.0,0.0,0.0,0.0,0.0,0.0,0.0,0.0,0.0,0.0,0.0,0.0,0.0,0.0,-1.9732,-1.9395,-1.9459,0.0,0.0,0.0,0.0,0.0,0.0,0.0,0.0,0.0,-2.5754,-2.5574,-2.5497,0.0,0.0,-2.624,-2.6589,-2.7025,-2.7427,-2.7797,-2.8081,0.0,-2.8264,-2.8633,-2.9038,-2.929,-3.0045,-3.0381,-2.9501,-2.954,-2.9353,-2.8482,-2.8554,-2.8665,-2.8358,-2.8482,-2.8354,-2.7875,-2.7075,-2.631,-2.5784,-2.5237,-2.4867,-2.6806,-2.5647,-2.505,-2.4969,-2.5199,-2.4923,-2.5142,-2.5693,-2.5371,-2.5004,-2.4599,-2.4393,-2.3821,-2.2972,-2.2581,0.0,0.0,0.0,-2.4531,-2.5532,-2.5532,-2.5807,-2.625,-2.6313,-2.6209,-2.6014,-2.6014,-2.5911,-2.5716,-2.5383,-2.4629,-2.3525,0.0,0.0,-2.44,-2.4918,-2.5413,-2.5879,-2.6573,-2.6947,-2.6934,-2.683,-2.6453,-2.5829,-2.5315,-2.4714,-2.4044,-2.4641,-2.4584,-2.3726,-2.3573,-2.3266,0.0,0.0,0.0,0.0,0.0,0.0,0.0,0.0,0.0,0.0,0.0,-2.2498,-2.1303,0.0,0.0,0.0,-2.029,-2.0063,-2.0176,-1.9924,0.0,0.0,0.0,0.0,0.0,0.0,0.0,-2.4809,-2.5268,-2.575,-2.6421,-2.6381,-2.6313,-2.6313,-2.6391,-2.6586,-2.6926,0.0,-2.7357,-2.7713,-2.7841,-2.7881,-2.7921,-2.8127,-2.8387,-2.873,-2.9277,-2.9653,-2.9369,-2.9264,-2.9081,-2.8554,-2.8486,-2.8419,-2.8002,-2.8295,-2.8438,-2.7865,-2.7336,-2.6834,-2.6467,-2.5997,-2.5624,-2.8077,-2.7908,-2.645,-2.5842,-2.583,-2.5837,-2.5899,-2.5911,-2.5934,-2.6163,-2.6513,-2.6037,-2.5784,-2.5658,-2.4774,0.0,-2.505,-2.5073,-2.5612,-2.6559,-2.6559,-2.6772,-2.7179,-2.7179,-2.6978,-2.6559,-2.6559,-2.629,-2.5865,-2.583,-2.5566,-2.5027,-2.4276,-2.4024,-2.4207,-2.4783,-2.5052,-2.503,-2.5711,-2.6025,-2.601,-2.5676,-2.557,-2.5566,-2.4532,-2.3943,-2.3943,-2.4551,-2.4368,-2.3263,-2.3646,-2.3393,-2.226,0.0,0.0,0.0,0.0,0.0,0.0,0.0,0.0,0.0,0.0,0.0,0.0,0.0,0.0,0.0,-2.0252,0.0,-2.162,-2.1446,0.0,0.0,0.0,-2.2868,-2.2937,-2.4177,-2.5038,-2.5038,0.0,0.0,-2.657,-2.6932,-2.719,-2.719,-2.719,-2.719,-2.719,-2.7319,-2.7482,-2.7482,-2.7655,-2.7852,-2.78,-2.7857,-2.7926,-2.8002,-2.7881,-2.8219,-2.8779,-2.8924,-2.8964,-2.8806,-2.8964,-2.87,-2.7962,-2.7874,-2.7768,-2.7498,-2.7011,-2.6719,-2.6858,-2.6513,-2.6129,-2.8528,-2.8425,-2.7334,-2.6835,-2.6858,-2.7288,-2.7438,-2.7472,-2.7828,-2.7633,-2.7047,-2.6881,-2.6411,-2.5716,-2.5904,-2.603,-2.6145,-2.6508,-2.6766,-2.6995,-2.7047,-2.7075,-2.719,-2.719,-2.7162,-2.7007,-2.7047,-2.6949,-2.6835,-2.6823,-2.6611,-2.6106,-2.5942,-2.5506,-2.4977,-2.5483,-2.5816,-2.5965,-2.5753,-2.5469,-2.5135,-2.5051,-2.4618,-2.3836,-2.4128,-2.3916,-2.3198,-2.3754,-2.3952,-2.3638,-2.2858,-2.2284,-2.1979,-2.0521,0.0,0.0,0.0,0.0,0.0,0.0,0.0,0.0,0.0,-2.3515,-2.1104,0.0,-2.3658,0.0,-2.1746,-2.1447,-2.1356,-2.1567,0.0,0.0,-2.3454,-2.4143,-2.49,-2.5647,-2.6134,-2.6134,-2.6645,-2.7007,-2.7059,-2.711,-2.719,-2.719,-2.719,-2.719,-2.719,-2.7219,-2.726,-2.7272,-2.7365,-2.7353,-2.7394,-2.7505,-2.7655,-2.7841,-2.7881,-2.7909,-2.7874,-2.7862,-2.7834,-2.7696,-2.7753,-2.7725,-2.7423,-2.7464,-2.7568,-2.7457,-2.723,-2.7034,-2.7216,-2.6864,-2.6494,-2.8689,-2.8609,-2.7633,-2.719,-2.7254,-2.7529,-2.7644,-2.7679,-2.7931,-2.7736,-2.7242,-2.7461,-2.7369,-2.7059,-2.7334,-2.7449,-2.7461,-2.7541,-2.7564,-2.7541,-2.7293,-2.719,-2.719,-2.719,-2.719,-2.719,-2.719,-2.719,-2.719,-2.719,-2.7082,-2.6818,-2.6806,-2.6559,-2.6124,-2.5951,-2.5908,-2.6039,-2.5613,-2.5279,-2.5094,-2.4907,-2.4296,-2.3262,-2.3625,-2.3393,-2.2402,-2.295,-2.3022,-2.2533,-2.2109,-2.1765,-2.1461,-2.0511,-2.0105,0.0,0.0,0.0,0.0,0.0,0.0,0.0,0.0,0.0,0.0,0.0,-2.4373,-2.37,-2.3013,-2.2791,-2.3156,-2.3442,-2.3797,-2.437,-2.49,-2.5429,-2.598,-2.6496,-2.6806,-2.6806,-2.7047,-2.727,-2.7529,-2.7564,-2.7656,-2.7851,-2.7885,-2.7805,-2.7575,-2.738,-2.727,-2.7518,-2.7369,-2.719,-2.719,-2.7301,-2.7423,-2.7557,-2.7598,-2.7557,-2.7371,-2.7371,-2.7342,-2.7219,-2.7301,-2.733,-2.7231,-2.7301,-2.7371,-2.7336,-2.7244,-2.727,-2.7565,-2.7191,-2.6863,-2.8689,-2.8597,-2.7591,-2.719,-2.719,-2.719,-2.7224,-2.7293,-2.7351,-2.7339,-2.7316,-2.7725,-2.8126,-2.8505,-2.8586,-2.8609,-2.8586,-2.823,-2.8069,-2.8046,-2.7564,-2.7282,-2.7311,-2.7213,-2.719,-2.719,-2.719,-2.719,-2.719,-2.719,-2.719,-2.719,-2.719,-2.719,-2.7156,-2.6307,-2.5876,-2.5807,-2.55,-2.5361,-2.5407,-2.5034,-2.4308,-2.33,-2.3204,-2.2735,-2.1808,-2.2277,-2.2097,-2.116,-2.1543,-2.1547,-2.099,-2.0837,-2.0717,0.0,-2.0661,0.0,0.0,0.0,0.0,0.0,0.0,0.0,0.0,-2.4171,-2.5078,-2.4992,-2.4258,-2.4305,-2.5589,-2.5761,-2.5807,-2.5819,-2.6267,-2.6605,-2.6616,-2.6967,-2.719,-2.719,-2.7288,-2.7506,-2.7897,-2.8023,-2.8241,-2.8551,-2.8609,-2.8517,-2.8218,-2.7725,-2.7518,-2.7931,-2.7552,-2.7213,-2.7305,-2.7316,-2.7357,-2.7346,-2.7369,-2.7259,-2.7242,-2.719,-2.719,-2.719,-2.7231,-2.719,-2.719,-2.719,-2.719,-2.7231,-2.7208,-2.7319,-2.7649,-2.7477,-2.7183,-2.8689,-2.8609,-2.7603,-2.719,-2.719,-2.719,-2.7419,-2.7862,-2.8253,-2.8207,-2.7828,-2.7506,-2.7385,-2.7541,-2.7943,-2.8126,-2.8138,-2.8425,-2.8563,-2.8551,-2.8057,-2.7828,-2.7816,-2.7426,-2.719,-2.719,-2.719,-2.719,-2.719,-2.719,-2.719,-2.719,-2.719,-2.719,-2.7179,0.0,0.0,0.0,-2.6299,-2.585,-2.507,-2.4906,-2.4376,-2.3398,-2.3086,0.0,-2.2162,-2.2212,-2.2186,-2.1964,-2.1545,0.0,0.0,0.0,0.0,0.0,0.0,0.0,0.0,0.0,0.0,0.0,-2.2563,-2.2527,-2.2172,-2.426,-2.5607,-2.555,-2.5768,-2.5864,-2.572,-2.6083,-2.6363,-2.6375,-2.6772,-2.7093,-2.7052,-2.7174,-2.719,-2.719,-2.7575,-2.7874,-2.7989,-2.831,-2.8597,-2.8735,-2.87,-2.8838,-2.9171,-2.8413,-2.7908,-2.7931,-2.7564,-2.7362,-2.7782,-2.7828,-2.7839,-2.7839,-2.7839,-2.7667,-2.7346,-2.719,-2.719,-2.719,-2.719,-2.719,-2.719,-2.719,-2.719,-2.719,-2.719,-2.726,-2.7522,-2.7493,-2.7463,-2.8689,0.0,-2.7644,-2.719,0.0,-2.719,-2.7339,-2.7621,-2.7862,-2.7977,-2.8008,-2.7713,-2.7736,-2.7966,-2.8218,-2.8333,-2.8344,-2.8597,-2.8689,-2.8677,-2.8448,-2.8333,-2.8333,-2.8069,-2.7786,-2.761,-2.7598,-2.7483,-2.7201,-2.719,-2.719,-2.719,-2.719,-2.719,-2.719,-2.719,-2.7052,-2.6852,-2.66,-2.6249,-2.5681,-2.5164,-2.4568,-2.3833,-2.3386,0.0,0.0,0.0,0.0,0.0,0.0,0.0,0.0,0.0,0.0,-2.1146,-2.1201,-2.1376,-2.1891,-2.1675,-2.1858,-2.265,-2.3133,-2.342,-2.3361,-2.4605,-2.5559,-2.6042,-2.6345,-2.6488,-2.6439,-2.6691,-2.6852,-2.6852,-2.707,-2.719,-2.719,-2.719,-2.719,-2.7236,-2.7679,-2.81,-2.831,-2.8781,-2.9183,-2.9412,-2.9447,-2.9538,-2.9699,-2.8976,-2.8276,-2.8035,-2.7793,-2.769,-2.7943,-2.8207,-2.8333,-2.831,-2.8138,-2.7897,-2.7644,-2.7392,-2.719,-2.719,-2.719,-2.719,-2.719,-2.719,-2.719,-2.719,-2.719,-2.7231,-2.733,-2.7371,-2.7383,-2.8689,-2.8609,-2.7633,-2.719,-2.719,-2.719,-2.719,-2.719,0.0,0.0,0.0,-2.7839,-2.8069,-2.8436,-2.8528,-2.8574,-2.8574,-2.8654,-2.8689,-2.8689,-2.8609,-2.862,-2.8689,-2.8609,-2.8413,-2.8115,-2.8023,-2.777,-2.7369,-2.7247,-2.719,-2.719,-2.719,-2.719,-2.719,-2.719,-2.719,-2.7167,-2.6806,-2.6593,-2.6478,-2.5624,-2.4912,-2.4338,-2.3808,-2.3304,-2.2834,-2.2823,-2.2432,-2.1629,-2.1962,-2.2007,-2.1638,-2.1881,-2.2249,-2.2673,-2.2707,-2.2753,-2.2811,-2.2811,-2.2926,-2.3064,-2.3856,-2.4533,-2.5015,-2.513,-2.5578,-2.657,-2.6639,-2.6772,-2.7144,-2.719,-2.719,-2.719,-2.719,-2.719,-2.719,-2.719,-2.7224,-2.7351,-2.7828,-2.8299,-2.8792,-2.9297,-2.9757,-3.0101,-3.0124,-3.0216,-3.0112,-2.9412,-2.8689,-2.8253,-2.8169,-2.8138,-2.8299,-2.8574,-2.8815,-2.8827,-2.8448,-2.8103,-2.7931,-2.7564,-2.7224,-2.719,-2.719,-2.719,-2.719,-2.719,-2.719,-2.719,-2.719,-2.719,-2.719,-2.719,-2.719,-2.8689,-2.8609,-2.7644,-2.719,-2.719,-2.719,-2.719,-2.719,-2.719,-2.7224,-2.7334,-2.7334,-2.7339,-2.7419,-2.7885,-2.808,-2.8146,-2.8505,-2.8689,-2.8677,-2.8264,-2.8299,-2.8666,-2.8276,-2.8264,-2.8551,-2.8184,-2.7943,-2.7839,-2.7438,-2.719,-2.719,-2.719,-2.719,-2.719,-2.719,-2.719,-2.719,-2.711,-2.6909,-2.6513,-2.6363,-2.5784,-2.4855,-2.4349,-2.382,-2.3327,-2.3304,-2.3235,-2.3098,-2.3155,-2.3155,-2.3086,-2.2765,-2.2638,-2.2707,-2.2719,-2.2868,-2.327,-2.3304,-2.3671,-2.451,-2.474,-2.5038,-2.5555,-2.6003,-2.6485,-2.7059,-2.7052,-2.7098,-2.719,-2.719,-2.719,-2.719,-2.719,-2.719,-2.719,-2.719,-2.7392,-2.7793,-2.8299,-2.8781,-2.9274,-2.978,-3.0089,-3.0193,-3.0216,-3.0216,-3.0135,-2.9745,-2.9206,-2.8735,-2.8597,-2.8792,-2.9079,-2.932,-2.9378,-2.9389,-2.893,-2.8425,-2.8092,-2.7587,-2.7213,-2.719,-2.719,-2.719,-2.719,-2.719,-2.719,-2.719,-2.719,-2.719,-2.719,-2.719,-2.719,-2.8689,-2.8574,-2.7591,-2.719,-2.719,-2.719,-2.719,-2.719,-2.719,-2.719,-2.719,-2.719,-2.719,-2.7213,-2.7472,-2.7575,-2.7598,-2.808,-2.831,-2.8322,-2.8344,-2.8482,-2.8666,-2.8471,-2.8482,-2.8677,-2.8482,-2.823,-2.7977,-2.7748,-2.7495,-2.7213,-2.719,-2.719,-2.719,-2.719,-2.719,-2.719,-2.719,-2.7075,-2.6887,-2.6651,-2.6272,-2.5789,-2.5004,-2.4487,-2.4221,-2.3957,-2.3694,-2.3419,-2.3671,-2.3694,-2.343,-2.3442,-2.35,-2.35,-2.35,-2.3603,-2.3797,-2.4072,-2.4393,-2.4852,-2.544,-2.5853,-2.6134,-2.6375,-2.6731,-2.7121,-2.719,-2.719,-2.719,-2.719,-2.719,-2.719,-2.719,-2.719,-2.719,-2.719,-2.7426,-2.792,-2.8402,-2.8907,-2.9435,-2.9929,-3.0216,-3.0216,-3.0216,-3.0216,-3.0216,-3.0032,-2.9711,-2.9251,-2.9125,-2.9217,-2.9481,-2.9745,-2.986,-2.9883,-2.9217,-2.8689,-2.8344,-2.7782,-2.7259,-2.719,-2.719,-2.719,-2.719,-2.719,-2.719,-2.719,-2.719,-2.719,-2.719,-2.719,-2.719,-2.8689,-2.8609,-2.7603,-2.719,-2.719,-2.719,-2.719,-2.719,-2.719,-2.719,-2.719,-2.719,-2.719,-2.719,-2.719,-2.719,-2.7236,-2.7633,-2.7816,-2.7851,-2.8195,-2.8425,-2.8528,-2.854,-2.8643,-2.8827,-2.8769,-2.8563,-2.8333,-2.8207,-2.7885,-2.7396,-2.7236,-2.719,-2.719,-2.719,-2.719,-2.719,-2.719,-2.719,-2.7179,-2.6841,-2.6616,-2.6444,-2.5693,-2.5153,-2.4886,-2.4556,-2.4131,-2.3637,-2.3994,-2.4016,-2.3625,-2.3982,-2.4189,-2.4189,-2.4189,-2.4258,-2.4384,-2.482,-2.5142,-2.5279,-2.603,-2.6559,-2.6651,-2.6674,-2.6795,-2.7121,-2.719,-2.719,-2.719,-2.719,-2.719,-2.719,-2.719,-2.719,-2.719,-2.719,-2.7373,-2.792,-2.8402,-2.8907,-2.9424,-2.9917,-3.0204,-3.0216,-3.0216,-3.0216,-3.0216,-3.0216,-2.9998,-2.9567,-2.9475,-2.9653,-2.9676,-2.9952,-3.017,-3.0204,-2.9493,-2.8953,-2.8609,-2.7943,-2.7392,-2.7259,-2.719,-2.719,-2.719,-2.719,-2.719,-2.719,-2.719,-2.7108,-2.6839,-2.658,-2.6798,-2.87,-2.854,-2.7591,-2.719,-2.719,-2.719,-2.719,-2.719,-2.719,-2.719,-2.719,-2.719,-2.719,-2.719,-2.719,-2.719,-2.719,-2.7236,-2.7311,-2.727,-2.7305,-2.761,-2.8023,-2.8057,-2.8528,-2.9217,-2.8919,-2.8896,-2.9194,-2.8815,-2.8367,-2.7897,-2.7461,-2.7201,-2.719,-2.719,-2.719,-2.719,-2.719,-2.719,-2.719,-2.7144,-2.6944,-2.6513,-2.6409,-2.5876,-2.5027,-2.4877,-2.4625,-2.4189,-2.4189,-2.4189,-2.4154,-2.4189,-2.4212,-2.4212,-2.42,-2.4372,-2.4832,-2.5299,-2.5819,-2.6306,-2.6432,-2.6668,-2.7082,-2.7098,-2.7121,-2.719,-2.719,-2.719,-2.719,-2.719,-2.719,-2.719,-2.719,-2.719,-2.719,-2.719,-2.7438,-2.792,-2.8402,-2.8896,-2.9424,-2.9917,-3.0204,-3.0216,-3.0216,-3.0216,-3.0216,-3.0216,-2.9932,-2.9304,-2.9487,-2.9931,-2.9931,-3.0113,-3.008,-3.0079,-2.978,-2.9274,-2.8804,-2.831,-2.7793,-2.7396,-2.719,-2.719,-2.719,-2.719,-2.719,-2.6962,-2.6921,-2.6828,-2.6091,-2.5463,-2.5516,-2.805,-2.8166,-2.7205,-2.6787,-2.6787,-2.6798,-2.6798,-2.6787,-2.6798,-2.6921,-2.719,-2.719,-2.719,-2.719,-2.719,-2.719,-2.719,-2.719,-2.719,-2.719,-2.719,-2.7305,-2.7518,-2.7541,-2.792,-2.8586,-2.8654,-2.8804,-2.8953,-2.8792,-2.8459,-2.8054,-2.777,-2.7529,-2.7224,-2.719,-2.719,-2.719,-2.719,-2.719,-2.719,-2.719,-2.7087,-2.6921,-2.6622,-2.6341,-2.5892,-2.5555,-2.5291,-2.5119,-2.5084,-2.5084,-2.5096,-2.5096,-2.4946,-2.4659,-2.4613,-2.4843,-2.536,-2.5865,-2.6283,-2.6501,-2.6749,-2.7024,-2.7167,-2.719,-2.719,-2.719,-2.719,-2.719,-2.719,-2.719,-2.719,-2.719,-2.719,-2.719,-2.719,-2.7201,-2.7385,-2.792,-2.8413,-2.8907,-2.9424,-2.9917,-3.0193,-3.0216,-3.0216,-3.0216,-3.0216,-3.0216,-3.0034,-2.9658,-2.9463,-2.8991,-2.8713,-2.8991,-2.9233,-2.935,-2.9455,-2.9366,-2.9137,-2.8459,-2.7897,-2.7679,-2.7373,-2.7201,-2.719,-2.7138,-2.7097,-2.6663,-2.5852,-2.5474,-2.5084,-2.4744,-2.4956,-2.7481,-2.7632,-2.6847,-2.6445,-2.6332,-2.6445,-2.6445,-2.6373,-2.6445,-2.6663,-2.685,-2.6974,-2.6933,-2.6891,-2.7056,-2.719,-2.719,-2.719,-2.719,-2.719,-2.719,-2.719,-2.719,-2.719,-2.7495,-2.7966,-2.8333,-2.8643,-2.885,-2.8746,-2.8574,-2.8379,-2.8126,-2.7793,-2.7419,-2.727,-2.719,-2.719,-2.719,-2.719,-2.719,-2.719,-2.719,-2.7156,-2.6875,-2.6611,-2.6501,-2.6106,-2.5853,-2.5716,-2.5716,-2.5716,-2.5716,-2.5716,-2.5532,-2.5173,-2.5268,-2.5509,-2.5899,-2.6393,-2.6708,-2.6743,-2.7036,-2.719,-2.719,-2.719,-2.719,-2.719,-2.719,-2.719,-2.719,-2.719,-2.719,-2.7201,-2.7293,-2.7362,-2.7213,-2.7373,-2.7748,-2.7989,-2.8402,-2.8896,-2.9424,-2.9906,-3.0216,-3.0216,-3.0216,-3.0216,-3.0216,-3.0216,-3.0125,-2.9795,-2.8852,-2.8143,-2.7673,-2.7955,-2.8341,-2.8626,-2.8901,-2.8846,-2.911,-2.8428,-2.7798,-2.7428,-2.7286,-2.7142,-2.6974,-2.6921,-2.6745,-2.5883,-2.4988,-2.4188,-2.4102,-2.393,-2.3724,-2.7315,-2.725,-2.6721,-2.6249,-2.5937,-2.6332,-2.626,-2.5926,-2.6279,-2.629,-2.6104,-2.6373,-2.6332,-2.6063,-2.682,-2.7179,-2.719,-2.719,-2.719,-2.7149,-2.7149,-2.719,-2.719,-2.7201,-2.7483,-2.7897,-2.8023,-2.8517,-2.932,-2.8953,-2.8953,-2.932,-2.8494,-2.8012,-2.7851,-2.7483,-2.7201,-2.719,-2.719,-2.719,-2.719,-2.719,-2.719,-2.719,-2.7156,-2.6944,-2.6605,-2.649,-2.6232,-2.575,-2.5784,-2.5761,-2.5739,-2.57,-2.5727,-2.575,-2.6106,-2.6421,-2.6513,-2.6875,-2.711,-2.7174,-2.7144,-2.719,-2.719,-2.719,-2.719,-2.719,-2.719,-2.719,-2.719,-2.719,-2.7213,-2.727,-2.7656,-2.7644,-2.7293,-2.8012,-2.8333,-2.8195,-2.8471,-2.8987,-2.947,-2.9906,-3.017,-3.0216,-3.0216,-3.0216,-3.0216,-3.0216,-2.9852,-2.9002,-2.8049,-2.7321,-2.819,-2.7615,-2.7615,-2.7796,-2.7512,-2.767,-2.7954,-2.8043,-2.7535,-2.7171,-2.6941,-2.6768,-2.6663,-2.6487,-2.6185,-2.5368,-2.3996,-2.3323,-2.3115,-2.2378,-2.2211,-2.6243,-2.5991,-2.6069,-2.5843,-2.5506,-2.5622,-2.5569,-2.5454,-2.5611,-2.5759,-2.5895,-2.6052,-2.6021,-2.5895,-2.6229,-2.6509,-2.6787,-2.7056,-2.7056,-2.6787,-2.6745,-2.6745,-2.6745,-2.6745,-2.6989,-2.7465,-2.7828,-2.8333,-2.8941,-2.9114,-2.9125,-2.9022,-2.8987,-2.8666,-2.8069,-2.7805,-2.7564,-2.7224,-2.719,-2.719,-2.719,-2.719,-2.719,-2.719,-2.719,-2.7139,-2.6955,-2.6955,-2.6864,-2.664,-2.664,-2.664,-2.6645,-2.637,-2.6347,-2.6622,-2.6554,-2.6651,-2.6921,-2.7128,-2.719,-2.719,-2.719,-2.719,-2.719,-2.719,-2.719,-2.719,-2.719,-2.719,-2.719,-2.719,-2.7316,-2.7633,-2.7587,-2.7713,-2.8046,-2.823,-2.8264,-2.8459,-2.8896,-2.9401,-2.978,-3.0112,-3.0204,-3.0216,-3.0216,-3.0216,-3.0216,-3.0216,-2.9886,-2.9244,-2.8294,-2.7589,-2.7552,-2.6532,-2.5885,-2.5932,-2.5959,-2.6451,-2.6827,-2.6606,-2.6109,-2.6435,-2.6342,-2.5799,-2.5484,-2.4597,-2.4522,-2.4086,-2.2775,-2.2199,-2.1989,-2.1649,-2.1498,-2.5618,-2.5295,-2.5529,-2.5422,-2.5031,-2.5105,-2.5115,-2.4988,-2.5158,-2.5295,-2.5475,-2.5591,-2.5601,-2.5475,-2.5601,-2.5801,-2.6113,-2.6674,-2.6787,-2.6517,-2.6487,-2.6445,-2.6332,-2.6445,-2.6652,-2.6967,-2.7345,-2.7767,-2.8222,-2.861,-2.8747,-2.8769,-2.9083,-2.901,-2.8505,-2.831,-2.7977,-2.7564,-2.7472,-2.7373,-2.7224,-2.719,-2.719,-2.719,-2.719,-2.719,-2.719,-2.719,-2.719,-2.719,-2.719,-2.719,-2.7144,-2.6909,-2.6864,-2.7098,-2.6921,-2.6852,-2.7121,-2.719,-2.719,-2.719,-2.719,-2.719,-2.719,-2.719,-2.719,-2.719,-2.719,-2.719,-2.719,-2.719,-2.7328,-2.7679,-2.7575,-2.7725,-2.8367,-2.8482,-2.8643,-2.8953,-2.9412,-2.9791,-2.9952,-3.0112,-3.0193,-3.0216,-3.0216,-3.0216,-3.0216,-3.0034,-2.9897,-2.9439,-2.8305,-2.7494,-2.6972,-2.5858,-2.547,-2.5506,-2.4477,-2.498,-2.5431,-2.5149,-2.5126,-2.5551,-2.5391,-2.4754,-2.3925,-2.2916,-2.2476,-2.2317,-2.1683,-2.1049,-2.1021,-2.1157,-2.1114,-2.5616,-2.5238,-2.5231,-2.4956,-2.4615,-2.4946,-2.4903,-2.4668,-2.4999,-2.4956,-2.4754,-2.5041,-2.4999,-2.47,-2.5041,-2.52,-2.5443,-2.6113,-2.6445,-2.6404,-2.6404,-2.6249,-2.5979,-2.6249,-2.6434,-2.6569,-2.6539,-2.685,-2.733,-2.7498,-2.7903,-2.8565,-2.8659,-2.888,-2.9379,-2.8797,-2.8417,-2.8023,-2.7908,-2.7702,-2.7259,-2.719,-2.719,-2.719,-2.719,-2.719,-2.719,-2.719,-2.719,-2.719,-2.719,-2.719,-2.719,-2.7133,-2.7167,-2.7179,-2.7156,-2.7167,-2.7179,-2.719,-2.719,-2.719,-2.719,-2.719,-2.719,-2.719,-2.719,-2.719,-2.7236,-2.7236,-2.73,-2.7316,-2.7339,-2.7288,-2.7621,-2.7862,-2.8253,-2.893,-2.9493,-2.955,-2.9883,-2.9975,-2.9768,-2.9907,-3.0159,-3.0125,-3.017,-3.0216,-3.017,-2.9852,-2.9577,-2.9198,-2.8305,-2.7363,-2.635,-2.5324,-2.5421,-2.5295,-2.388,-2.3374,-2.3974,-2.3944,-2.3897,-2.4138,-2.3813,-2.3236,-2.2673,-2.1774,-2.1429,-2.113,-2.0474,-2.0144,-2.0331,-2.0492,-2.0687,-2.5627,-2.5192,-2.4845,-2.4658,-2.4487,-2.4658,-2.4615,-2.4507,-2.4658,-2.4625,-2.454,-2.4668,-2.4625,-2.4583,-2.4658,-2.4914,-2.52,-2.5485,-2.579,-2.601,-2.5737,-2.5706,-2.5812,-2.5706,-2.5946,-2.6487,-2.6839,-2.6866,-2.6797,-2.7088,-2.7329,-2.7391,-2.7955,-2.8354,-2.8584,-2.8619,-2.8447,-2.8038,-2.7989,-2.7736,-2.7236,-2.719,-2.719,-2.719,-2.719,-2.719,-2.719,-2.719,-2.719,-2.719,-2.719,-2.719,-2.719,-2.719,-2.719,-2.719,-2.719,-2.719,-2.719,-2.719,-2.719,-2.719,-2.719,-2.719,-2.719,-2.719,-2.719,-2.7236,-2.7529,-2.7748,-2.7793,-2.8057,-2.8057,-2.7782,-2.7598,-2.7966,-2.8827,-2.955,-2.9929,-2.9998,-3.0124,-2.9988,-2.9727,-2.9909,-3.0023,-2.9806,-2.9988,-3.0125,-3.0125,-2.9715,-2.9347,-2.8967,-2.8034,-2.7373,-2.6658,-2.5926,-2.5635,-2.515,-2.3743,-2.2461,-2.2778,-2.2836,-2.279,-2.2577,-2.2259,-2.1823,-2.1218,-2.0766,-2.0393,-2.0157,-1.9761,-1.9711,-1.9816,-1.9956,-2.0105,-2.572,-2.5409,-2.4755,-2.4507,-2.4507,-2.4507,-2.4507,-2.4507,-2.4507,-2.4507,-2.4507,-2.4507,-2.4507,-2.4507,-2.4507,-2.4668,-2.4956,-2.4956,-2.5211,-2.5549,-2.5369,-2.5295,-2.5433,-2.5295,-2.558,-2.6166,-2.6385,-2.6332,-2.6041,-2.6326,-2.6451,-2.6531,-2.7162,-2.7778,-2.8066,-2.8344,-2.8354,-2.8252,-2.8239,-2.7995,-2.7614,-2.7506,-2.7373,-2.7224,-2.719,-2.7108,-2.6962,-2.7097,-2.719,-2.719,-2.719,-2.719,-2.719,-2.719,-2.719,-2.719,-2.719,-2.719,-2.719,-2.719,-2.719,-2.719,-2.719,-2.719,-2.719,-2.719,-2.7236,-2.7541,-2.7782,-2.8046,-2.8253,-2.8482,-2.854,-2.8299,-2.8012,-2.8299,-2.9332,-2.9917,-3.0181,-3.0193,-3.0216,-2.9932,-2.9715,-2.9669,-2.9852,-2.9577,-2.9577,-2.9886,-2.9852,-2.9439,-2.9002,-2.8585,-2.8045,-2.7584,-2.7251,-2.662,-2.5936,-2.4928,-2.3786,-2.2619,-2.2196,-2.1821,-2.1644,-2.1379,-2.108,-2.0889,-2.0348,-1.9675,-1.9235,-1.9091,-1.9099,-1.9038,-1.9055,-1.9246,-1.9462,-2.5896,-2.5771,-2.4943,-2.4538,-2.4507,-2.4507,-2.4507,-2.4507,-2.4507,-2.4507,-2.4507,-2.4507,-2.4507,-2.4507,-2.4507,-2.454,-2.4507,-2.4593,-2.4796,-2.5084,-2.5073,-2.4946,-2.4711,-2.5041,-2.5454,-2.5759,-2.5549,-2.5369,-2.5369,-2.5412,-2.5434,-2.5871,-2.6314,-2.6988,-2.7643,-2.7983,-2.8185,-2.8388,-2.8522,-2.8329,-2.7889,-2.7901,-2.7676,-2.72,-2.7172,-2.7015,-2.6693,-2.6839,-2.7056,-2.719,-2.719,-2.719,-2.719,-2.719,-2.719,-2.719,-2.719,-2.719,-2.719,-2.719,-2.7149,-2.7097,-2.7149,-2.7149,-2.7097,-2.7241,-2.7424,-2.7779,-2.7996,-2.8194,-2.8482,-2.8742,-2.8742,-2.8772,-2.8594,-2.8889,-2.9424,-2.9884,-3.0091,-3.017,-3.017,-2.9988,-2.9485,-2.9439,-2.9393,-2.9255,-2.9013,-2.9268,-2.9329,-2.894,-2.8405,-2.7989,-2.7571,-2.7385,-2.7003,-2.7051,-2.637,-2.5547,-2.4437,-2.3419,-2.2043,-2.1412,-2.0761,-2.0472,-2.0193,-1.9922,-1.9539,-1.8954,-1.8596,-1.8595,-1.8509,-1.8331,-1.8417,-1.8731,-1.8938,-2.6231,-2.5823,-2.5275,-2.4817,-2.4528,-2.4507,-2.4507,-2.4507,-2.4507,-2.4507,-2.4507,-2.4507,-2.4507,-2.4507,-2.4507,-2.4507,-2.4507,-2.4507,-2.454,-2.4658,-2.4668,-2.4625,-2.4625,-2.4956,-2.5242,-2.5369,-2.5506,-2.5549,-2.5242,-2.5158,-2.5126,-2.4898,-2.5396,-2.5921,-2.6504,-2.7181,-2.7515,-2.7699,-2.8029,-2.7942,-2.7535,-2.7469,-2.7361,-2.7214,-2.7208,-2.6955,-2.6528,-2.6302,-2.6561,-2.7149,-2.719,-2.719,-2.7149,-2.7149,-2.7149,-2.7108,-2.7149,-2.719,-2.719,-2.719,-2.7067,-2.6787,-2.7049,-2.7056,-2.6757,-2.7357,-2.7596,-2.7669,-2.8014,-2.8399,-2.8366,-2.8847,-2.9162,-2.9229,-2.888,-2.8856,-2.9316,-2.9591,-2.9806,-3.0068,-2.984,-2.9441,-2.9015,-2.8833,-2.874,-2.8509,-2.8476,-2.8574,-2.8561,-2.8143,-2.7491,-2.7176,-2.6862,-2.6842,-2.6817,-2.7002,-2.6754,-2.6187,-2.5373,-2.4621,-2.3083,-2.1672,-2.0804,-2.0038,-1.9765,-1.9514,-1.8997,-1.8451,-1.8331,-1.8263,-1.8203,-1.8119,-1.8228,-1.8391,-1.8604,-2.7433,-2.6716,-2.6091,-2.5417,-2.4809,-2.459,-2.4507,-2.4507,-2.4507,-2.4507,-2.4507,-2.4507,-2.4507,-2.4507,-2.4507,-2.4507,-2.4507,-2.4507,-2.4497,-2.4497,-2.4507,-2.4507,-2.4583,-2.4828,-2.4914,-2.4903,-2.5168,-2.5126,-2.4956,-2.4914,-2.4754,-2.4624,-2.4755,-2.5157,-2.5702,-2.6315,-2.6942,-2.7304,-2.7739,-2.7817,-2.7565,-2.7525,-2.7367,-2.7283,-2.7186,-2.6994,-2.6542,-2.5915,-2.601,-2.6674,-2.688,-2.6921,-2.6921,-2.688,-2.6809,-2.6685,-2.6809,-2.6921,-2.6962,-2.7056,-2.6962,-2.6708,-2.6945,-2.705,-2.6984,-2.7417,-2.7528,-2.7973,-2.8244,-2.8306,-2.8433,-2.887,-2.9168,-2.907,-2.8541,-2.8419,-2.9128,-2.918,-2.9268,-2.9395,-2.9169,-2.8715,-2.8188,-2.7945,-2.7699,-2.7462,-2.7352,-2.7554,-2.7718,-2.7134,-2.6686,-2.6486,-2.6319,-2.6322,-2.6356,-2.6481,-2.6589,-2.6135,-2.5461,-2.4879,-2.3616,-2.1928,-2.0761,-1.9881,-1.9461,-1.905,-1.8665,-1.8331,-1.8128,-1.8059,-1.8,-1.8017,-1.8134,-1.8186,-1.8348,-2.9003,-2.8096,-2.7326,-2.6411,-2.5588,-2.5047,-2.4944,-2.4658,-2.47,-2.4625,-2.4497,-2.4507,-2.4507,-2.4507,-2.4507,-2.4507,-2.4507,-2.4507,-2.4507,-2.4507,-2.4507,-2.4507,-2.4507,-2.454,-2.4583,-2.4583,-2.4507,-2.4593,-2.4583,-2.454,-2.454,-2.4518,-2.4528,-2.4714,-2.5186,-2.5619,-2.6271,-2.6883,-2.7324,-2.7579,-2.7586,-2.7605,-2.7413,-2.7249,-2.6948,-2.6754,-2.6276,-2.5695,-2.5496,-2.6321,-2.6445,-2.6528,-2.6487,-2.6456,-2.6332,-2.6135,-2.6332,-2.6569,-2.6569,-2.688,-2.6937,-2.6654,-2.6874,-2.7142,-2.7145,-2.7315,-2.7679,-2.8132,-2.8149,-2.8239,-2.8422,-2.8598,-2.8508,-2.8383,-2.772,-2.7688,-2.8231,-2.85,-2.8479,-2.8503,-2.8213,-2.772,-2.7286,-2.6836,-2.657,-2.6739,-2.6609,-2.6639,-2.6681,-2.6317,-2.6078,-2.5999,-2.5894,-2.5827,-2.5854,-2.5916,-2.602,-2.5864,-2.5111,-2.4424,-2.355,-2.2097,-2.0806,-1.9882,-1.9488,-1.905,-1.8665,-1.8374,-1.8094,-1.7991,-1.7991,-1.7991,-1.8008,-1.8042,-1.8194,-2.9735,-2.9168,-2.8984,-2.8341,-2.7482,-2.7259,-2.657,-2.5505,-2.5547,-2.5179,-2.4658,-2.454,-2.4497,-2.4507,-2.4507,-2.4507,-2.4507,-2.4507,-2.4507,-2.4507,-2.4507,-2.4507,-2.4507,-2.4507,-2.4507,-2.4507,-2.4507,-2.4507,-2.4507,-2.4507,-2.4507,-2.4507,-2.4507,-2.4549,-2.4714,-2.5192,-2.5399,-2.5719,-2.616,-2.6637,-2.6936,-2.6998,-2.7061,-2.7076,-2.6637,-2.6216,-2.592,-2.5126,-2.4956,-2.5496,-2.6071,-2.629,-2.6124,-2.629,-2.6207,-2.601,-2.6207,-2.6445,-2.6487,-2.6573,-2.6646,-2.6568,-2.6691,-2.6737,-2.6776,-2.742,-2.7612,-2.7737,-2.7811,-2.7978,-2.8068,-2.7497,-2.7381,-2.734,-2.6833,-2.6323,-2.6553,-2.6868,-2.7282,-2.7464,-2.7243,-2.6866,-2.6721,-2.6267,-2.6062,-2.6034,-2.5951,-2.5823,-2.5677,-2.5521,-2.544,-2.5436,-2.5399,-2.5357,-2.5399,-2.544,-2.5513,-2.5606,-2.4976,-2.4386,-2.3518,-2.2786,-2.1654,-2.0518,-1.9436,-1.9067,-1.8785,-1.8374,-1.8126,-1.8042,-1.7991,-1.7991,-1.7991,-1.7991,-1.8,-3.1136,-3.0467,-3.0264,-2.9441,-2.8383,-2.8077,-2.7383,-2.655,-2.6412,-2.5924,-2.5274,-2.5105,-2.4903,-2.4487,-2.4507,-2.4507,-2.4507,-2.4507,-2.4507,-2.4507,-2.4507,-2.4507,-2.4507,-2.4507,-2.4507,-2.4507,-2.4507,-2.4507,-2.4507,-2.4497,-2.4507,-2.4507,-2.4507,-2.4507,-2.4569,-2.4941,-2.5189,-2.5347,-2.5647,-2.602,-2.6246,-2.6487,-2.6781,-2.7101,-2.676,-2.6487,-2.6238,-2.5614,-2.5271,-2.5316,-2.5667,-2.579,-2.5675,-2.5968,-2.5884,-2.5422,-2.5622,-2.5863,-2.5915,-2.6303,-2.6471,-2.6314,-2.6593,-2.687,-2.6977,-2.7451,-2.7651,-2.7575,-2.7619,-2.7652,-2.7622,-2.6829,-2.6536,-2.6468,-2.6054,-2.5492,-2.5422,-2.5863,-2.6359,-2.654,-2.6256,-2.6007,-2.5811,-2.5615,-2.5394,-2.5269,-2.5194,-2.5122,-2.508,-2.4945,-2.485,-2.4821,-2.4883,-2.4869,-2.49,-2.4995,-2.5057,-2.5117,-2.5013,-2.4535,-2.3998,-2.3357,-2.2729,-2.1392,-2.0061,-1.9376,-1.9016,-1.8579,-1.8194,-1.8042,-1.7991,-1.7991,-1.7991,-1.7991,-1.7991,-3.2581,-3.1821,-3.1404,-3.0419,-2.9145,-2.8736,-2.8128,-2.736,-2.7313,-2.6823,-2.611,-2.5986,-2.5673,-2.5115,-2.5031,-2.4956,-2.4999,-2.4988,-2.5158,-2.4861,-2.5115,-2.5031,-2.4946,-2.5031,-2.4988,-2.4733,-2.4583,-2.4497,-2.454,-2.4615,-2.47,-2.4583,-2.47,-2.4658,-2.4676,-2.4838,-2.5024,-2.5065,-2.5357,-2.5647,-2.5782,-2.6163,-2.6511,-2.6984,-2.7035,-2.6838,-2.65,-2.6078,-2.5756,-2.5339,-2.5377,-2.5327,-2.5307,-2.5475,-2.5433,-2.4636,-2.5031,-2.5316,-2.5497,-2.599,-2.6314,-2.6009,-2.6618,-2.7126,-2.7224,-2.7222,-2.7327,-2.7369,-2.7301,-2.7009,-2.7017,-2.6313,-2.5881,-2.5809,-2.5443,-2.4943,-2.4755,-2.5233,-2.5581,-2.5633,-2.5461,-2.5261,-2.5114,-2.4943,-2.4673,-2.4507,-2.4507,-2.4507,-2.4507,-2.4507,-2.4538,-2.4549,-2.4631,-2.4662,-2.4693,-2.4714,-2.4755,-2.4869,-2.4908,-2.4808,-2.45,-2.4091,-2.3427,-2.197,-2.0731,-2.0062,-1.9299,-1.8751,-1.8408,-1.8168,-1.7991,-1.7991,-1.7991,-1.7991,-1.7991,-3.2995,-3.2853,-3.2753,-3.2033,-3.1038,-3.0852,-2.9801,-2.8427,-2.8275,-2.7718,-2.6946,-2.6853,-2.6823,-2.6577,-2.6659,-2.6648,-2.6412,-2.6329,-2.6121,-2.583,-2.608,-2.6205,-2.5757,-2.608,-2.6121,-2.5505,-2.5062,-2.4743,-2.4786,-2.5137,-2.5263,-2.4861,-2.5263,-2.5306,-2.4839,-2.459,-2.4802,-2.4866,-2.4904,-2.5003,-2.5306,-2.5502,-2.6041,-2.6684,-2.6843,-2.6711,-2.6523,-2.6183,-2.5861,-2.5806,-2.6146,-2.5839,-2.5436,-2.5338,-2.5104,-2.4816,-2.4997,-2.5296,-2.5381,-2.5721,-2.6203,-2.6409,-2.668,-2.692,-2.7061,-2.6921,-2.6843,-2.6718,-2.6489,-2.6163,-2.6135,-2.564,-2.5368,-2.5238,-2.4999,-2.4631,-2.4569,-2.4683,-2.4902,-2.49,-2.4735,-2.4662,-2.4652,-2.4642,-2.4569,-2.4507,-2.4507,-2.4507,-2.4507,-2.4507,-2.4507,-2.4518,-2.4518,-2.4528,-2.4538,-2.4559,-2.459,-2.4745,-2.491,-2.5241,-2.4974,-2.4826,-2.4007,-2.2903,-2.1698,-2.0766,-2.0016,-1.9133,-1.8544,-1.82,-1.8083,-1.7991,-1.7991,-1.7991,-1.7991,-3.3124,-3.3124,-3.3124,-3.2591,-3.1851,-3.1499,-3.0733,-2.964,-2.9293,-2.8673,-2.8051,-2.7799,-2.7516,-2.7221,-2.7098,-2.7098,-2.7139,-2.7098,-2.6853,-2.6648,-2.6853,-2.6935,-2.6524,-2.6976,-2.6812,-2.6453,-2.6038,-2.5547,-2.5306,-2.608,-2.6163,-2.608,-2.6329,-2.6246,-2.5799,-2.5432,-2.5221,-2.5147,-2.4796,-2.4643,-2.4902,-2.5078,-2.5771,-2.654,-2.6695,-2.648,-2.6232,-2.6117,-2.5936,-2.5906,-2.5881,-2.5753,-2.5605,-2.548,-2.5361,-2.5008,-2.5286,-2.5553,-2.5627,-2.5994,-2.6403,-2.6536,-2.6593,-2.6687,-2.676,-2.6553,-2.6273,-2.6148,-2.5834,-2.5544,-2.5533,-2.5096,-2.4869,-2.4797,-2.4621,-2.4528,-2.4507,-2.4507,-2.4507,-2.4507,-2.4549,-2.4569,-2.4549,-2.4528,-2.4518,-2.4507,-2.4507,-2.4507,-2.4507,-2.4507,-2.4507,-2.4507,-2.4507,-2.4507,-2.4507,-2.4507,-2.4507,-2.4631,-2.5003,-2.5368,-2.565,-2.5574,-2.5195,-2.4392,-2.317,-2.1945,-2.0546,-1.9616,-1.8944,-1.8267,-1.81,-1.7991,-1.7991,-1.7991,-1.7991,-3.3124,-3.3124,-3.3124,-3.2742,-3.2177,-3.1625,-3.1097,-3.057,-2.9966,-2.9378,-2.8831,-2.8712,-2.8383,-2.7851,-2.7718,-2.7718,-2.7637,-2.7718,-2.7637,-2.7476,-2.7689,-2.7637,-2.7435,-2.7557,-2.7637,-2.7435,-2.7637,-2.7058,-2.64,-2.6976,-2.7232,-2.7069,-2.7151,-2.7232,-2.6905,-2.6318,-2.611,-2.583,-2.5463,-2.4988,-2.4933,-2.5279,-2.5809,-2.6744,-2.6731,-2.6504,-2.6024,-2.5949,-2.5939,-2.5809,-2.5682,-2.5502,-2.572,-2.5879,-2.5668,-2.5388,-2.5658,-2.5834,-2.5982,-2.6127,-2.6318,-2.637,-2.6428,-2.647,-2.6366,-2.6041,-2.5699,-2.5564,-2.5326,-2.5044,-2.4993,-2.4724,-2.4559,-2.4528,-2.4538,-2.4507,-2.4507,-2.4507,-2.4507,-2.4507,-2.4507,-2.4507,-2.4507,-2.4507,-2.4507,-2.4507,-2.4507,-2.4507,-2.4507,-2.4507,-2.4507,-2.4507,-2.4507,-2.4507,-2.4507,-2.4507,-2.4507,-2.4549,-2.515,-2.5678,-2.6113,-2.6481,-2.5918,-2.5358,-2.4706,-2.345,-2.1785,-2.0066,-1.915,-1.8481,-1.8181,-1.7991,-1.7991,-1.7991,-1.7991,-3.3124,-3.3124,-3.3124,-3.2742,-3.2202,-3.1662,-3.111,-3.0608,-3.008,-2.9765,-2.9534,-2.9585,-2.9495,-2.9326,-2.9287,-2.9365,-2.9365,-2.9209,-2.8831,-2.8462,-2.8882,-2.8831,-2.8542,-2.9157,-2.8752,-2.8502,-2.9,-2.8422,-2.7637,-2.7971,-2.7919,-2.7557,-2.7971,-2.7999,-2.7476,-2.7139,-2.6935,-2.6894,-2.6782,-2.637,-2.5895,-2.615,-2.6066,-2.6128,-2.6451,-2.6711,-2.6012,-2.5931,-2.5902,-2.5951,-2.5882,-2.5616,-2.5451,-2.5689,-2.5595,-2.5492,-2.5606,-2.593,-2.5896,-2.5989,-2.6051,-2.6096,-2.5989,-2.6003,-2.5792,-2.5544,-2.5106,-2.4662,-2.4611,-2.4652,-2.4673,-2.4559,-2.4507,-2.4507,-2.4507,-2.4507,-2.4507,-2.4507,-2.4507,-2.4507,-2.4507,-2.4507,-2.4507,-2.4507,-2.4507,-2.4507,-2.4507,-2.4507,-2.4507,-2.4507,-2.4507,-2.4507,-2.4507,-2.4507,-2.4507,-2.4507,-2.4507,-2.4507,-2.513,-2.5813,-2.621,-2.6501,-2.6568,-2.6028,-2.5462,-2.4307,-2.2269,-2.0622,-1.9368,-1.8702,-1.8365,-1.8152,-1.7991,-1.7991,-1.7991,-3.3124,-3.3124,-3.3124,-3.293,-3.2641,-3.2089,-3.1549,-3.1022,-3.0495,-3.008,-2.9829,-2.9779,-2.9779,-2.9779,-2.9779,-2.9779,-2.9779,-2.9779,-2.9611,-2.9287,-2.9573,-2.9573,-2.9404,-2.9585,-2.9468,-2.9417,-2.9507,-2.9456,-2.8882,-2.8882,-2.8961,-2.8712,-2.8949,-2.9131,-2.8383,-2.8091,-2.7971,-2.7758,-2.7435,-2.7232,-2.7196,-2.7058,-2.6903,-2.7009,-2.715,-2.6688,-2.612,-2.5861,-2.5978,-2.6127,-2.6223,-2.6308,-2.634,-2.6466,-2.6377,-2.5678,-2.5761,-2.5875,-2.5885,-2.5875,-2.5899,-2.5792,-2.5647,-2.5399,-2.5171,-2.4974,-2.4766,-2.4538,-2.4507,-2.4507,-2.4507,-2.4507,-2.4507,-2.4507,-2.4507,-2.4507,-2.4507,-2.4507,-2.4507,-2.4507,-2.4507,-2.4507,-2.4507,-2.4507,-2.4507,-2.4507,-2.4507,-2.4507,-2.4507,-2.4507,-2.4507,-2.4507,-2.4507,-2.4507,-2.4507,-2.4507,-2.4507,-2.4569,-2.489,-2.5554,-2.5947,-2.6206,-2.6372,-2.632,-2.5756,-2.4351,-2.2597,-2.1457,-2.0454,-1.9488,-1.8563,-1.8402,-1.8233,-1.7991,-1.7991,-3.3124,-3.3124,-3.3124,-3.3124,-3.3061,-3.2453,-3.1888,-3.1348,-3.0821,-3.0294,-2.9905,-2.9779,-2.9779,-2.9779,-2.9779,-2.9779,-2.9779,-2.9779,-2.9779,-2.9779,-2.9779,-2.9779,-2.9702,-2.9792,-2.9792,-2.9779,-2.974,-2.9663,-2.9702,-2.974,-2.9663,-2.9779,-2.9611,-2.9663,-2.9585,-2.917,-2.8803,-2.8752,-2.7959,-2.7879,-2.8143,-2.777,-2.7753,-2.7794,-2.7649,-2.7058,-2.6265,-2.6155,-2.6398,-2.6563,-2.6663,-2.6742,-2.6962,-2.6941,-2.6639,-2.603,-2.5853,-2.5675,-2.5605,-2.5544,-2.5689,-2.5585,-2.5337,-2.49,-2.4652,-2.4507,-2.4507,-2.4507,-2.4507,-2.4507,-2.4507,-2.4507,-2.4507,-2.4507,-2.4507,-2.4507,-2.4507,-2.4507,-2.4507,-2.4507,-2.4507,-2.4507,-2.4507,-2.4507,-2.4507,-2.4507,-2.4507,-2.4507,-2.4507,-2.4507,-2.4507,-2.4507,-2.4507,-2.4507,-2.4507,-2.4507,-2.4507,-2.459,-2.4921,-2.522,-2.5647,-2.6009,-2.6268,-2.6113,-2.5865,-2.4791,-2.3285,-2.2421,-2.1505,-2.0151,-1.9024,-1.8714,-1.8482,-1.8193,-1.7991,-3.3124,-3.3124,-3.3124,-3.3124,-3.3074,-3.2466,-3.1913,-3.1361,-3.0859,-3.0331,-2.9829,-2.9779,-2.9779,-2.9779,-2.9779,-2.9779,-2.9779,-2.9779,-2.9779,-2.9779,-2.9779,-2.9779,-2.9779,-2.9779,-2.9779,-2.9779,-2.9779,-2.9779,-2.9779,-2.9779,-2.9779,-2.9779,-2.9779,-2.9779,-2.974,-2.9585,-2.9495,-2.9365,-2.8752,-2.841,-2.8581,-2.8383,-2.8171,-2.7718,-2.7971,-2.7959,-2.7098,-2.7017,-2.7051,-2.7177,-2.7188,-2.7188,-2.7382,-2.7341,-2.6936,-2.6306,-2.6041,-2.5733,-2.5314,-2.5197,-2.5199,-2.5106,-2.489,-2.4621,-2.4518,-2.4507,-2.4507,-2.4507,-2.4507,-2.4507,-2.4507,-2.4507,-2.4507,-2.4507,-2.4507,-2.4507,-2.4507,-2.4507,-2.4507,-2.4507,-2.4507,-2.4507,-2.4507,-2.4507,-2.4507,-2.4507,-2.4507,-2.4507,-2.4507,-2.4507,-2.4507,-2.4507,-2.4507,-2.4507,-2.4507,-2.4507,-2.4507,-2.4569,-2.4786,-2.5013,-2.5272,-2.5668,-2.5989,-2.5947,-2.5658,-2.4838,-2.4051,-2.3092,-2.1917,-2.0453,-1.952,-1.9301,-1.8754,-1.8313,-1.8112,-3.3124,-3.3124,-3.3124,-3.3124,-3.3056,-3.2842,-3.2227,-3.1449,-3.1173,-3.0583,-2.9779,-2.9779,-2.9779,-2.9779,-2.9779,-2.9779,-2.9779,-2.9779,-2.9779,-2.9779,-2.9779,-2.9779,-2.9779,-2.9779,-2.9779,-2.9779,-2.9779,-2.9779,-2.9779,-2.9779,-2.9779,-2.9779,-2.9779,-2.9779,-2.9779,-2.9779,-2.9779,-2.974,-2.9495,-2.9287,-2.9287,-2.9287,-2.9118,-2.8922,-2.8961,-2.8843,-2.8131,-2.7971,-2.7971,-2.7971,-2.7971,-2.7971,-2.7971,-2.7971,-2.7476,-2.6771,-2.6607,-2.6163,-2.5348,-2.5039,-2.4755,-2.4745,-2.4611,-2.4507,-2.4507,-2.4507,-2.4507,-2.4507,-2.4507,-2.4507,-2.4507,-2.4507,-2.4507,-2.4507,-2.4507,-2.4507,-2.4507,-2.4507,-2.4507,-2.4507,-2.4507,-2.4507,-2.4507,-2.4507,-2.4507,-2.4507,-2.4507,-2.4507,-2.4507,-2.4507,-2.4507,-2.4507,-2.4507,-2.4507,-2.4507,-2.4507,-2.4507,-2.459,-2.4673,-2.4848,-2.5034,-2.521,-2.5502,-2.5523,-2.5461,-2.4786,-2.4145,-2.3474,-2.2392,-2.1036,-2.0322,-1.9923,-1.9301,-1.8514,-1.8233,-3.3124,-3.3124,-3.3124,-3.3124,-3.3124,-3.3124,-3.2571,-3.1712,-3.1449,-3.0783,-2.9804,-2.9779,-2.9779,-2.9779,-2.9779,-2.9779,-2.9779,-2.9779,-2.9779,-2.9779,-2.9779,-2.9779,-2.9779,-2.9779,-2.9779,-2.9779,-2.9779,-2.9779,-2.9779,-2.9779,-2.9779,-2.9779,-2.9779,-2.9779,-2.9779,-2.9779,-2.9779,-2.9779,-2.9779,-2.9779,-2.9779,-2.974,-2.974,-2.9663,-2.9702,-2.9495,-2.904,-2.8882,-2.8882,-2.887,-2.8882,-2.8882,-2.8882,-2.8764,-2.8383,-2.7839,-2.7424,-2.7098,-2.6205,-2.5189,-2.4583,-2.4549,-2.4538,-2.4507,-2.4507,-2.4507,-2.4507,-2.4507,-2.4507,-2.4507,-2.4497,-2.4507,-2.4507,-2.4507,-2.4507,-2.4507,-2.4507,-2.4507,-2.4507,-2.4507,-2.4507,-2.4507,-2.4507,-2.4507,-2.4507,-2.4507,-2.4507,-2.4507,-2.4507,-2.4507,-2.4507,-2.4507,-2.4507,-2.4507,-2.4507,-2.4507,-2.4507,-2.4518,-2.46,-2.4673,-2.4828,-2.4972,-2.5137,-2.5313,-2.5148,-2.4757,-2.429,-2.3762,-2.2828,-2.1745,-2.1095,-2.0517,-1.946,-1.8674,-1.8362,-3.3167,-3.3124,-3.3111,-3.3124,-3.3124,-3.3124,-3.2717,-3.2064,-3.1587,-3.0859,-3.0018,-2.9905,-2.9867,-2.9854,-2.9854,-2.9779,-2.9779,-2.9779,-2.9779,-2.9779,-2.9779,-2.9779,-2.9779,-2.9779,-2.9779,-2.9779,-2.9779,-2.9779,-2.9779,-2.9779,-2.9779,-2.9779,-2.9779,-2.9779,-2.9779,-2.9779,-2.9779,-2.9779,-2.9779,-2.9779,-2.9779,-2.9779,-2.9779,-2.9779,-2.9779,-2.9663,-2.9573,-2.9495,-2.9495,-2.9495,-2.9534,-2.9534,-2.9534,-2.9573,-2.9209,-2.8593,-2.8462,-2.8011,-2.711,-2.5474,-2.4828,-2.454,-2.4507,-2.4583,-2.454,-2.454,-2.4625,-2.4743,-2.4583,-2.4583,-2.454,-2.4507,-2.455,-2.4668,-2.47,-2.4507,-2.4507,-2.4507,-2.4507,-2.4507,-2.4507,-2.4507,-2.4507,-2.4507,-2.4507,-2.4507,-2.4507,-2.4507,-2.4507,-2.4507,-2.4507,-2.4507,-2.4507,-2.4507,-2.4507,-2.4507,-2.4507,-2.4507,-2.4528,-2.46,-2.4611,-2.4673,-2.4869,-2.5117,-2.4931,-2.4549,-2.4374,-2.4146,-2.3197,-2.2329,-2.1629,-2.0869,-1.9767,-1.8953,-1.8714,-3.3949,-3.3907,-3.3326,-3.3124,-3.3124,-3.3124,-3.2742,-3.2177,-3.1637,-3.1185,-3.0821,-3.052,-3.0331,-3.0256,-2.9967,-2.9817,-2.9779,-2.9779,-2.9779,-2.9779,-2.9779,-2.9779,-2.9779,-2.9779,-2.9779,-2.9779,-2.9779,-2.9779,-2.9779,-2.9779,-2.9779,-2.9779,-2.9779,-2.9779,-2.9779,-2.9779,-2.9779,-2.9779,-2.9779,-2.9779,-2.9779,-2.9779,-2.9779,-2.9779,-2.9779,-2.9779,-2.9779,-2.9779,-2.9779,-2.9779,-2.9779,-2.9779,-2.9779,-2.9779,-2.9663,-2.9339,-2.9326,-2.8961,-2.8051,-2.6812,-2.5673,-2.5031,-2.4668,-2.4946,-2.5221,-2.4743,-2.4861,-2.5062,-2.4861,-2.4946,-2.5221,-2.4743,-2.47,-2.5147,-2.5105,-2.4668,-2.4507,-2.4507,-2.4507,-2.4507,-2.4507,-2.4507,-2.4507,-2.4507,-2.4507,-2.4507,-2.4507,-2.4507,-2.4507,-2.4507,-2.4507,-2.4507,-2.4507,-2.4507,-2.4507,-2.4507,-2.4507,-2.4507,-2.4507,-2.4528,-2.4518,-2.4507,-2.458,-2.4807,-2.4621,-2.4414,-2.4281,-2.4064,-2.365,-2.2981,-2.2221,-2.1481,-2.0556,-1.9831,-1.9371,-3.4814,-3.4731,-3.4204,-3.394,-3.3882,-3.3356,-3.2742,-3.2215,-3.1825,-3.1587,-3.1336,-3.1009,-3.0758,-3.0545,-3.0269,-2.9892,-2.9817,-2.9779,-2.9779,-2.9779,-2.9779,-2.9779,-2.9779,-2.9779,-2.9779,-2.9779,-2.9779,-2.9779,-2.9779,-2.9779,-2.9779,-2.9779,-2.9792,-2.9779,-2.9779,-2.9779,-2.9779,-2.9779,-2.9779,-2.9779,-2.9779,-2.9779,-2.9779,-2.9779,-2.9779,-2.9779,-2.9779,-2.9779,-2.9779,-2.9779,-2.9779,-2.9779,-2.9779,-2.9779,-2.9779,-2.9779,-2.9702,-2.9326,-2.845,-2.7999,-2.6823,-2.5726,-2.5443,-2.5684,-2.608,-2.5841,-2.5883,-2.5841,-2.539,-2.5421,-2.5621,-2.5062,-2.5221,-2.5663,-2.5547,-2.5073,-2.4946,-2.4988,-2.4583,-2.4583,-2.4507,-2.4507,-2.4507,-2.4507,-2.4507,-2.4507,-2.4507,-2.4507,-2.4507,-2.4507,-2.4507,-2.4507,-2.4507,-2.4507,-2.4507,-2.4507,-2.4507,-2.4507,-2.4507,-2.4507,-2.4507,-2.4507,-2.4507,-2.4507,-2.4476,-2.4404,-2.4229,-2.395,-2.3712,-2.334,-2.2736,-2.1989,-2.1281,-2.081,-2.0375,-3.5655,-3.5615,-3.5628,-3.5548,-3.5305,-3.3953,-3.2954,-3.2349,-3.2323,-3.2047,-3.1486,-3.1499,-3.1173,-3.0733,-3.062,-3.0269,-2.9867,-2.9792,-2.9779,-2.9779,-2.9779,-2.9779,-2.9779,-2.9779,-2.9779,-2.9779,-2.9779,-2.9779,-2.9792,-2.9779,-2.9779,-2.9854,-2.9842,-2.9804,-2.9779,-2.9779,-2.9779,-2.9779,-2.9779,-2.9779,-2.9779,-2.9779,-2.9779,-2.9779,-2.9779,-2.9779,-2.9779,-2.9779,-2.9779,-2.9779,-2.9779,-2.9779,-2.9779,-2.9779,-2.9779,-2.9779,-2.9779,-2.9326,-2.887,-2.8581,-2.8211,-2.7313,-2.7191,-2.7232,-2.7028,-2.6864,-2.6823,-2.6741,-2.6412,-2.6152,-2.5986,-2.5944,-2.5955,-2.6038,-2.6038,-2.583,-2.5715,-2.5421,-2.4903,-2.4658,-2.4583,-2.454,-2.4507,-2.4507,-2.4507,-2.4507,-2.4507,-2.4507,-2.4507,-2.4507,-2.4507,-2.4507,-2.4507,-2.4507,-2.4507,-2.4507,-2.4507,-2.4507,-2.4507,-2.4507,-2.4507,-2.4507,-2.4507,-2.4507,-2.4507,-2.4414,-2.4333,-2.4157,-2.395,-2.3526,-2.3176,-2.2777,-2.214,-2.209,-2.1667,-3.6531,-3.6478,-3.5869,-3.5628,-3.5534,-3.5102,-3.4447,-3.3817,-3.3775,-3.3367,-3.2566,-3.2152,-3.1827,-3.1173,-3.0783,-3.0346,-3.0019,-2.9779,-2.9779,-2.9779,-2.9779,-2.9779,-2.9779,-2.9779,-2.9779,-2.9779,-2.9779,-2.9817,-2.9829,-2.9829,-3.0118,-3.0306,-3.0093,-2.9942,-2.988,-2.9804,-2.9854,-2.9842,-2.9867,-2.9779,-2.9779,-2.9779,-2.9779,-2.9779,-2.9779,-2.9779,-2.9779,-2.9779,-2.9779,-2.9779,-2.9779,-2.9779,-2.9779,-2.9779,-2.9779,-2.9779,-2.9779,-2.9663,-2.9456,-2.9417,-2.9209,-2.887,-2.8831,-2.8593,-2.8183,-2.773,-2.7597,-2.7597,-2.7313,-2.6976,-2.6964,-2.6976,-2.7017,-2.7098,-2.6976,-2.673,-2.6524,-2.6038,-2.5505,-2.5094,-2.4978,-2.454,-2.4507,-2.4507,-2.4507,-2.4507,-2.4507,-2.4507,-2.4507,-2.4507,-2.4507,-2.4507,-2.4507,-2.4507,-2.4507,-2.4507,-2.4507,-2.4507,-2.4507,-2.4507,-2.4507,-2.4507,-2.4507,-2.4507,-2.4507,-2.4507,-2.4476,-2.4301,-2.4178,-2.4105,-2.3825,-2.3423,-2.3104,-2.2992,-2.2706,-3.7414,-3.7337,-3.6869,-3.6635,-3.6635,-3.6621,-3.6162,-3.5426,-3.5019,-3.4413,-3.3645,-3.362,-3.306,-3.2316,-3.2029,-3.1578,-3.0714,-3.042,-3.0165,-2.9779,-2.9856,-2.9779,-2.9779,-2.9856,-2.9779,-2.9792,-2.9881,-2.993,-3.0171,-3.0434,-3.0683,-3.0846,-3.052,-3.0457,-3.047,-3.0532,-3.0534,-3.0319,-3.0105,-2.9867,-2.9804,-2.9804,-2.9792,-2.9779,-2.9779,-2.9779,-2.9779,-2.9779,-2.9779,-2.9779,-2.9779,-2.9779,-2.9779,-2.9779,-2.9779,-2.9779,-2.9779,-2.9779,-2.9702,-2.9702,-2.9779,-2.9779,-2.9779,-2.9495,-2.9131,-2.8712,-2.8752,-2.8752,-2.8171,-2.7758,-2.7919,-2.8079,-2.8211,-2.8383,-2.8051,-2.7678,-2.7273,-2.6782,-2.6287,-2.5746,-2.5221,-2.47,-2.4507,-2.4507,-2.4507,-2.4507,-2.4507,-2.4507,-2.4507,-2.4507,-2.4507,-2.4507,-2.4507,-2.4507,-2.4507,-2.4507,-2.4507,-2.4507,-2.4507,-2.4507,-2.4507,-2.4507,-2.4507,-2.4507,-2.4507,-2.4507,-2.4507,-2.4487,-2.4383,-2.4301,-2.4281,-2.399,-2.3815,-2.3804,-2.3411,-3.8202,-3.8165,-3.8202,-3.8052,-3.8202,-3.8075,-3.7644,-3.6975,-3.6201,-3.5318,-3.4772,-3.521,-3.4674,-3.3661,-3.3514,-3.2876,-3.2038,-3.1387,-3.0888,-3.0011,-3.0292,-3.033,-3.0292,-3.0049,-3.0496,-3.0215,-3.0317,-3.1023,-3.1117,-3.1358,-3.1523,-3.1546,-3.1286,-3.116,-3.111,-3.1122,-3.1113,-3.0972,-3.052,-3.0143,-2.998,-2.9892,-2.9842,-2.9792,-2.9779,-2.9779,-2.9779,-2.9779,-2.9779,-2.9779,-2.9779,-2.9779,-2.9779,-2.9779,-2.9779,-2.9779,-2.9779,-2.9779,-2.9779,-2.9779,-2.9779,-2.9779,-2.9779,-2.9702,-2.9495,-2.9378,-2.9417,-2.9378,-2.8831,-2.8633,-2.8712,-2.8752,-2.8882,-2.8922,-2.8752,-2.8593,-2.8383,-2.7689,-2.6823,-2.6235,-2.5463,-2.4946,-2.4507,-2.4507,-2.4507,-2.4507,-2.4507,-2.4507,-2.4507,-2.4507,-2.4507,-2.4507,-2.4507,-2.4507,-2.4507,-2.4507,-2.4507,-2.4507,-2.4507,-2.4507,-2.4507,-2.4507,-2.4507,-2.4507,-2.4507,-2.4507,-2.4497,-2.4497,-2.4487,-2.4456,-2.4425,-2.4466,-2.4435,-2.4332,-2.4114,-3.8202,-3.8202,-3.8202,-3.8202,-3.8202,-3.8202,-3.8089,-3.7886,-3.7668,-3.6674,-3.5561,-3.5507,-3.529,-3.4696,-3.4662,-3.4025,-3.2968,-3.2519,-3.2112,-3.1599,-3.1368,-3.1299,-3.1482,-3.1376,-3.1684,-3.2137,-3.239,-3.2586,-3.3067,-3.2908,-3.2628,-3.2832,-3.2352,-3.1835,-3.1713,-3.1713,-3.181,-3.1603,-3.1461,-3.0876,-3.052,-3.0369,-3.0294,-2.9993,-2.9817,-2.9817,-2.9804,-2.9779,-2.9779,-2.9779,-2.9779,-2.9779,-2.9779,-2.9779,-2.9779,-2.9779,-2.9779,-2.9779,-2.9779,-2.9779,-2.9779,-2.9779,-2.9779,-2.9779,-2.9779,-2.9779,-2.974,-2.9702,-2.9624,-2.9507,-2.9417,-2.9417,-2.9417,-2.9417,-2.9417,-2.9417,-2.9378,-2.8474,-2.7435,-2.6648,-2.583,-2.5263,-2.4786,-2.4583,-2.4507,-2.4507,-2.4507,-2.4507,-2.4507,-2.4507,-2.4507,-2.4507,-2.4507,-2.4507,-2.4507,-2.4507,-2.4507,-2.4507,-2.4507,-2.4507,-2.4507,-2.4507,-2.4507,-2.4507,-2.4507,-2.4507,-2.4507,-2.4507,-2.4497,-2.4507,-2.4507,-2.4507,-2.4507,-2.4425,-2.4373,-3.8202,-3.8202,-3.8202,-3.8202,-3.8202,-3.8202,-3.8202,-3.8202,-3.8202,-3.7668,-3.6869,-3.6724,-3.6373,-3.5842,-3.583,-3.5159,-3.4104,-3.3647,-3.2823,-3.2296,-3.2355,-3.2245,-3.2381,-3.2627,-3.285,-3.3315,-3.3699,-3.4111,-3.473,-3.4592,-3.4206,-3.4285,-3.3456,-3.2987,-3.2849,-3.2944,-3.2741,-3.2235,-3.2479,-3.2174,-3.1435,-3.11,-3.0708,-3.0319,-3.0143,-3.0068,-2.9817,-2.9779,-2.9779,-2.9779,-2.9779,-2.9779,-2.9779,-2.9779,-2.9779,-2.9779,-2.9779,-2.9779,-2.9779,-2.9779,-2.9779,-2.9779,-2.9779,-2.9779,-2.9779,-2.9779,-2.9779,-2.974,-2.974,-2.9624,-2.9624,-2.9624,-2.9624,-2.9624,-2.9624,-2.9624,-2.9378,-2.8803,-2.8131,-2.7678,-2.6812,-2.6038,-2.5589,-2.5263,-2.5105,-2.4497,-2.4497,-2.454,-2.454,-2.4507,-2.4507,-2.4507,-2.4507,-2.4507,-2.4507,-2.4507,-2.4507,-2.4507,-2.4507,-2.4507,-2.4507,-2.4507,-2.4507,-2.4507,-2.4507,-2.4507,-2.4507,-2.4507,-2.4507,-2.4507,-2.4507,-2.4507,-2.4507,-2.4507,-2.4456,-3.8202,-3.8202,-3.8202,-3.8202,-3.8202,-3.8202,-3.8202,-3.8202,-3.8202,-3.8202,-3.8089,-3.8037,-3.7682,-3.7382,-3.7218,-3.6402,-3.5727,-3.5176,-3.4008,-3.3245,-3.3013,-3.3512,-3.3697,-3.3638,-3.4173,-3.4709,-3.5169,-3.5339,-3.5601,-3.5537,-3.5571,-3.5708,-3.5507,-3.521,-3.4978,-3.4925,-3.4683,-3.3957,-3.3809,-3.3677,-3.2864,-3.1845,-3.1289,-3.0909,-3.067,-3.0444,-3.0143,-2.993,-2.993,-2.9854,-2.9854,-2.9779,-2.9779,-2.9779,-2.9779,-2.9779,-2.9779,-2.9779,-2.9779,-2.9779,-2.9779,-2.9779,-2.9779,-2.9779,-2.9779,-2.9779,-2.9779,-2.9779,-2.9779,-2.9779,-2.9779,-2.9779,-2.9779,-2.9779,-2.9779,-2.9779,-2.9456,-2.9131,-2.8831,-2.8502,-2.7758,-2.6853,-2.64,-2.6027,-2.5579,-2.4935,-2.4615,-2.4572,-2.454,-2.454,-2.4507,-2.4507,-2.4507,-2.4507,-2.4507,-2.4507,-2.4507,-2.4507,-2.4507,-2.4507,-2.4507,-2.4507,-2.4507,-2.4507,-2.4507,-2.4507,-2.4507,-2.4507,-2.4507,-2.4507,-2.4507,-2.4507,-2.4507,-2.4507,-2.4507,-3.8202,-3.8202,-3.8202,-3.8202,-3.8202,-3.8202,-3.8202,-3.8202,-3.8202,-3.8202,-3.8202,-3.8202,-3.8037,-3.7924,-3.8003,-3.7451,-3.6691,-3.6359,-3.6209,-3.5633,-3.4939,-3.5296,-3.5489,-3.5362,-3.6026,-3.649,-3.6907,-3.741,-3.6878,-3.669,-3.6649,-3.6649,-3.5909,-3.5628,-3.5548,-3.5574,-3.5574,-3.5074,-3.5033,-3.5008,-3.4441,-3.3288,-3.1912,-3.1461,-3.1235,-3.1173,-3.1009,-3.067,-3.0532,-3.0344,-3.003,-2.9842,-2.9779,-2.9779,-2.9779,-2.9779,-2.9779,-2.9779,-2.9779,-2.9779,-2.9779,-2.9779,-2.9779,-2.9779,-2.9779,-2.9779,-2.9779,-2.9779,-2.9779,-2.9779,-2.9779,-2.9779,-2.9779,-2.9779,-2.9779,-2.9779,-2.9624,-2.9456,-2.9287,-2.8922,-2.8422,-2.7678,-2.7058,-2.673,-2.6483,-2.5872,-2.5379,-2.5263,-2.4775,-2.4658,-2.454,-2.4507,-2.4507,-2.4507,-2.4507,-2.4507,-2.4507,-2.4507,-2.4507,-2.4507,-2.4507,-2.4507,-2.4507,-2.4507,-2.4507,-2.4507,-2.4507,-2.4507,-2.4507,-2.4507,-2.4507,-2.4507,-2.4507,-2.4507,-2.4507]},{"header":{"parameterUnit":"m.s-1","parameterCategory":1,"la1":31.0,"la2":29.5877,"lo1":-88.7671,"lo2":-86.6584,"dy":0.0162,"dx":0.0185,"nx":115,"ny":88,"refTime":"2024-06-13T18:00:00:Z","depth":0,"parameterNumber":3,"parameterNumberName":"V-component_of_WINDS"},"data":[0.0,0.0,0.0,0.0,0.0,0.0,0.0,0.0,0.0,0.0,0.0,0.0,0.0,0.0,0.0,0.0,0.0,0.0,0.0,0.0,0.0,0.0,0.0,0.0,0.0,0.0,0.0,0.0,0.0,0.0,0.0,0.0,0.0,0.0,0.0,0.0,0.0,0.0,0.0,0.0,0.0,0.0,0.0,0.0,0.0,0.0,0.0,0.0,0.0,0.0,0.0,0.0,0.0,0.0,0.0,0.0,0.0,0.0,0.0,0.0,0.0,0.0,0.0,0.0,0.0,0.0,0.0,0.0,0.0,0.0,0.0,0.0,0.0,0.0,0.0,0.0,0.0,0.0,0.0,0.0,0.0,0.0,0.0,0.0,0.0,0.0,0.0,0.0,0.0,0.0,0.0,0.0,0.0,0.0,0.0,0.0,0.0,0.0,0.0,0.0,0.0,0.0,0.0,0.0,0.0,0.0,0.0,0.0,0.0,0.0,0.0,0.0,0.0,0.0,0.0,0.0,0.0,0.0,0.0,0.0,0.0,0.0,0.0,0.0,0.0,0.0,0.0,0.0,0.0,0.0,0.0,0.0,0.0,0.0,0.0,0.0,0.0,0.0,0.0,0.0,0.0,0.0,0.0,0.0,0.0,0.0,0.0,0.0,0.0,0.0,0.0,0.0,0.0,0.0,0.0,0.0,0.0,0.0,0.0,0.0,0.0,0.0,0.0,0.0,0.0,0.0,0.0,0.0,0.0,0.0,0.0,0.0,0.0,0.0,0.0,0.0,0.0,0.0,0.0,0.0,0.0,0.0,0.0,0.0,0.0,0.0,0.0,0.0,0.0,0.0,0.0,0.0,0.0,0.0,0.0,0.0,0.0,0.0,0.0,0.0,0.0,0.0,0.0,0.0,0.0,0.0,0.0,0.0,0.0,0.0,0.0,0.0,0.0,0.0,0.0,0.0,0.0,0.0,0.0,0.0,0.0,0.0,0.0,0.0,0.0,0.0,0.0,0.0,0.0,0.0,0.0,0.0,0.0,0.0,0.0,0.0,0.0,0.0,0.0,0.0,0.0,0.0,0.0,0.0,0.0,0.0,0.0,0.0,0.0,0.0,0.0,0.0,0.0,0.0,0.0,0.0,0.0,0.0,0.0,0.0,0.0,0.0,0.0,0.0,0.0,0.0,0.0,0.0,0.0,0.0,0.0,0.0,0.0,0.0,0.0,0.0,0.0,0.0,0.0,0.0,0.0,0.0,0.0,0.0,0.0,0.0,0.0,0.0,0.0,0.0,0.0,0.0,0.0,0.0,0.0,0.0,0.0,0.0,0.0,0.0,0.0,0.0,0.0,0.0,0.0,0.0,0.0,0.0,0.0,0.0,0.0,0.0,0.0,0.0,0.0,0.0,0.0,0.0,0.0,0.0,0.0,0.0,0.0,0.0,0.0,0.0,0.0,0.0,0.0,0.0,0.0,0.0,0.0,0.0,0.0,0.0,0.0,0.0,0.0,0.0,0.0,0.0,0.0,0.0,0.0,0.0,0.0,0.0,0.0,0.0,0.0,0.0,0.0,0.0,0.0,0.0,0.0,0.0,0.0,0.0,0.0,0.0,0.0,0.0,0.0,0.0,0.0,0.0,0.0,0.0,0.0,0.0,0.0,0.0,0.0,0.0,0.0,0.0,0.0,0.0,0.0,0.0,0.0,0.0,0.0,0.0,0.0,0.0,0.0,0.0,0.0,0.0,0.0,0.0,0.0,0.0,0.0,0.0,0.0,0.0,0.0,0.0,0.0,0.0,0.0,0.0,0.0,0.0,0.0,0.0,0.0,0.0,0.0,0.0,0.0,0.0,0.0,0.0,0.0,0.0,0.0,0.0,0.0,0.0,0.0,0.0,0.0,0.0,0.0,0.0,0.0,0.0,0.0,0.0,0.0,0.0,0.0,0.0,0.0,0.0,0.0,0.0,0.0,0.0,0.0,0.0,0.0,0.0,0.0,0.0,0.0,0.0,0.0,0.0,0.0,0.0,0.0,0.0,0.0,0.0,0.0,0.0,0.0,0.0,0.0,0.0,0.0,0.0,0.0,0.0,0.0,0.0,0.0,0.0,0.0,0.0,0.0,0.0,0.0,0.0,0.0,0.0,0.0,0.0,0.0,0.0,0.0,0.0,0.0,0.0,0.0,0.0,0.0,0.0,0.0,0.0,0.0,0.0,0.0,0.0,0.0,0.0,0.0,0.0,0.0,0.0,0.0,0.0,0.0,0.0,0.0,0.0,0.0,0.0,0.0,0.0,0.0,0.0,0.0,0.0,0.0,0.0,0.0,0.0,0.0,0.0,0.0,0.0,0.0,0.0,0.0,0.0,0.0,0.0,0.0,0.0,0.0,0.0,0.0,0.0,0.0,0.0,0.0,0.0,0.0,0.0,0.0,0.0,0.0,0.0,0.0,0.0,0.0,0.0,0.0,0.0,0.0,0.0,0.0,0.0,0.0,0.0,0.0,0.0,0.0,0.0,0.0,0.0,0.0,0.0,0.0,0.0,0.0,0.0,0.0,0.0,0.0,0.0,0.0,0.0,0.0,0.0,0.0,0.0,0.0,0.0,0.0,0.0,0.0,0.0,0.0,0.0,0.0,0.0,0.0,0.0,0.0,0.0,0.0,0.0,0.0,0.0,0.0,0.0,0.0,0.0,0.0,0.0,0.0,0.0,0.0,0.0,0.0,0.0,0.0,0.0,0.0,0.0,0.0,0.0,0.0,0.0,0.0,0.0,0.0,0.0,0.0,0.0,0.0,0.0,0.0,0.0,0.0,0.0,0.0,0.0,0.0,0.0,0.0,0.0,0.0,0.0,0.0,0.0,0.0,0.0,0.0,0.0,0.0,0.0,0.0,0.0,0.0,0.0,0.0,0.0,0.0,0.0,0.0,0.0,0.0,0.0,0.0,0.0,0.0,0.0,0.0,0.0,0.0,0.0,0.0,0.0,0.0,0.0,0.0,0.0,0.0,0.0,0.0,0.0,0.0,0.0,0.0,0.0,0.0,0.0,0.0,0.0,0.0,0.0,0.0,0.0,0.0,0.0,0.0,0.0,0.0,0.0,0.0,0.0,0.0,0.0,0.0,0.0,0.0,0.0,0.0,0.0,0.0,0.0,0.0,0.0,0.0,0.0,0.0,0.0,0.0,0.0,0.0,0.0,0.0,0.0,0.0,0.0,0.0,0.0,0.0,0.0,0.0,0.0,0.0,0.0,0.0,0.0,0.0,0.0,0.0,0.0,0.0,0.0,0.0,0.0,0.0,0.0,0.0,0.0,0.0,0.0,0.0,0.0,0.0,0.0,0.0,0.0,0.0,0.0,0.0,0.0,0.0,0.0,0.0,0.0,0.0,0.0,0.0,0.0,0.0,0.0,0.0,0.0,0.0,0.0,0.0,0.0,0.0,0.0,0.0,0.0,0.0,0.0,0.0,0.0,0.0,0.0,0.0,0.0,0.0,0.0,0.0,0.0,0.0,0.0,0.0,0.0,0.0,0.0,0.0,0.0,0.0,0.0,0.0,0.0,0.0,0.0,0.0,0.0,0.0,0.0,0.0,0.0,0.0,0.0,0.0,0.0,0.0,0.0,0.0,0.0,0.0,0.0,0.0,0.0,0.0,0.0,0.0,0.0,0.0,0.0,0.0,0.0,0.0,0.0,0.0,0.0,0.0,0.0,0.0,0.0,0.0,0.0,0.0,0.0,0.0,0.0,0.0,0.0,0.0,0.0,0.0,0.0,0.0,0.0,0.0,0.0,0.0,0.0,0.0,0.0,0.0,0.0,0.0,0.0,0.0,0.0,0.0,0.0,0.0,0.0,0.0,0.0,0.0,0.0,0.0,0.0,0.0,0.0,0.0,0.0,0.0,0.0,0.0,0.0,0.0,0.0,0.0,0.0,0.0,0.0,0.0,0.0,0.0,0.0,0.0,0.0,0.0,0.0,0.0,0.0,0.0,0.0,0.0,0.0,0.0,0.0,0.0,0.0,0.0,0.0,0.0,0.0,0.0,0.0,0.0,0.0,0.0,0.0,0.0,0.0,0.0,0.0,0.0,0.0,0.0,0.0,0.0,0.0,0.0,0.0,0.0,0.0,0.0,0.0,0.0,0.0,0.0,0.0,0.0,0.0,0.0,0.0,0.0,0.0,0.0,0.0,0.0,0.0,0.0,0.0,0.0,0.0,0.0,0.0,0.0,0.0,0.0,0.0,0.0,0.0,0.0,0.0,0.0,0.0,0.0,0.0,0.0,0.0,2.0624,0.0,0.0,0.0,0.0,0.0,0.0,0.0,0.0,0.0,0.0,0.0,0.0,0.0,0.0,0.0,0.0,0.0,0.0,0.0,0.0,0.0,0.0,0.0,0.0,0.0,0.0,0.0,0.0,0.0,0.0,0.0,0.0,0.0,0.0,0.0,0.0,0.0,0.0,0.0,0.0,0.0,0.0,0.0,0.0,0.0,0.0,0.0,0.0,0.0,0.0,0.0,0.0,0.0,0.0,0.0,0.0,0.0,0.0,0.0,0.0,0.0,0.0,0.0,0.0,0.0,0.0,0.0,0.0,0.0,0.0,0.0,0.0,0.0,0.0,0.0,0.0,0.0,0.0,0.0,0.0,0.0,0.0,0.0,0.0,0.0,0.0,0.0,0.0,0.0,0.0,0.0,0.0,0.0,0.0,0.0,0.0,0.0,0.0,0.0,0.0,0.0,0.0,0.0,0.0,0.0,0.0,0.0,0.0,0.0,0.0,2.1385,2.1385,2.1385,2.1263,2.1006,0.0,0.0,0.0,0.0,0.0,0.0,0.0,0.0,0.0,0.0,0.0,0.0,0.0,0.0,0.0,0.0,0.0,0.0,0.0,0.0,0.0,0.0,0.0,0.0,0.0,0.0,0.0,0.0,0.0,0.0,0.0,0.0,0.0,0.0,0.0,0.0,0.0,0.0,0.0,0.0,0.0,0.0,0.0,0.0,0.0,0.0,0.0,0.0,0.0,0.0,0.0,0.0,0.0,0.0,0.0,0.0,0.0,0.0,0.0,0.0,0.0,0.0,0.0,0.0,0.0,0.0,0.0,0.0,0.0,0.0,0.0,0.0,0.0,0.0,0.0,0.0,0.0,0.0,0.0,0.0,0.0,0.0,0.0,0.0,0.0,0.0,0.0,0.0,0.0,0.0,0.0,0.0,0.0,0.0,0.0,0.0,0.0,0.0,0.0,0.0,0.0,0.0,0.0,0.0,0.0,0.0,0.0,0.0,0.0,0.0,0.0,0.0,2.1602,2.1602,2.1602,0.0,0.0,0.0,0.0,0.0,0.0,0.0,0.0,0.0,0.0,0.0,0.0,0.0,0.0,0.0,0.0,0.0,0.0,0.0,0.0,0.0,0.0,0.0,0.0,0.0,0.0,0.0,0.0,0.0,0.0,0.0,0.0,0.0,0.0,0.0,0.0,0.0,0.0,0.0,0.0,0.0,0.0,0.0,0.0,0.0,0.0,0.0,0.0,0.0,0.0,0.0,0.0,0.0,0.0,0.0,0.0,0.0,0.0,0.0,0.0,0.0,0.0,0.0,0.0,0.0,0.0,0.0,0.0,0.0,0.0,0.0,0.0,0.0,0.0,0.0,0.0,0.0,0.0,0.0,0.0,0.0,0.0,0.0,0.0,0.0,0.0,0.0,0.0,0.0,0.0,0.0,0.0,0.0,0.0,0.0,0.0,0.0,0.0,0.0,0.0,0.0,0.0,0.0,0.0,0.0,0.0,0.0,0.0,0.0,0.0,2.1667,2.221,2.2224,0.0,2.2224,0.0,0.0,0.0,0.0,0.0,0.0,0.0,0.0,0.0,0.0,0.0,0.0,0.0,0.0,0.0,0.0,0.0,0.0,0.0,0.0,0.0,0.0,0.0,0.0,0.0,0.0,0.0,0.0,0.0,0.0,0.0,0.0,0.0,0.0,0.0,0.0,0.0,0.0,0.0,0.0,0.0,0.0,0.0,0.0,0.0,0.0,0.0,0.0,0.0,0.0,0.0,0.0,0.0,0.0,0.0,0.0,0.0,0.0,0.0,0.0,0.0,0.0,0.0,0.0,0.0,0.0,0.0,0.0,0.0,0.0,0.0,0.0,0.0,0.0,0.0,0.0,0.0,0.0,0.0,0.0,0.0,0.0,0.0,0.0,0.0,0.0,0.0,0.0,0.0,0.0,0.0,0.0,0.0,0.0,0.0,0.0,0.0,0.0,0.0,0.0,0.0,0.0,0.0,0.0,0.0,0.0,0.0,0.0,0.0,0.0,2.2011,2.2165,2.2179,2.2179,0.0,0.0,0.0,0.0,0.0,0.0,0.0,0.0,0.0,0.0,0.0,0.0,0.0,0.0,0.0,0.0,0.0,0.0,0.0,0.0,0.0,0.0,0.0,0.0,0.0,0.0,0.0,0.0,0.0,0.0,0.0,0.0,0.0,0.0,0.0,0.0,0.0,0.0,0.0,0.0,0.0,0.0,0.0,0.0,0.0,0.0,0.0,0.0,0.0,0.0,0.0,0.0,0.0,0.0,0.0,0.0,0.0,0.0,0.0,0.0,0.0,0.0,0.0,0.0,0.0,0.0,0.0,0.0,0.0,0.0,0.0,0.0,0.0,0.0,0.0,0.0,0.0,0.0,0.0,0.0,0.0,0.0,0.0,0.0,0.0,0.0,0.0,0.0,0.0,0.0,0.0,0.0,0.0,0.0,0.0,0.0,0.0,0.0,0.0,0.0,0.0,0.0,0.0,0.0,0.0,0.0,0.0,0.0,0.0,0.0,2.2094,2.2273,2.2293,2.2281,2.2133,2.181,0.0,0.0,0.0,0.0,0.0,0.0,0.0,0.0,0.0,0.0,0.0,0.0,0.0,0.0,0.0,0.0,0.0,0.0,0.0,0.0,0.0,0.0,0.0,0.0,0.0,0.0,0.0,0.0,0.0,0.0,0.0,0.0,0.0,0.0,0.0,0.0,0.0,0.0,0.0,0.0,0.0,0.0,0.0,0.0,0.0,0.0,0.0,0.0,0.0,0.0,0.0,0.0,0.0,0.0,0.0,0.0,0.0,0.0,0.0,0.0,0.0,0.0,0.0,0.0,0.0,0.0,0.0,0.0,0.0,0.0,0.0,0.0,0.0,0.0,0.0,0.0,0.0,0.0,0.0,0.0,0.0,0.0,0.0,0.0,0.0,0.0,0.0,0.0,0.0,0.0,0.0,0.0,0.0,0.0,0.0,0.0,0.0,0.0,0.0,0.0,0.0,0.0,0.0,0.0,0.0,0.0,0.0,0.0,2.2816,2.2385,2.2321,2.2738,2.2764,2.2271,0.0,0.0,0.0,0.0,0.0,0.0,0.0,0.0,0.0,0.0,0.0,0.0,0.0,0.0,0.0,0.0,0.0,0.0,0.0,0.0,0.0,0.0,0.0,0.0,0.0,0.0,0.0,0.0,0.0,0.0,0.0,0.0,0.0,0.0,0.0,0.0,0.0,0.0,0.0,0.0,0.0,0.0,0.0,0.0,0.0,0.0,0.0,0.0,0.0,0.0,0.0,0.0,0.0,0.0,0.0,0.0,0.0,0.0,0.0,0.0,0.0,0.0,0.0,0.0,0.0,0.0,0.0,0.0,0.0,0.0,0.0,0.0,0.0,0.0,0.0,0.0,0.0,0.0,0.0,0.0,0.0,0.0,0.0,0.0,0.0,0.0,0.0,0.0,0.0,0.0,0.0,0.0,0.0,0.0,0.0,0.0,0.0,0.0,0.0,0.0,0.0,0.0,0.0,0.0,0.0,0.0,0.0,0.0,0.0,2.1835,2.1832,2.2313,2.3174,2.2512,2.1916,0.0,0.0,0.0,0.0,0.0,0.0,0.0,0.0,0.0,0.0,0.0,0.0,0.0,0.0,0.0,0.0,0.0,0.0,0.0,0.0,0.0,0.0,0.0,0.0,0.0,0.0,0.0,0.0,0.0,0.0,0.0,0.0,0.0,0.0,0.0,0.0,0.0,0.0,0.0,0.0,0.0,0.0,0.0,0.0,0.0,0.0,0.0,0.0,0.0,0.0,0.0,0.0,0.0,0.0,0.0,0.0,0.0,0.0,0.0,0.0,0.0,0.0,0.0,0.0,0.0,0.0,0.0,0.0,0.0,0.0,0.0,0.0,0.0,0.0,0.0,0.0,0.0,0.0,0.0,0.0,0.0,0.0,0.0,0.0,0.0,0.0,0.0,0.0,0.0,0.0,0.0,0.0,0.0,0.0,0.0,0.0,0.0,0.0,0.0,0.0,0.0,0.0,0.0,0.0,0.0,0.0,0.0,0.0,0.0,2.1669,0.0,2.2496,0.0,2.2365,2.1681,0.0,0.0,0.0,0.0,0.0,0.0,0.0,0.0,0.0,0.0,0.0,0.0,0.0,0.0,0.0,0.0,0.0,0.0,0.0,0.0,0.0,0.0,0.0,0.0,0.0,0.0,0.0,0.0,0.0,0.0,0.0,0.0,0.0,0.0,0.0,0.0,0.0,0.0,0.0,0.0,0.0,0.0,0.0,0.0,0.0,0.0,0.0,0.0,0.0,0.0,0.0,0.0,0.0,0.0,0.0,0.0,0.0,0.0,0.0,0.0,0.0,0.0,0.0,0.0,0.0,0.0,0.0,0.0,0.0,0.0,0.0,0.0,0.0,0.0,0.0,0.0,0.0,0.0,0.0,0.0,0.0,0.0,0.0,0.0,0.0,0.0,0.0,0.0,0.0,0.0,0.0,0.0,0.0,0.0,0.0,0.0,0.0,0.0,0.0,0.0,0.0,0.0,0.0,0.0,0.0,0.0,0.0,0.0,2.1644,2.255,2.2954,2.291,2.2425,2.2388,2.1577,0.0,0.0,0.0,0.0,0.0,0.0,0.0,0.0,0.0,0.0,0.0,0.0,0.0,0.0,0.0,0.0,0.0,0.0,0.0,0.0,0.0,0.0,0.0,0.0,0.0,0.0,0.0,0.0,0.0,0.0,0.0,0.0,0.0,0.0,0.0,0.0,0.0,0.0,0.0,0.0,0.0,0.0,0.0,0.0,0.0,0.0,0.0,0.0,0.0,0.0,0.0,0.0,0.0,0.0,0.0,0.0,0.0,0.0,0.0,0.0,0.0,0.0,0.0,0.0,0.0,0.0,0.0,0.0,0.0,0.0,0.0,0.0,0.0,0.0,0.0,0.0,0.0,0.0,0.0,0.0,0.0,0.0,0.0,0.0,0.0,0.0,0.0,0.0,0.0,0.0,0.0,0.0,0.0,0.0,0.0,0.0,0.0,0.0,0.0,0.0,0.0,0.0,0.0,0.0,0.0,0.0,0.0,0.0,0.0,2.2009,2.2416,2.274,2.2923,2.2178,2.1525,0.0,0.0,0.0,0.0,0.0,0.0,0.0,0.0,0.0,0.0,0.0,0.0,0.0,0.0,0.0,0.0,0.0,0.0,0.0,0.0,0.0,0.0,0.0,0.0,0.0,0.0,0.0,0.0,0.0,0.0,0.0,0.0,0.0,0.0,0.0,0.0,0.0,0.0,0.0,0.0,0.0,0.0,0.0,0.0,0.0,0.0,0.0,0.0,0.0,0.0,0.0,0.0,0.0,0.0,0.0,0.0,0.0,0.0,0.0,0.0,0.0,0.0,0.0,0.0,0.0,0.0,0.0,0.0,0.0,0.0,0.0,0.0,0.0,0.0,0.0,0.0,0.0,0.0,0.0,0.0,0.0,0.0,0.0,0.0,0.0,0.0,0.0,0.0,0.0,0.0,0.0,0.0,0.0,0.0,0.0,0.0,0.0,0.0,0.0,0.0,0.0,0.0,0.0,0.0,0.0,0.0,0.0,0.0,0.0,2.2312,2.2769,2.308,2.3182,2.2309,2.1721,2.1485,0.0,0.0,0.0,0.0,0.0,0.0,0.0,0.0,0.0,0.0,0.0,0.0,0.0,0.0,0.0,0.0,0.0,0.0,0.0,0.0,0.0,0.0,0.0,0.0,0.0,0.0,0.0,0.0,0.0,0.0,0.0,0.0,0.0,0.0,0.0,0.0,0.0,0.0,0.0,0.0,0.0,0.0,0.0,0.0,0.0,0.0,0.0,0.0,0.0,0.0,0.0,0.0,0.0,0.0,0.0,0.0,0.0,0.0,0.0,0.0,0.0,0.0,0.0,0.0,0.0,0.0,0.0,0.0,0.0,0.0,0.0,0.0,0.0,0.0,0.0,0.0,0.0,0.0,0.0,0.0,0.0,0.0,0.0,0.0,0.0,0.0,0.0,0.0,0.0,0.0,0.0,0.0,0.0,0.0,0.0,0.0,0.0,0.0,0.0,0.0,0.0,0.0,0.0,0.0,0.0,0.0,0.0,0.0,2.3263,2.3822,2.3877,2.3261,2.2688,2.2139,0.0,0.0,0.0,0.0,0.0,0.0,0.0,0.0,0.0,0.0,0.0,0.0,0.0,0.0,0.0,0.0,0.0,0.0,0.0,0.0,0.0,0.0,0.0,0.0,0.0,0.0,0.0,0.0,0.0,0.0,0.0,0.0,0.0,0.0,0.0,0.0,0.0,0.0,0.0,0.0,0.0,0.0,0.0,0.0,0.0,0.0,0.0,0.0,0.0,0.0,0.0,0.0,0.0,0.0,0.0,0.0,0.0,0.0,0.0,0.0,0.0,0.0,0.0,0.0,0.0,0.0,0.0,0.0,0.0,0.0,0.0,0.0,0.0,0.0,0.0,0.0,0.0,0.0,0.0,0.0,0.0,0.0,0.0,0.0,0.0,0.0,0.0,0.0,0.0,0.0,0.0,0.0,0.0,0.0,0.0,0.0,0.0,0.0,0.0,0.0,0.0,0.0,0.0,0.0,0.0,0.0,0.0,0.0,0.0,2.3903,2.4452,2.4465,2.3848,2.2924,2.2323,0.0,0.0,0.0,0.0,0.0,0.0,0.0,0.0,0.0,0.0,0.0,0.0,0.0,0.0,0.0,0.0,0.0,0.0,0.0,0.0,0.0,0.0,0.0,0.0,0.0,0.0,0.0,0.0,0.0,0.0,0.0,0.0,0.0,0.0,0.0,0.0,0.0,0.0,0.0,0.0,0.0,0.0,0.0,0.0,0.0,0.0,0.0,0.0,0.0,0.0,0.0,0.0,0.0,0.0,0.0,0.0,0.0,0.0,0.0,0.0,0.0,0.0,0.0,0.0,0.0,0.0,0.0,0.0,0.0,0.0,0.0,0.0,0.0,0.0,0.0,0.0,0.0,0.0,0.0,0.0,0.0,0.0,0.0,0.0,0.0,0.0,0.0,0.0,0.0,0.0,0.0,0.0,0.0,0.0,0.0,0.0,0.0,0.0,0.0,0.0,0.0,0.0,0.0,0.0,0.0,0.0,0.0,0.0,2.4688,2.4478,2.4835,2.4848,2.4491,2.3328,2.2637,0.0,0.0,0.0,0.0,0.0,0.0,0.0,0.0,0.0,0.0,0.0,0.0,0.0,0.0,0.0,0.0,0.0,0.0,0.0,0.0,0.0,0.0,0.0,0.0,0.0,0.0,0.0,0.0,0.0,0.0,0.0,0.0,0.0,0.0,0.0,0.0,0.0,0.0,0.0,0.0,0.0,0.0,0.0,0.0,0.0,0.0,0.0,0.0,0.0,0.0,0.0,0.0,0.0,0.0,0.0,0.0,0.0,0.0,0.0,0.0,0.0,0.0,0.0,0.0,0.0,0.0,0.0,0.0,0.0,0.0,0.0,0.0,0.0,0.0,0.0,0.0,0.0,0.0,0.0,0.0,0.0,0.0,0.0,0.0,0.0,0.0,0.0,0.0,0.0,0.0,0.0,0.0,0.0,0.0,0.0,0.0,0.0,0.0,0.0,0.0,0.0,0.0,0.0,0.0,0.0,0.0,0.0,0.0,2.5342,2.5083,2.5136,2.511,2.4966,2.3825,2.2962,0.0,0.0,0.0,0.0,0.0,0.0,0.0,0.0,0.0,0.0,0.0,0.0,0.0,0.0,0.0,0.0,0.0,0.0,0.0,0.0,0.0,0.0,0.0,0.0,0.0,0.0,0.0,0.0,0.0,0.0,0.0,0.0,0.0,0.0,0.0,0.0,0.0,0.0,0.0,0.0,0.0,0.0,0.0,0.0,0.0,0.0,0.0,0.0,0.0,0.0,0.0,0.0,0.0,0.0,0.0,0.0,0.0,0.0,0.0,0.0,0.0,0.0,0.0,0.0,0.0,0.0,0.0,0.0,0.0,0.0,0.0,0.0,0.0,0.0,0.0,0.0,0.0,0.0,0.0,0.0,0.0,0.0,0.0,0.0,0.0,0.0,0.0,0.0,0.0,0.0,0.0,0.0,0.0,0.0,0.0,0.0,0.0,0.0,0.0,0.0,0.0,0.0,0.0,0.0,0.0,0.0,0.0,0.0,2.5937,2.5654,2.6117,2.5921,2.5018,2.3825,2.2949,0.0,0.0,0.0,0.0,0.0,0.0,0.0,0.0,0.0,0.0,0.0,0.0,0.0,0.0,0.0,0.0,0.0,0.0,0.0,0.0,0.0,0.0,0.0,0.0,0.0,0.0,0.0,0.0,0.0,0.0,0.0,0.0,0.0,0.0,0.0,0.0,0.0,0.0,0.0,0.0,0.0,0.0,0.0,0.0,0.0,0.0,0.0,0.0,2.3906,0.0,0.0,0.0,0.0,0.0,0.0,0.0,0.0,0.0,0.0,0.0,0.0,0.0,0.0,0.0,0.0,0.0,0.0,0.0,0.0,0.0,0.0,0.0,0.0,0.0,0.0,0.0,0.0,0.0,0.0,0.0,0.0,0.0,0.0,0.0,0.0,0.0,0.0,0.0,0.0,0.0,0.0,0.0,0.0,0.0,0.0,0.0,0.0,0.0,0.0,0.0,0.0,0.0,0.0,0.0,0.0,0.0,0.0,0.0,2.6272,2.6216,2.6549,2.6255,2.5393,2.4504,2.3539,0.0,0.0,0.0,0.0,0.0,0.0,0.0,0.0,0.0,0.0,0.0,0.0,0.0,0.0,0.0,0.0,0.0,0.0,0.0,0.0,0.0,0.0,0.0,0.0,0.0,0.0,0.0,0.0,0.0,0.0,0.0,0.0,0.0,0.0,0.0,0.0,0.0,0.0,0.0,0.0,0.0,0.0,0.0,0.0,0.0,0.0,0.0,0.0,0.0,0.0,0.0,0.0,0.0,0.0,0.0,0.0,0.0,0.0,0.0,0.0,0.0,0.0,0.0,0.0,0.0,0.0,0.0,0.0,0.0,0.0,0.0,0.0,0.0,0.0,0.0,0.0,0.0,0.0,0.0,0.0,0.0,0.0,0.0,0.0,0.0,0.0,0.0,0.0,0.0,0.0,0.0,0.0,0.0,0.0,0.0,0.0,0.0,0.0,0.0,0.0,0.0,0.0,0.0,0.0,0.0,0.0,0.0,2.5741,2.644,2.6811,2.6837,2.6543,2.5955,2.5406,2.4325,2.2597,0.0,0.0,0.0,0.0,0.0,0.0,0.0,0.0,0.0,0.0,0.0,0.0,0.0,0.0,0.0,0.0,0.0,0.0,0.0,0.0,0.0,0.0,0.0,0.0,0.0,0.0,0.0,0.0,0.0,0.0,0.0,0.0,0.0,0.0,0.0,0.0,0.0,0.0,2.3345,2.4409,0.0,0.0,0.0,0.0,0.0,0.0,0.0,0.0,2.5005,0.0,0.0,0.0,0.0,0.0,0.0,0.0,0.0,0.0,0.0,0.0,0.0,0.0,0.0,0.0,0.0,0.0,0.0,0.0,0.0,0.0,0.0,0.0,0.0,0.0,0.0,0.0,0.0,0.0,0.0,0.0,0.0,0.0,0.0,0.0,0.0,0.0,0.0,0.0,0.0,0.0,0.0,0.0,0.0,0.0,0.0,0.0,0.0,0.0,0.0,0.0,0.0,0.0,0.0,0.0,0.0,2.5974,2.6016,2.6493,2.734,2.7359,2.7118,2.6556,2.5981,2.4857,2.3184,0.0,0.0,0.0,0.0,0.0,0.0,0.0,0.0,0.0,0.0,0.0,0.0,0.0,0.0,0.0,0.0,0.0,0.0,0.0,0.0,0.0,0.0,0.0,0.0,0.0,0.0,0.0,0.0,0.0,0.0,0.0,0.0,0.0,0.0,0.0,0.0,0.0,0.0,0.0,2.5199,2.5631,0.0,0.0,0.0,0.0,0.0,0.0,0.0,0.0,2.5005,0.0,0.0,0.0,0.0,0.0,0.0,0.0,0.0,0.0,0.0,0.0,0.0,0.0,0.0,0.0,0.0,0.0,0.0,0.0,0.0,0.0,0.0,0.0,0.0,0.0,0.0,0.0,0.0,0.0,0.0,0.0,0.0,0.0,0.0,0.0,0.0,0.0,0.0,0.0,0.0,0.0,0.0,0.0,0.0,0.0,0.0,0.0,0.0,0.0,0.0,0.0,0.0,0.0,0.0,0.0,2.6201,2.6534,2.6899,2.7464,2.7503,2.7085,2.6255,2.568,2.4586,0.0,0.0,0.0,0.0,0.0,0.0,0.0,0.0,0.0,0.0,0.0,0.0,0.0,0.0,0.0,0.0,0.0,0.0,0.0,0.0,0.0,0.0,0.0,0.0,0.0,0.0,0.0,0.0,0.0,0.0,0.0,0.0,0.0,0.0,0.0,0.0,0.0,0.0,0.0,0.0,2.5499,2.6028,2.5508,0.0,0.0,0.0,0.0,0.0,0.0,2.5005,2.5005,0.0,0.0,0.0,0.0,0.0,0.0,0.0,0.0,0.0,0.0,0.0,0.0,0.0,0.0,0.0,0.0,0.0,0.0,0.0,0.0,0.0,0.0,0.0,0.0,0.0,0.0,0.0,0.0,0.0,0.0,0.0,0.0,0.0,0.0,0.0,0.0,0.0,0.0,0.0,0.0,0.0,0.0,0.0,0.0,0.0,0.0,0.0,0.0,0.0,0.0,0.0,0.0,0.0,0.0,0.0,2.6112,2.6809,2.7286,2.753,2.7536,2.7007,2.5989,2.5445,2.4351,0.0,0.0,0.0,0.0,0.0,0.0,0.0,0.0,0.0,0.0,0.0,0.0,0.0,0.0,0.0,0.0,0.0,0.0,0.0,0.0,0.0,0.0,0.0,0.0,0.0,0.0,0.0,0.0,0.0,0.0,0.0,0.0,0.0,0.0,0.0,0.0,0.0,0.0,0.0,0.0,0.0,2.6497,2.5354,2.5607,0.0,0.0,0.0,0.0,2.5005,2.5005,0.0,0.0,0.0,0.0,0.0,0.0,0.0,0.0,0.0,0.0,0.0,0.0,0.0,0.0,0.0,0.0,0.0,0.0,0.0,0.0,0.0,0.0,0.0,0.0,0.0,0.0,0.0,0.0,0.0,0.0,0.0,0.0,0.0,0.0,0.0,0.0,0.0,0.0,0.0,0.0,0.0,0.0,0.0,0.0,0.0,0.0,0.0,0.0,0.0,0.0,0.0,0.0,0.0,0.0,0.0,0.0,2.5657,2.6534,2.7208,2.7703,2.759,2.719,2.6627,2.602,2.4909,0.0,0.0,0.0,0.0,0.0,0.0,0.0,0.0,0.0,0.0,0.0,0.0,0.0,0.0,0.0,0.0,0.0,0.0,0.0,0.0,0.0,0.0,0.0,0.0,0.0,0.0,0.0,0.0,0.0,0.0,0.0,0.0,0.0,0.0,0.0,0.0,0.0,0.0,0.0,0.0,0.0,2.7072,2.5938,2.5864,2.5683,0.0,0.0,2.5005,2.5005,2.5005,0.0,0.0,0.0,0.0,0.0,0.0,0.0,0.0,0.0,0.0,0.0,0.0,0.0,0.0,0.0,0.0,0.0,0.0,0.0,0.0,0.0,0.0,0.0,0.0,0.0,0.0,0.0,0.0,0.0,0.0,0.0,0.0,0.0,0.0,0.0,0.0,0.0,0.0,0.0,0.0,0.0,0.0,0.0,0.0,0.0,0.0,0.0,0.0,0.0,0.0,0.0,0.0,0.0,0.0,0.0,2.4875,2.562,2.6988,2.7754,2.7954,2.7901,2.7367,2.6362,2.5783,2.4606,0.0,0.0,0.0,0.0,0.0,0.0,0.0,0.0,0.0,0.0,0.0,0.0,0.0,0.0,0.0,0.0,0.0,0.0,0.0,0.0,0.0,0.0,0.0,0.0,0.0,0.0,0.0,0.0,0.0,0.0,0.0,0.0,0.0,0.0,0.0,0.0,0.0,0.0,0.0,0.0,0.0,0.0,2.6046,2.6169,0.0,0.0,0.0,2.5507,2.5507,0.0,0.0,0.0,0.0,0.0,0.0,0.0,0.0,0.0,0.0,0.0,0.0,0.0,0.0,0.0,0.0,0.0,0.0,0.0,0.0,0.0,0.0,0.0,0.0,0.0,0.0,0.0,0.0,0.0,0.0,0.0,0.0,0.0,0.0,0.0,0.0,0.0,0.0,0.0,0.0,0.0,0.0,0.0,0.0,0.0,0.0,0.0,0.0,0.0,0.0,0.0,0.0,0.0,0.0,0.0,0.0,0.0,2.5493,2.7319,2.8268,2.8164,2.7965,2.7341,2.618,2.5567,0.0,0.0,0.0,0.0,0.0,0.0,0.0,0.0,0.0,0.0,0.0,0.0,0.0,0.0,0.0,0.0,0.0,0.0,0.0,0.0,0.0,0.0,0.0,0.0,0.0,0.0,0.0,2.1804,0.0,0.0,0.0,0.0,0.0,0.0,0.0,0.0,0.0,0.0,0.0,0.0,0.0,0.0,2.7398,2.6288,2.666,2.6955,0.0,0.0,2.6063,2.59,2.5916,2.5697,0.0,0.0,0.0,0.0,0.0,0.0,0.0,0.0,0.0,0.0,0.0,0.0,0.0,0.0,0.0,0.0,0.0,0.0,0.0,0.0,0.0,0.0,0.0,0.0,0.0,0.0,0.0,0.0,0.0,0.0,0.0,0.0,0.0,0.0,0.0,0.0,0.0,0.0,0.0,0.0,0.0,0.0,0.0,0.0,0.0,0.0,0.0,0.0,0.0,0.0,0.0,0.0,0.0,0.0,2.5032,2.5112,2.718,2.8287,2.8287,2.7597,2.6974,2.6321,2.5718,2.4571,0.0,0.0,0.0,0.0,0.0,0.0,0.0,0.0,0.0,0.0,0.0,0.0,0.0,0.0,0.0,0.0,0.0,0.0,0.0,0.0,0.0,0.0,0.0,0.0,0.0,0.0,0.0,0.0,0.0,0.0,0.0,0.0,0.0,0.0,0.0,0.0,0.0,0.0,0.0,0.0,0.0,2.8024,2.6897,2.7271,2.7447,0.0,2.6752,2.6565,2.5982,2.593,2.5683,2.51,0.0,0.0,0.0,0.0,0.0,0.0,0.0,0.0,0.0,0.0,0.0,0.0,0.0,0.0,0.0,0.0,0.0,0.0,0.0,0.0,0.0,0.0,0.0,0.0,0.0,0.0,0.0,0.0,0.0,0.0,0.0,0.0,0.0,0.0,0.0,0.0,0.0,0.0,0.0,0.0,0.0,0.0,0.0,0.0,0.0,0.0,0.0,0.0,0.0,0.0,0.0,0.0,0.0,2.5005,2.5032,2.7304,2.8476,2.8476,2.8209,2.7566,2.6501,2.626,2.5076,0.0,0.0,0.0,0.0,0.0,0.0,0.0,0.0,0.0,0.0,0.0,0.0,0.0,0.0,0.0,0.0,0.0,0.0,0.0,0.0,0.0,0.0,0.0,0.0,0.0,0.0,0.0,0.0,2.2773,2.3028,2.3242,0.0,0.0,0.0,0.0,0.0,0.0,0.0,0.0,0.0,0.0,2.8998,2.8578,2.8432,0.0,0.0,2.7817,2.7284,2.7054,2.6701,2.6267,2.5656,2.5249,0.0,0.0,0.0,0.0,0.0,0.0,0.0,0.0,0.0,0.0,0.0,0.0,0.0,0.0,0.0,0.0,0.0,0.0,0.0,0.0,0.0,0.0,0.0,0.0,0.0,0.0,0.0,0.0,0.0,0.0,0.0,0.0,0.0,0.0,0.0,0.0,0.0,0.0,0.0,0.0,0.0,0.0,0.0,0.0,0.0,0.0,0.0,0.0,0.0,0.0,0.0,0.0,2.5005,2.5018,2.7379,2.8587,2.8587,2.8424,2.7778,2.6712,2.6496,2.5275,0.0,0.0,0.0,0.0,0.0,0.0,0.0,0.0,0.0,0.0,0.0,0.0,0.0,0.0,0.0,0.0,0.0,0.0,0.0,0.0,0.0,0.0,0.0,0.0,0.0,0.0,0.0,0.0,2.3545,2.376,2.3937,0.0,0.0,0.0,0.0,0.0,0.0,0.0,0.0,0.0,0.0,2.9855,2.9857,2.9324,2.9071,2.9448,2.8636,2.7908,2.7732,2.7501,2.7081,2.6294,0.0,0.0,0.0,0.0,0.0,0.0,0.0,0.0,0.0,0.0,0.0,0.0,0.0,0.0,0.0,0.0,0.0,0.0,0.0,0.0,0.0,0.0,0.0,0.0,0.0,0.0,0.0,2.4493,0.0,0.0,2.4462,0.0,0.0,0.0,0.0,0.0,0.0,0.0,0.0,0.0,0.0,0.0,0.0,0.0,0.0,0.0,0.0,0.0,0.0,0.0,0.0,0.0,0.0,2.5018,2.5046,2.7379,2.8587,2.8573,2.803,2.7461,2.6806,2.6226,2.5073,2.3243,0.0,0.0,0.0,0.0,0.0,0.0,0.0,0.0,0.0,0.0,0.0,0.0,0.0,0.0,0.0,0.0,0.0,0.0,0.0,0.0,0.0,0.0,0.0,0.0,0.0,0.0,2.2315,2.2942,2.3638,0.0,0.0,0.0,0.0,0.0,0.0,0.0,0.0,0.0,0.0,3.0561,3.0477,3.0527,2.9936,2.958,2.9577,2.904,2.8415,2.7917,2.8225,2.8166,0.0,0.0,0.0,0.0,0.0,0.0,0.0,0.0,0.0,0.0,0.0,0.0,0.0,0.0,0.0,0.0,0.0,0.0,0.0,0.0,0.0,0.0,0.0,0.0,0.0,0.0,0.0,2.6772,2.6235,0.0,0.0,0.0,0.0,0.0,0.0,0.0,0.0,0.0,0.0,0.0,2.7891,2.8077,0.0,0.0,0.0,0.0,0.0,0.0,0.0,0.0,0.0,0.0,0.0,0.0,2.5195,2.567,2.7569,2.8587,2.8587,2.8397,2.7827,2.682,2.6589,2.548,2.3283,0.0,0.0,0.0,0.0,0.0,0.0,0.0,0.0,0.0,0.0,0.0,0.0,0.0,0.0,0.0,0.0,0.0,0.0,0.0,0.0,0.0,0.0,0.0,0.0,0.0,2.3925,0.0,0.0,0.0,0.0,0.0,0.0,0.0,0.0,0.0,0.0,0.0,3.1156,3.14,3.1685,3.2084,3.257,3.1961,3.1645,0.0,0.0,0.0,0.0,0.0,0.0,0.0,0.0,0.0,0.0,0.0,0.0,0.0,0.0,2.9537,2.6405,2.5911,2.6135,2.6587,0.0,0.0,0.0,0.0,0.0,0.0,0.0,0.0,0.0,0.0,0.0,0.0,0.0,0.0,2.8347,0.0,2.7921,0.0,0.0,0.0,0.0,0.0,0.0,0.0,0.0,2.9776,3.0242,3.0365,3.065,3.0243,0.0,2.9301,2.8047,0.0,0.0,0.0,0.0,0.0,0.0,0.0,0.0,2.5795,2.629,2.8009,2.8912,2.8899,2.8899,2.8336,2.7124,2.648,2.5325,2.3567,2.2551,2.1833,0.0,0.0,0.0,0.0,0.0,0.0,0.0,0.0,0.0,0.0,0.0,0.0,0.0,0.0,0.0,0.0,0.0,0.0,0.0,0.0,0.0,0.0,0.0,2.4474,0.0,0.0,0.0,0.0,0.0,0.0,0.0,0.0,0.0,3.0967,3.1727,3.2409,3.2931,3.3232,3.36,3.4035,0.0,0.0,0.0,0.0,0.0,0.0,0.0,3.1051,3.1236,3.0401,2.9609,2.9339,3.0178,3.0984,3.1202,0.0,0.0,2.8699,2.7779,2.7526,2.7971,2.8488,2.8727,2.8415,2.8867,2.9059,0.0,0.0,0.0,0.0,0.0,0.0,0.0,0.0,2.9643,2.969,0.0,2.9509,0.0,0.0,0.0,0.0,0.0,2.9611,0.0,0.0,3.3266,3.4085,3.3758,3.4346,3.3792,3.2201,3.2719,3.1824,2.9566,2.7574,0.0,0.0,0.0,0.0,0.0,0.0,2.6835,2.7046,2.8679,2.9535,2.9549,2.9535,2.8928,2.7648,2.5964,2.481,2.415,2.3553,2.2686,2.1521,2.1426,0.0,0.0,0.0,0.0,0.0,0.0,0.0,0.0,0.0,0.0,0.0,0.0,0.0,0.0,0.0,0.0,0.0,0.0,0.0,0.0,2.3599,0.0,0.0,0.0,0.0,0.0,0.0,0.0,0.0,0.0,0.0,3.3361,3.3175,3.3521,3.4965,0.0,0.0,0.0,0.0,3.3789,3.3834,3.3145,3.2689,3.2689,3.3106,3.3234,3.2713,0.0,0.0,3.1077,3.1241,3.1547,3.0956,3.1492,3.1866,3.2504,3.1445,3.0615,3.0645,3.0183,2.9753,2.9759,3.0167,3.0468,3.4687,0.0,0.0,0.0,0.0,3.2692,3.2977,3.3846,3.3135,3.2376,3.169,3.1485,0.0,0.0,0.0,0.0,0.0,0.0,3.2339,3.3419,3.4047,3.4518,3.4911,3.5115,3.4933,3.4444,3.462,3.4347,3.3661,3.256,3.0459,2.7444,0.0,0.0,0.0,0.0,2.845,2.8857,2.9765,3.0194,3.0208,3.0194,2.9604,2.8326,2.7045,2.5865,2.4795,2.4162,2.3486,2.2727,2.2266,0.0,0.0,0.0,0.0,0.0,0.0,0.0,0.0,0.0,0.0,0.0,0.0,0.0,0.0,0.0,0.0,0.0,0.0,0.0,2.5256,2.4602,2.485,0.0,0.0,0.0,0.0,0.0,0.0,0.0,0.0,0.0,3.5366,3.5038,3.4853,0.0,0.0,3.53,3.577,3.554,3.5503,3.5982,3.5861,0.0,3.5692,3.4968,3.4454,3.4675,3.4335,3.4039,3.4162,3.4283,3.4597,3.5016,3.5183,3.532,3.5492,3.3645,3.226,3.2494,3.2124,3.1846,3.2198,3.2084,3.1828,3.6896,3.53,3.4478,3.4367,3.4683,3.4304,3.4604,3.5363,3.492,3.4415,3.3936,3.3651,3.2787,3.1546,3.1009,0.0,0.0,0.0,3.3841,3.5142,3.5142,3.5521,3.6213,3.6216,3.6074,3.5805,3.5805,3.5663,3.5394,3.4936,3.3285,3.0521,0.0,0.0,2.8759,2.9369,2.982,3.0167,3.0703,3.0999,3.0984,3.0661,2.99,2.8623,2.793,2.6971,2.5728,2.513,2.4637,2.4249,2.3216,2.2665,0.0,0.0,0.0,0.0,0.0,0.0,0.0,0.0,0.0,0.0,0.0,2.4552,2.3816,0.0,0.0,0.0,2.5112,2.6087,2.6836,2.6561,0.0,0.0,0.0,0.0,0.0,0.0,0.0,3.4146,3.4778,3.5442,3.6282,3.6311,3.6216,3.6216,3.6159,3.6258,3.6639,0.0,3.6635,3.7028,3.703,3.6999,3.6969,3.6245,3.5768,3.6119,3.5753,3.5417,3.5627,3.5738,3.5913,3.6383,3.6461,3.6538,3.6908,3.5492,3.4268,3.4334,3.3833,3.3509,3.38,3.3275,3.2798,3.8556,3.8412,3.6406,3.5568,3.5552,3.5644,3.5647,3.5663,3.5695,3.6011,3.6408,3.5837,3.5489,3.5315,3.4099,0.0,3.4478,3.451,3.5252,3.6472,3.6472,3.6848,3.7494,3.7494,3.7133,3.6472,3.6472,3.6184,3.56,3.5552,3.5189,3.4446,3.3108,3.1737,3.0433,3.0948,3.1284,3.1326,3.168,3.1853,3.1764,3.1078,3.0071,2.8833,2.8723,2.8096,2.6826,2.627,2.5961,2.5836,2.4273,2.3342,2.3304,0.0,0.0,0.0,0.0,0.0,0.0,0.0,0.0,0.0,0.0,0.0,0.0,0.0,0.0,0.0,2.6876,0.0,2.856,2.8983,0.0,0.0,0.0,3.1403,3.1498,3.3277,3.4462,3.4462,0.0,0.0,3.6487,3.7069,3.751,3.751,3.751,3.751,3.751,3.7344,3.7224,3.7224,3.7119,3.7045,3.706,3.6968,3.6892,3.6908,3.6999,3.6693,3.618,3.6039,3.6008,3.6134,3.6008,3.6243,3.6938,3.6906,3.6766,3.5917,3.5281,3.4742,3.461,3.4012,3.3519,3.9266,3.9123,3.7622,3.702,3.7051,3.7559,3.7765,3.7812,3.8302,3.8033,3.7227,3.7083,3.6435,3.5394,3.5572,3.5745,3.5903,3.6485,3.6925,3.7241,3.7227,3.7352,3.751,3.751,3.7385,3.7257,3.7227,3.7178,3.702,3.7004,3.6627,3.5932,3.5543,3.4628,3.322,3.3817,3.4104,3.3991,3.3562,3.3116,3.2609,3.2427,3.1651,3.0304,2.9796,2.8884,2.7524,2.6967,2.666,2.6601,2.5386,2.4641,2.4626,2.2891,0.0,0.0,0.0,0.0,0.0,0.0,0.0,0.0,0.0,2.6814,2.6062,0.0,2.902,0.0,2.7896,2.8397,2.8928,2.9548,0.0,0.0,3.2282,3.323,3.4273,3.53,3.5887,3.5887,3.6674,3.7257,3.7243,3.7399,3.751,3.751,3.751,3.751,3.751,3.7464,3.7435,3.745,3.7407,3.7391,3.7361,3.7255,3.7119,3.703,3.6999,3.6953,3.6906,3.6891,3.6937,3.7089,3.6997,3.7043,3.7315,3.7285,3.7087,3.6853,3.6218,3.5632,3.5468,3.4852,3.4372,3.9487,3.9376,3.8033,3.751,3.7512,3.7891,3.8049,3.8096,3.8444,3.8175,3.7496,3.7796,3.767,3.7243,3.7622,3.778,3.7796,3.7907,3.7938,3.7907,3.7652,3.751,3.751,3.751,3.751,3.751,3.751,3.751,3.751,3.751,3.7275,3.6911,3.6896,3.6472,3.5628,3.5392,3.5254,3.5109,3.4379,3.3775,3.3377,3.3053,3.2242,3.0869,3.0444,2.9608,2.8226,2.7655,2.7315,2.7214,2.5886,2.5204,2.5463,2.4015,2.3334,0.0,0.0,0.0,0.0,0.0,0.0,0.0,0.0,0.0,0.0,0.0,3.0301,3.0063,3.0126,3.066,3.1798,3.2266,3.2829,3.362,3.4273,3.4999,3.5758,3.6469,3.6896,3.6896,3.7227,3.7621,3.7891,3.7938,3.8065,3.8333,3.8381,3.827,3.7954,3.7686,3.7621,3.7875,3.767,3.751,3.751,3.7405,3.7315,3.7241,3.7211,3.7241,3.7329,3.7329,3.7375,3.7464,3.7405,3.7359,3.748,3.7405,3.7329,3.7282,3.6987,3.6603,3.6332,3.5758,3.5247,3.9487,3.936,3.8063,3.751,3.751,3.751,3.7557,3.7652,3.7731,3.7715,3.7684,3.816,3.8713,3.9234,3.9345,3.9376,3.9345,3.8855,3.8634,3.8602,3.7938,3.7636,3.7591,3.7541,3.751,3.751,3.751,3.751,3.751,3.751,3.751,3.751,3.751,3.751,3.7462,3.6292,3.5616,3.5521,3.4778,3.4274,3.3947,3.3373,3.2404,3.106,3.0863,3.0239,2.9005,2.8449,2.8093,2.7953,2.6485,2.585,2.6329,2.5221,2.4634,0.0,2.4732,0.0,0.0,0.0,0.0,0.0,0.0,0.0,0.0,3.0661,3.1811,3.294,3.2782,3.3377,3.5221,3.5458,3.5521,3.5537,3.6153,3.6535,3.655,3.7117,3.751,3.751,3.7559,3.7859,3.8397,3.857,3.8871,3.9297,3.9376,3.925,3.8839,3.816,3.7875,3.8444,3.7923,3.7541,3.7668,3.7684,3.7654,3.7638,3.767,3.7605,3.7496,3.751,3.751,3.751,3.748,3.751,3.751,3.751,3.751,3.748,3.7449,3.7344,3.7027,3.6546,3.6155,3.9487,3.9376,3.8079,3.751,3.751,3.751,3.7826,3.8349,3.8886,3.8823,3.8302,3.7859,3.7779,3.7907,3.846,3.8713,3.8728,3.9123,3.9313,3.9297,3.8618,3.8302,3.8286,3.7749,3.751,3.751,3.751,3.751,3.751,3.751,3.751,3.751,3.751,3.751,3.7494,0.0,0.0,0.0,3.6032,3.5417,3.427,3.4123,3.3398,3.2057,3.1341,0.0,2.9814,2.9678,2.9576,2.9547,2.8787,0.0,0.0,0.0,0.0,0.0,0.0,0.0,0.0,0.0,0.0,0.0,3.0562,3.0443,3.017,3.1975,3.3675,3.4766,3.4507,3.4557,3.5319,3.59,3.6203,3.6219,3.6848,3.7291,3.732,3.7401,3.751,3.751,3.7954,3.8365,3.8523,3.8965,3.936,3.955,3.9503,3.9692,4.0151,3.9108,3.8412,3.8444,3.7938,3.7747,3.8239,3.8302,3.8318,3.8318,3.8318,3.8081,3.7638,3.751,3.751,3.751,3.751,3.751,3.751,3.751,3.751,3.751,3.751,3.7435,3.7194,3.707,3.6946,3.9487,0.0,3.8049,3.751,0.0,3.751,3.7715,3.8017,3.8349,3.8507,3.8461,3.8144,3.8175,3.8491,3.8839,3.8997,3.9013,3.936,3.9487,3.9471,3.9155,3.8997,3.8997,3.8634,3.8332,3.8002,3.7986,3.7828,3.7526,3.751,3.751,3.751,3.751,3.751,3.751,3.751,3.732,3.6959,3.6611,3.6045,3.5347,3.4636,3.3814,3.2803,3.2041,0.0,0.0,0.0,0.0,0.0,0.0,0.0,0.0,0.0,0.0,2.9106,2.9114,2.9422,3.0061,2.9832,3.0085,3.1103,3.1839,3.2234,3.2228,3.3327,3.4541,3.5761,3.5684,3.5797,3.639,3.6738,3.6959,3.6959,3.7259,3.751,3.751,3.751,3.751,3.7573,3.8096,3.8587,3.8965,3.9613,4.0166,4.0482,4.053,4.0656,4.0877,3.9882,3.8918,3.8586,3.8254,3.8112,3.846,3.8823,3.8997,3.8965,3.8728,3.8397,3.8049,3.7701,3.751,3.751,3.751,3.751,3.751,3.751,3.751,3.751,3.751,3.748,3.7359,3.7329,3.7345,3.9487,3.9376,3.8033,3.751,3.751,3.751,3.751,3.751,0.0,0.0,0.0,3.8318,3.8634,3.9139,3.9266,3.9329,3.9329,3.9439,3.9487,3.9487,3.9376,3.9392,3.9487,3.9376,3.9108,3.8697,3.857,3.8223,3.767,3.7589,3.751,3.751,3.751,3.751,3.751,3.751,3.751,3.7478,3.6896,3.6519,3.6361,3.5268,3.4288,3.3498,3.2845,3.2149,3.1428,3.1413,3.0875,2.9769,3.0227,3.0291,2.9714,3.0117,3.0622,3.1135,3.1182,3.1246,3.1397,3.1397,3.1482,3.1744,3.2835,3.3767,3.4431,3.4589,3.5205,3.6487,3.6582,3.6848,3.7447,3.751,3.751,3.751,3.751,3.751,3.751,3.751,3.7557,3.7731,3.8302,3.895,3.9629,4.0324,4.0956,4.143,4.1462,4.1588,4.1446,4.0482,3.9487,3.8886,3.8682,3.8728,3.895,3.9329,3.9661,3.9677,3.9155,3.8681,3.8444,3.7938,3.7557,3.751,3.751,3.751,3.751,3.751,3.751,3.751,3.751,3.751,3.751,3.751,3.751,3.9487,3.9376,3.8049,3.751,3.751,3.751,3.751,3.751,3.751,3.7557,3.7622,3.7622,3.7715,3.7826,3.8381,3.8649,3.865,3.9234,3.9487,3.9471,3.8902,3.895,3.9455,3.8918,3.8902,3.9297,3.8792,3.846,3.8318,3.7765,3.751,3.751,3.751,3.751,3.751,3.751,3.751,3.751,3.7399,3.7038,3.6408,3.6203,3.5489,3.4209,3.3514,3.2861,3.2181,3.2149,3.2054,3.1864,3.1943,3.1943,3.1849,3.1334,3.1088,3.1182,3.1198,3.1476,3.2102,3.2149,3.2655,3.3735,3.4051,3.4462,3.5173,3.5789,3.6453,3.7243,3.732,3.7383,3.751,3.751,3.751,3.751,3.751,3.751,3.751,3.751,3.7701,3.8254,3.895,3.9613,4.0293,4.0988,4.1415,4.1557,4.1588,4.1588,4.1478,4.0941,4.0198,3.955,3.936,3.9629,4.0024,4.0356,4.0435,4.0451,3.9819,3.9123,3.8665,3.797,3.7541,3.751,3.751,3.751,3.751,3.751,3.751,3.751,3.751,3.751,3.751,3.751,3.751,3.9487,3.9329,3.8063,3.751,3.751,3.751,3.751,3.751,3.751,3.751,3.751,3.751,3.751,3.7541,3.7812,3.7954,3.7986,3.8649,3.8965,3.8981,3.9013,3.9202,3.9455,3.9187,3.9202,3.9471,3.9202,3.8855,3.8507,3.8191,3.7844,3.7541,3.751,3.751,3.751,3.751,3.751,3.751,3.751,3.7352,3.7006,3.6598,3.6077,3.5414,3.4415,3.3704,3.3414,3.305,3.2687,3.2307,3.2655,3.2687,3.2323,3.2339,3.2345,3.2345,3.2345,3.2487,3.2829,3.3209,3.3651,3.4284,3.5015,3.5584,3.5887,3.6219,3.6708,3.7415,3.751,3.751,3.751,3.751,3.751,3.751,3.751,3.751,3.751,3.751,3.7749,3.8428,3.9092,3.9787,4.0514,4.1193,4.1588,4.1588,4.1588,4.1588,4.1588,4.1336,4.0893,4.0261,4.0087,4.0214,4.0577,4.0941,4.1099,4.113,4.0214,3.9487,3.9013,3.8239,3.7605,3.751,3.751,3.751,3.751,3.751,3.751,3.751,3.751,3.751,3.751,3.751,3.751,3.9487,3.9376,3.8079,3.751,3.751,3.751,3.751,3.751,3.751,3.751,3.751,3.751,3.751,3.751,3.751,3.751,3.7573,3.8033,3.8286,3.8333,3.8807,3.9123,3.9266,3.9281,3.9424,3.9677,3.9598,3.9313,3.8997,3.8823,3.8381,3.7794,3.7573,3.751,3.751,3.751,3.751,3.751,3.751,3.751,3.7494,3.6943,3.655,3.6314,3.5363,3.462,3.4331,3.3799,3.3214,3.2608,3.3024,3.3056,3.2592,3.3008,3.3293,3.3293,3.3293,3.3388,3.3561,3.4162,3.4604,3.4794,3.5745,3.6472,3.6598,3.6629,3.688,3.7415,3.751,3.751,3.751,3.751,3.751,3.751,3.751,3.751,3.751,3.751,3.7763,3.8428,3.9092,3.9787,4.0498,4.1178,4.1573,4.1588,4.1588,4.1588,4.1588,4.1588,4.1384,4.1166,4.0943,4.0814,4.0846,4.1225,4.1525,4.1573,4.0593,3.985,3.9376,3.846,3.7701,3.7605,3.751,3.751,3.751,3.751,3.751,3.751,3.751,3.7569,3.7714,3.7873,3.7743,3.9503,3.9281,3.8063,3.751,3.751,3.751,3.751,3.751,3.751,3.751,3.751,3.751,3.751,3.751,3.751,3.751,3.751,3.7573,3.7591,3.7621,3.7668,3.8002,3.857,3.8618,3.9266,4.0214,3.9803,3.9771,4.0182,3.9661,3.9044,3.8397,3.7796,3.7526,3.751,3.751,3.751,3.751,3.751,3.751,3.751,3.7447,3.7085,3.6408,3.6266,3.5616,3.4446,3.4241,3.3893,3.3293,3.3293,3.3293,3.3245,3.3293,3.3324,3.3324,3.3309,3.3546,3.4178,3.4901,3.5537,3.6124,3.6298,3.6706,3.7275,3.7383,3.7415,3.751,3.751,3.751,3.751,3.751,3.751,3.751,3.751,3.751,3.751,3.751,3.7765,3.8428,3.9092,3.9771,4.0498,4.1178,4.1573,4.1588,4.1588,4.1588,4.1588,4.1588,4.1769,4.2045,4.1917,4.1577,4.1577,4.1542,4.1687,4.1591,4.0988,4.0293,3.9645,3.8965,3.8254,3.7794,3.751,3.751,3.751,3.751,3.751,3.7626,3.7655,3.7698,3.8141,3.8562,3.8551,3.9967,3.967,3.8316,3.7727,3.7727,3.7743,3.7743,3.7727,3.7743,3.7655,3.751,3.751,3.751,3.751,3.751,3.751,3.751,3.751,3.751,3.751,3.751,3.7668,3.7875,3.7907,3.8428,3.9345,3.9439,3.9645,3.985,3.9629,3.9171,3.8524,3.8223,3.7891,3.7557,3.751,3.751,3.751,3.751,3.751,3.751,3.751,3.7368,3.7054,3.6643,3.6172,3.5556,3.5173,3.481,3.4573,3.4525,3.4525,3.4541,3.4541,3.4336,3.3941,3.3878,3.4194,3.4905,3.56,3.6093,3.6393,3.6817,3.7196,3.7478,3.751,3.751,3.751,3.751,3.751,3.751,3.751,3.751,3.751,3.751,3.751,3.751,3.7526,3.7779,3.8428,3.9108,3.9787,4.0498,4.1178,4.1557,4.1588,4.1588,4.1588,4.1588,4.1588,4.172,4.1964,4.2077,4.238,4.2569,4.238,4.2238,4.2013,4.1294,4.0419,4.0103,3.9171,3.8397,3.8096,3.7763,3.7526,3.751,3.7524,3.7553,3.7815,3.8327,3.8579,3.881,3.9028,3.8892,4.0361,3.9925,3.852,3.7943,3.8046,3.7943,3.7943,3.8017,3.7943,3.7815,3.773,3.7642,3.7671,3.77,3.7583,3.751,3.751,3.751,3.751,3.751,3.751,3.751,3.751,3.751,3.7844,3.8491,3.8997,3.9424,3.9708,3.9566,3.9329,3.906,3.8713,3.8254,3.7826,3.7621,3.751,3.751,3.751,3.751,3.751,3.751,3.751,3.7462,3.699,3.6627,3.6393,3.5932,3.5584,3.5394,3.5394,3.5394,3.5394,3.5394,3.5142,3.4727,3.4778,3.511,3.5647,3.6327,3.6677,3.6724,3.7212,3.751,3.751,3.751,3.751,3.751,3.751,3.751,3.751,3.751,3.751,3.7526,3.7652,3.7747,3.7541,3.7763,3.8191,3.8523,3.9092,3.9771,4.0498,4.1162,4.1588,4.1588,4.1588,4.1588,4.1588,4.1588,4.1654,4.1867,4.2475,4.2925,4.3229,4.3047,4.2818,4.2439,4.166,4.0911,4.0436,3.9218,3.8348,3.8013,3.7729,3.7617,3.7642,3.7655,3.7756,3.8282,3.8849,3.9375,3.9428,3.9532,3.9679,4.0496,4.021,3.8608,3.8103,3.8363,3.8046,3.8119,3.8347,3.8059,3.8075,3.825,3.8017,3.8046,3.8278,3.7775,3.7494,3.751,3.751,3.751,3.7539,3.7539,3.751,3.751,3.7526,3.7828,3.8397,3.857,3.925,4.0356,3.985,3.985,4.0356,3.9218,3.8555,3.8333,3.7828,3.7526,3.751,3.751,3.751,3.751,3.751,3.751,3.751,3.7462,3.7085,3.6535,3.6377,3.6105,3.5442,3.5489,3.5458,3.5426,3.5454,3.541,3.5442,3.5932,3.6282,3.6408,3.699,3.7399,3.7401,3.7447,3.751,3.751,3.751,3.751,3.751,3.751,3.751,3.751,3.751,3.7541,3.7621,3.8065,3.8049,3.7652,3.8555,3.8997,3.8807,3.9187,3.9898,4.0561,4.1162,4.1525,4.1588,4.1588,4.1588,4.1588,4.1588,4.1851,4.2396,4.2986,4.3406,4.2894,4.3243,4.3243,4.2802,4.2264,4.1411,4.0201,3.9134,3.8513,3.8005,3.7857,3.7788,3.7815,3.7915,3.81,3.8601,3.9447,3.9893,4.0037,4.0476,4.059,4.041,3.9361,3.8557,3.8403,3.8628,3.8528,3.8539,3.8639,3.8511,3.846,3.8391,3.8262,3.8307,3.8391,3.8164,3.7947,3.7727,3.7583,3.7583,3.7727,3.7756,3.7756,3.7756,3.7756,3.7751,3.7889,3.8302,3.8997,3.9835,4.0072,4.0087,3.9945,3.9898,3.9455,3.8634,3.827,3.7938,3.7557,3.751,3.751,3.751,3.751,3.751,3.751,3.751,3.7354,3.7101,3.7101,3.6975,3.6751,3.6751,3.6751,3.6674,3.6295,3.6263,3.6643,3.6548,3.6598,3.7054,3.7338,3.751,3.751,3.751,3.751,3.751,3.751,3.751,3.751,3.751,3.751,3.751,3.751,3.7684,3.8033,3.797,3.8144,3.8602,3.8855,3.8902,3.9171,3.9771,4.0467,4.0988,4.1446,4.1573,4.1588,4.1588,4.1588,4.1588,4.1588,4.1802,4.2254,4.2849,4.3306,4.3353,4.3939,4.4164,4.3479,4.2779,4.1923,4.0821,3.9914,3.9259,3.8734,3.8418,3.8339,3.8502,3.889,3.896,3.9208,4.0051,4.0151,4.071,4.0716,4.0861,4.0601,3.9325,3.8753,3.8683,3.8914,3.8843,3.886,3.8942,3.8832,3.8766,3.8672,3.8572,3.8588,3.8672,3.8588,3.8432,3.8173,3.7831,3.7727,3.787,3.7915,3.7943,3.8046,3.7943,3.7799,3.7719,3.8072,3.8659,3.9294,3.9833,4.0023,4.0055,4.0214,3.9929,3.9234,3.8965,3.8507,3.7938,3.7812,3.7763,3.7557,3.751,3.751,3.751,3.751,3.751,3.751,3.751,3.751,3.751,3.751,3.751,3.7447,3.7038,3.6975,3.7383,3.7054,3.6959,3.7415,3.751,3.751,3.751,3.751,3.751,3.751,3.751,3.751,3.751,3.751,3.751,3.751,3.751,3.77,3.8096,3.7954,3.816,3.9044,3.9202,3.9424,3.985,4.0482,4.1004,4.1225,4.1446,4.1557,4.1588,4.1588,4.1588,4.1588,4.172,4.1818,4.2142,4.2865,4.3366,4.3693,4.4339,4.4563,4.3956,4.3263,4.2408,4.1499,4.0641,3.9919,3.9439,3.9193,3.9137,3.933,3.9791,3.9929,3.9951,3.9832,3.9796,4.0274,4.0643,4.0776,4.0994,4.0194,3.9226,3.8985,3.9202,3.8969,3.8996,3.9191,3.8958,3.8985,3.9137,3.8931,3.8958,3.9148,3.8931,3.8805,3.8623,3.8173,3.7943,3.7972,3.7972,3.8103,3.8335,3.8103,3.7927,3.7857,3.7902,3.8256,3.885,3.909,3.9665,4.0512,4.0086,4.0024,4.053,3.9818,3.9202,3.857,3.8412,3.8128,3.7605,3.751,3.751,3.751,3.751,3.751,3.751,3.751,3.751,3.751,3.751,3.751,3.751,3.7431,3.7478,3.7494,3.7462,3.7478,3.7494,3.751,3.751,3.751,3.751,3.751,3.751,3.751,3.751,3.751,3.7573,3.7573,3.7575,3.7684,3.7715,3.7559,3.8017,3.8349,3.8886,3.9819,4.0593,4.0672,4.113,4.1257,4.0972,4.1258,4.1606,4.1654,4.1621,4.1588,4.1621,4.1851,4.2045,4.2285,4.2865,4.3472,4.4071,4.4646,4.4591,4.437,4.364,4.2826,4.1841,4.0955,4.0167,3.968,3.9534,3.9446,3.957,3.9894,3.957,3.9531,3.9435,3.9429,3.9795,4.0217,4.06,4.1011,4.0315,3.9472,3.9175,3.9282,3.9175,3.9202,3.9315,3.9175,3.9218,3.9272,3.9191,3.9218,3.9245,3.9175,3.9013,3.8805,3.8595,3.8415,3.829,3.8427,3.8472,3.8448,3.8472,3.8286,3.7915,3.7714,3.7839,3.827,3.8686,3.9303,3.9854,4.058,4.0588,4.0259,4.0402,3.9974,3.868,3.8523,3.8175,3.7573,3.751,3.751,3.751,3.751,3.751,3.751,3.751,3.751,3.751,3.751,3.751,3.751,3.751,3.751,3.751,3.751,3.751,3.751,3.751,3.751,3.751,3.751,3.751,3.751,3.751,3.751,3.7573,3.7891,3.8191,3.8254,3.8618,3.8618,3.8239,3.7986,3.8491,3.9677,4.0672,4.1193,4.1288,4.1462,4.156,4.158,4.1738,4.1704,4.1883,4.1753,4.1654,4.1654,4.1948,4.2206,4.2444,4.3066,4.3489,4.3931,4.4344,4.4513,4.4453,4.3958,4.3377,4.2393,4.1517,4.0694,4.0007,3.9849,3.9778,3.9905,3.968,3.9279,3.9138,3.9099,3.9211,3.9421,3.97,3.9997,4.116,4.0663,3.9713,3.9315,3.9315,3.9315,3.9315,3.9315,3.9315,3.9315,3.9315,3.9315,3.9315,3.9315,3.9315,3.9191,3.8985,3.8985,3.8821,3.86,3.8694,3.8766,3.8699,3.8766,3.8556,3.816,3.8033,3.8046,3.8246,3.8666,3.9124,3.9706,4.0364,4.0702,4.0551,4.0953,4.0588,3.9609,3.9498,3.8977,3.8095,3.7859,3.7763,3.7557,3.751,3.7569,3.7626,3.7553,3.751,3.751,3.751,3.751,3.751,3.751,3.751,3.751,3.751,3.751,3.751,3.751,3.751,3.751,3.751,3.751,3.751,3.751,3.7573,3.7907,3.8239,3.8602,3.8886,3.9202,3.9281,3.895,3.8555,3.895,4.0372,4.1178,4.1541,4.1557,4.1588,4.1769,4.1948,4.198,4.1851,4.2045,4.2045,4.1802,4.1851,4.2142,4.2396,4.2679,4.3082,4.3402,4.3611,4.3977,4.4361,4.4398,4.4268,4.3801,4.3096,4.2367,4.1579,4.0527,4.0066,3.9703,3.972,3.9142,3.8685,3.8713,3.8622,3.8499,3.8534,3.8919,3.9248,4.1442,4.1243,3.9918,3.9365,3.9315,3.9315,3.9315,3.9315,3.9315,3.9315,3.9315,3.9315,3.9315,3.9315,3.9315,3.9272,3.9315,3.9262,3.911,3.8903,3.8887,3.8969,3.9164,3.8931,3.8639,3.846,3.86,3.8694,3.8694,3.876,3.9165,3.9743,3.9756,4.0105,4.0982,4.1389,4.1299,4.0827,4.0924,4.0177,3.874,3.849,3.8267,3.7696,3.7571,3.7612,3.777,3.7714,3.7583,3.751,3.751,3.751,3.751,3.751,3.751,3.751,3.751,3.751,3.751,3.751,3.7539,3.7553,3.7539,3.7539,3.7553,3.7666,3.7919,3.841,3.8711,3.9074,3.9564,3.9834,3.9834,3.9692,3.9628,3.9945,4.0498,4.1226,4.1607,4.1621,4.1621,4.1753,4.2109,4.2142,4.2174,4.227,4.2412,4.219,4.1885,4.2108,4.2611,4.2792,4.2761,4.3089,4.3214,4.3713,4.4105,4.4361,4.4314,4.4044,4.3613,4.2946,4.1983,4.0949,4.0062,3.9739,3.9188,3.8541,3.8128,3.802,3.7845,3.7584,3.776,3.8193,3.8614,4.1877,4.1326,4.0448,3.9812,3.9348,3.9315,3.9315,3.9315,3.9315,3.9315,3.9315,3.9315,3.9315,3.9315,3.9315,3.9315,3.9315,3.9315,3.9272,3.9175,3.9191,3.9218,3.9218,3.8985,3.8777,3.8694,3.8628,3.86,3.8777,3.8832,3.9062,3.9462,3.9863,4.0106,4.0426,4.136,4.1374,4.0873,4.1263,4.1039,4.0063,3.923,3.8804,3.8597,3.7882,3.7703,3.7886,3.8091,3.7934,3.7539,3.751,3.751,3.7539,3.7539,3.7539,3.7569,3.7539,3.751,3.751,3.751,3.7599,3.7727,3.766,3.7583,3.7772,3.8088,3.8421,3.8969,3.973,4.0558,4.0985,4.1197,4.1358,4.1358,4.0864,4.0642,4.0817,4.1389,4.1883,4.1671,4.1835,4.2045,4.2316,4.2346,4.2409,4.2565,4.2517,4.2263,4.1752,4.1823,4.2231,4.1947,4.1963,4.2439,4.2916,4.3422,4.3873,4.4236,4.4281,4.419,4.3757,4.3231,4.2071,4.0858,3.997,3.9462,3.8628,3.783,3.7584,3.7444,3.7321,3.7253,3.7374,3.7707,3.8038,4.1545,4.1337,4.0369,3.9896,3.9702,3.9448,3.9315,3.9315,3.9315,3.9315,3.9315,3.9315,3.9315,3.9315,3.9315,3.9315,3.9315,3.9315,3.9299,3.9299,3.9315,3.9315,3.9245,3.9067,3.9013,3.8996,3.8849,3.8876,3.8985,3.9013,3.9137,3.9311,3.9713,3.9968,4.0247,4.1107,4.1586,4.1349,4.1811,4.1829,4.0964,4.0425,3.9634,3.9145,3.8378,3.8107,3.7995,3.8331,3.829,3.7831,3.7685,3.7655,3.7655,3.7685,3.7759,3.7847,3.7759,3.7655,3.7626,3.7583,3.7626,3.7878,3.795,3.8187,3.8448,3.8884,3.9498,3.995,4.0808,4.1476,4.1957,4.2203,4.2045,4.1613,4.1528,4.1446,4.1406,4.1965,4.219,4.2078,4.1949,4.1977,4.2286,4.212,4.2048,4.2087,4.2018,4.1629,4.1191,4.1484,4.1588,4.1276,4.1313,4.1819,4.2075,4.2481,4.2759,4.3175,4.344,4.3529,4.3494,4.3036,4.1983,4.0762,3.9901,3.9059,3.8269,3.7584,3.7271,3.713,3.7007,3.7042,3.718,3.7286,3.7619,4.0849,4.1265,3.9946,3.9715,3.9972,3.9506,3.9155,3.9175,3.9148,3.9218,3.9299,3.9315,3.9315,3.9315,3.9315,3.9315,3.9315,3.9315,3.9315,3.9315,3.9315,3.9315,3.9315,3.9272,3.9245,3.9245,3.9315,3.9262,3.9245,3.9272,3.9272,3.9332,3.9348,3.9647,4.0111,4.09,4.1436,4.1694,4.2176,4.2266,4.1678,4.1314,4.0642,3.9833,3.921,3.8656,3.8321,3.8455,3.8611,3.803,3.7943,3.7886,3.7915,3.796,3.8046,3.8205,3.8046,3.7857,3.7857,3.7685,3.7764,3.8155,3.8739,3.9124,3.9312,4.0024,4.0651,4.1028,4.1536,4.2064,4.2436,4.2599,4.2166,4.1589,4.1683,4.2032,4.2351,4.2453,4.2421,4.2357,4.1729,4.1683,4.1618,4.1422,4.1012,4.167,4.1568,4.1316,4.0987,4.1013,4.0934,4.0614,4.0842,4.1231,4.1375,4.1475,4.164,4.1898,4.2104,4.2303,4.2595,4.2223,4.1503,4.0652,3.9845,3.9059,3.8269,3.7672,3.72,3.6989,3.6989,3.6989,3.7025,3.7095,3.7303,4.102,4.061,4.0262,3.9641,3.8886,3.8661,3.857,3.8535,3.8507,3.8772,3.9175,3.9272,3.9299,3.9315,3.9315,3.9315,3.9315,3.9315,3.9315,3.9315,3.9315,3.9315,3.9315,3.9315,3.9315,3.9315,3.9315,3.9315,3.9315,3.9315,3.9315,3.9315,3.9315,3.9381,3.9647,4.0315,4.0647,4.0861,4.146,4.2014,4.2078,4.1573,4.1275,4.1102,4.0245,3.9235,3.861,3.8876,3.8985,3.8611,3.8201,3.8075,3.8189,3.8075,3.8132,3.829,3.8132,3.7943,3.7915,3.795,3.8232,3.9021,3.9386,3.9732,4.0551,4.1037,4.152,4.1906,4.2419,4.2776,4.2811,4.2646,4.2163,4.17,4.1517,4.1519,4.158,4.1471,4.1317,4.1102,4.1062,4.1076,4.1147,4.1231,4.1106,4.1262,4.113,4.1026,4.0795,4.0547,4.0321,4.0023,4.0255,4.058,4.0647,4.0713,4.0829,4.0978,4.1159,4.1398,4.1673,4.1967,4.1486,4.0707,3.9849,3.9094,3.8515,3.7672,3.7163,3.7095,3.6989,3.6989,3.6989,3.6989,3.7007,4.0486,4.0431,4.007,3.9516,3.8888,3.8556,3.8213,3.7918,3.7895,3.8254,3.8733,3.8843,3.8996,3.9282,3.9315,3.9315,3.9315,3.9315,3.9315,3.9315,3.9315,3.9315,3.9315,3.9315,3.9315,3.9315,3.9315,3.9315,3.9315,3.9299,3.9315,3.9315,3.9315,3.9315,3.9415,4.0011,4.0409,4.0564,4.1044,4.164,4.1799,4.1878,4.1736,4.1832,4.0912,3.9923,3.9736,3.9537,3.9572,3.9358,3.8779,3.8415,3.8516,3.8319,3.8375,3.8683,3.8528,3.8343,3.8331,3.854,3.8969,3.9662,4.0274,4.0887,4.154,4.207,4.2477,4.2665,4.2939,4.3196,4.2635,4.2215,4.1754,4.1148,4.0995,4.0796,4.0586,4.0793,4.1079,4.0869,4.082,4.0724,4.071,4.0695,4.0442,4.0244,4.0222,4.0106,4.004,3.9824,3.9769,3.9626,3.9725,3.9895,3.9945,4.0001,4.01,4.0293,4.0519,4.0833,4.115,4.1495,4.1753,4.0984,4.0237,3.9617,3.8989,3.8093,3.7303,3.7095,3.6989,3.6989,3.6989,3.6989,3.6989,3.9788,4.0274,3.9657,3.9287,3.903,3.8482,3.7839,3.7314,3.7251,3.7605,3.808,3.8165,3.8423,3.886,3.8914,3.8985,3.8958,3.8942,3.8832,3.9023,3.886,3.8914,3.8969,3.8914,3.8942,3.9104,3.9245,3.9299,3.9272,3.9202,3.9148,3.9245,3.9148,3.9175,3.9394,3.9846,4.0144,4.021,4.058,4.1044,4.1259,4.1666,4.1816,4.1652,4.1432,4.0838,4.0709,4.0446,4.0236,4.0453,3.9643,3.9188,3.8969,3.8672,3.8699,3.9235,3.8914,3.8706,3.8797,3.9174,3.9662,4.005,4.1284,4.2072,4.2427,4.273,4.2894,4.296,4.2957,4.2703,4.2003,4.1502,4.092,4.0318,4.0227,3.9918,3.9713,4.0382,4.074,4.0823,4.0354,4.0133,3.9996,3.9918,3.958,3.9315,3.9315,3.9315,3.9315,3.9315,3.9365,3.9381,3.9514,3.9564,3.9613,3.9647,3.9713,3.9895,4.0055,4.0484,4.0876,4.1413,4.1725,4.1429,4.0797,4.0128,3.935,3.8444,3.7742,3.7251,3.6989,3.6989,3.6989,3.6989,3.6989,3.9496,3.9589,3.9469,3.8772,3.782,3.7594,3.7214,3.6631,3.66,3.6951,3.7517,3.756,3.7605,3.778,3.7722,3.7706,3.7895,3.7953,3.8096,3.8294,3.8124,3.8039,3.8367,3.8124,3.8096,3.8535,3.8871,3.9121,3.9094,3.8799,3.8717,3.9023,3.8717,3.8689,3.9083,3.9448,3.9499,3.9505,3.9758,4.0111,4.0498,4.0812,4.1073,4.1287,4.1533,4.1526,4.1136,4.1099,4.1187,4.1198,4.0844,4.0461,4.0023,3.9297,3.9122,3.9236,3.9237,3.9139,3.9177,3.9607,4.0156,4.0861,4.1778,4.2666,4.2993,4.2874,4.2646,4.2448,4.2084,4.1666,4.1522,4.0933,4.0597,4.0194,3.9814,3.9514,3.9415,3.9597,3.9852,3.9945,3.968,3.9564,3.9547,3.9531,3.9415,3.9315,3.9315,3.9315,3.9315,3.9315,3.9315,3.9332,3.9332,3.9348,3.9365,3.9398,3.9448,3.9696,3.9962,4.0492,4.0955,4.1523,4.1687,4.1747,4.1242,4.0428,3.9604,3.8692,3.7915,3.7213,3.7075,3.6989,3.6989,3.6989,3.6989,3.9388,3.9388,3.9388,3.8841,3.7958,3.7539,3.7034,3.644,3.6093,3.629,3.6723,3.689,3.7101,3.7294,3.7383,3.7383,3.7354,3.7383,3.756,3.7706,3.756,3.7501,3.7793,3.7472,3.7589,3.7867,3.8153,3.8507,3.8689,3.8124,3.8067,3.8124,3.7953,3.801,3.8339,3.8606,3.8745,3.8816,3.911,3.9437,3.9852,4.0133,4.055,4.0869,4.1304,4.1465,4.1276,4.0701,4.0908,4.1158,4.092,4.0816,4.0679,4.0481,4.0001,3.9924,3.9979,4.011,4.0226,4.0802,4.1445,4.1754,4.2249,4.2605,4.2721,4.239,4.1943,4.1744,4.1342,4.0878,4.0862,4.026,3.9895,3.9779,3.9497,3.9348,3.9315,3.9315,3.9315,3.9315,3.9381,3.9415,3.9381,3.9348,3.9332,3.9315,3.9315,3.9315,3.9315,3.9315,3.9315,3.9315,3.9315,3.9315,3.9315,3.9315,3.9315,3.9514,4.0111,4.0597,4.1249,4.1938,4.2349,4.2569,4.1801,4.0734,3.9574,3.8603,3.7892,3.7246,3.711,3.6989,3.6989,3.6989,3.6989,3.9388,3.9388,3.9388,3.902,3.8347,3.7689,3.706,3.6432,3.5791,3.5797,3.6164,3.6258,3.6492,3.6875,3.6951,3.6951,3.7011,3.6951,3.7011,3.7131,3.6996,3.7011,3.7161,3.7071,3.7011,3.7161,3.7011,3.7413,3.7879,3.7472,3.731,3.7429,3.737,3.731,3.7546,3.7937,3.808,3.8294,3.8562,3.8942,3.9232,3.9776,4.0318,4.0502,4.0674,4.1009,4.1246,4.0831,4.0814,4.1104,4.1,4.0812,4.116,4.1314,4.1077,4.063,4.1061,4.1342,4.148,4.1711,4.1914,4.1997,4.2191,4.2258,4.2092,4.1674,4.1127,4.0912,4.0531,4.0177,4.0094,3.9663,3.9398,3.9348,3.9365,3.9315,3.9315,3.9315,3.9315,3.9315,3.9315,3.9315,3.9315,3.9315,3.9315,3.9315,3.9315,3.9315,3.9315,3.9315,3.9315,3.9315,3.9315,3.9315,3.9315,3.9315,3.9315,3.9381,4.0249,4.1094,4.1789,4.2481,4.2712,4.2729,4.2048,4.0926,3.9709,3.8547,3.7788,3.7271,3.7071,3.6989,3.6989,3.6989,3.6989,3.9388,3.9388,3.9388,3.902,3.8377,3.7734,3.7075,3.6477,3.5848,3.5552,3.5668,3.5651,3.5701,3.5814,3.5846,3.5782,3.5782,3.591,3.6164,3.643,3.6148,3.6164,3.6368,3.5926,3.6227,3.6399,3.6053,3.6461,3.7011,3.6784,3.6799,3.7071,3.6784,3.6738,3.7131,3.7354,3.7501,3.7531,3.7634,3.7924,3.8391,3.9044,3.9662,4.0042,4.0344,4.0547,4.0929,4.0703,4.0953,4.113,4.122,4.0994,4.0729,4.111,4.0961,4.0796,4.0978,4.1397,4.1442,4.1591,4.169,4.1662,4.1591,4.1513,4.1276,4.0878,4.0276,3.9564,3.9481,3.9547,3.958,3.9398,3.9315,3.9315,3.9315,3.9315,3.9315,3.9315,3.9315,3.9315,3.9315,3.9315,3.9315,3.9315,3.9315,3.9315,3.9315,3.9315,3.9315,3.9315,3.9315,3.9315,3.9315,3.9315,3.9315,3.9315,3.9315,3.9315,4.0216,4.1309,4.1844,4.2307,4.2518,4.237,4.1755,4.1059,3.9866,3.8784,3.7808,3.7205,3.6936,3.6911,3.6989,3.6989,3.6989,3.9388,3.9388,3.9388,3.9245,3.8901,3.8242,3.7599,3.6971,3.6342,3.5848,3.5549,3.5489,3.5489,3.5489,3.5489,3.5489,3.5489,3.5489,3.5604,3.5846,3.5636,3.5636,3.575,3.5651,3.5748,3.5765,3.5716,3.5733,3.6148,3.6148,3.6085,3.6258,3.607,3.5973,3.6492,3.6692,3.6784,3.692,3.7161,3.731,3.7433,3.7846,3.8243,3.8216,3.8595,3.9105,3.9557,3.9633,3.9907,4.0136,4.0283,4.0414,4.0463,4.0754,4.0812,4.1094,4.1226,4.1409,4.1425,4.1409,4.1347,4.1276,4.1044,4.0647,4.0282,3.9967,3.973,3.9365,3.9315,3.9315,3.9315,3.9315,3.9315,3.9315,3.9315,3.9315,3.9315,3.9315,3.9315,3.9315,3.9315,3.9315,3.9315,3.9315,3.9315,3.9315,3.9315,3.9315,3.9315,3.9315,3.9315,3.9315,3.9315,3.9315,3.9315,3.9315,3.9315,3.9415,3.9928,4.0895,4.1524,4.1939,4.2204,4.2121,4.1621,4.0829,3.9838,3.8709,3.7477,3.7041,3.6728,3.6809,3.6871,3.6989,3.6989,3.9388,3.9388,3.9388,3.9388,3.9313,3.8676,3.8003,3.736,3.6731,3.6103,3.5639,3.5489,3.5489,3.5489,3.5489,3.5489,3.5489,3.5489,3.5489,3.5489,3.5489,3.5489,3.5554,3.5504,3.5504,3.5489,3.5522,3.5587,3.5554,3.5522,3.5587,3.5489,3.5604,3.5587,3.5651,3.5941,3.6211,3.6227,3.6768,3.6829,3.6677,3.6936,3.6997,3.6967,3.7027,3.7413,3.795,3.8144,3.8499,3.874,3.8885,3.9092,3.9414,3.9476,3.9774,4.0082,4.029,4.0496,4.0679,4.0878,4.111,4.0945,4.0547,3.9945,3.9547,3.9315,3.9315,3.9315,3.9315,3.9315,3.9315,3.9315,3.9315,3.9315,3.9315,3.9315,3.9315,3.9315,3.9315,3.9315,3.9315,3.9315,3.9315,3.9315,3.9315,3.9315,3.9315,3.9315,3.9315,3.9315,3.9315,3.9315,3.9315,3.9315,3.9315,3.9315,3.9315,3.9448,3.9978,4.0459,4.1044,4.1624,4.2038,4.1789,4.1392,4.0357,3.9236,3.8158,3.7155,3.673,3.6447,3.6629,3.6768,3.6891,3.6989,3.9388,3.9388,3.9388,3.9388,3.9328,3.8691,3.8033,3.7375,3.6776,3.6148,3.5549,3.5489,3.5489,3.5489,3.5489,3.5489,3.5489,3.5489,3.5489,3.5489,3.5489,3.5489,3.5489,3.5489,3.5489,3.5489,3.5489,3.5489,3.5489,3.5489,3.5489,3.5489,3.5489,3.5489,3.5522,3.5651,3.5701,3.5782,3.6227,3.6446,3.6337,3.6492,3.6631,3.6951,3.6784,3.6768,3.7383,3.7442,3.749,3.7664,3.768,3.768,3.7949,3.7979,3.8291,3.8727,3.8882,3.9156,3.9545,4.0128,4.0426,4.0276,3.9928,3.9497,3.9332,3.9315,3.9315,3.9315,3.9315,3.9315,3.9315,3.9315,3.9315,3.9315,3.9315,3.9315,3.9315,3.9315,3.9315,3.9315,3.9315,3.9315,3.9315,3.9315,3.9315,3.9315,3.9315,3.9315,3.9315,3.9315,3.9315,3.9315,3.9315,3.9315,3.9315,3.9315,3.9315,3.9415,3.9763,4.0127,4.0542,4.1077,4.1591,4.1524,4.1061,3.9846,3.8771,3.7962,3.7208,3.6428,3.6139,3.6301,3.6609,3.6831,3.693,3.9388,3.9388,3.9388,3.9388,3.9394,3.914,3.8407,3.7479,3.715,3.6447,3.5489,3.5489,3.5489,3.5489,3.5489,3.5489,3.5489,3.5489,3.5489,3.5489,3.5489,3.5489,3.5489,3.5489,3.5489,3.5489,3.5489,3.5489,3.5489,3.5489,3.5489,3.5489,3.5489,3.5489,3.5489,3.5489,3.5489,3.5522,3.5701,3.5846,3.5846,3.5846,3.5958,3.6116,3.6085,3.6179,3.6662,3.6784,3.6784,3.6784,3.6784,3.6784,3.6784,3.6784,3.7131,3.7618,3.7735,3.8067,3.8662,3.9303,3.9713,3.9696,3.9481,3.9315,3.9315,3.9315,3.9315,3.9315,3.9315,3.9315,3.9315,3.9315,3.9315,3.9315,3.9315,3.9315,3.9315,3.9315,3.9315,3.9315,3.9315,3.9315,3.9315,3.9315,3.9315,3.9315,3.9315,3.9315,3.9315,3.9315,3.9315,3.9315,3.9315,3.9315,3.9315,3.9315,3.9315,3.9448,3.958,3.9862,4.016,4.0442,4.0812,4.0845,4.0746,3.9763,3.8828,3.8026,3.7175,3.6253,3.5919,3.5941,3.6301,3.6731,3.6871,3.9388,3.9388,3.9388,3.9388,3.9388,3.9388,3.873,3.7793,3.7479,3.6686,3.5519,3.5489,3.5489,3.5489,3.5489,3.5489,3.5489,3.5489,3.5489,3.5489,3.5489,3.5489,3.5489,3.5489,3.5489,3.5489,3.5489,3.5489,3.5489,3.5489,3.5489,3.5489,3.5489,3.5489,3.5489,3.5489,3.5489,3.5489,3.5489,3.5489,3.5489,3.5522,3.5522,3.5587,3.5554,3.5701,3.6022,3.6148,3.6148,3.6133,3.6148,3.6148,3.6148,3.6242,3.6492,3.686,3.7145,3.7383,3.8039,3.8788,3.9245,3.9381,3.9365,3.9315,3.9315,3.9315,3.9315,3.9315,3.9315,3.9315,3.9299,3.9315,3.9315,3.9315,3.9315,3.9315,3.9315,3.9315,3.9315,3.9315,3.9315,3.9315,3.9315,3.9315,3.9315,3.9315,3.9315,3.9315,3.9315,3.9315,3.9315,3.9315,3.9315,3.9315,3.9315,3.9315,3.9315,3.9332,3.9464,3.958,3.9829,4.0061,4.0326,4.0608,4.0343,3.962,3.8967,3.8306,3.7161,3.5923,3.5902,3.5988,3.6216,3.665,3.6829,3.9352,3.9388,3.9373,3.9388,3.9388,3.9388,3.899,3.8212,3.7644,3.6776,3.5774,3.5639,3.5594,3.5579,3.5579,3.5489,3.5489,3.5489,3.5489,3.5489,3.5489,3.5489,3.5489,3.5489,3.5489,3.5489,3.5489,3.5489,3.5489,3.5489,3.5489,3.5489,3.5489,3.5489,3.5489,3.5489,3.5489,3.5489,3.5489,3.5489,3.5489,3.5489,3.5489,3.5489,3.5489,3.5587,3.5636,3.5701,3.5701,3.5701,3.5668,3.5668,3.5668,3.5636,3.591,3.6352,3.643,3.6753,3.7399,3.8579,3.9067,3.9272,3.9315,3.9245,3.9272,3.9272,3.9218,3.9121,3.9245,3.9245,3.9272,3.9315,3.9288,3.9191,3.9148,3.9315,3.9315,3.9315,3.9315,3.9315,3.9315,3.9315,3.9315,3.9315,3.9315,3.9315,3.9315,3.9315,3.9315,3.9315,3.9315,3.9315,3.9315,3.9315,3.9315,3.9315,3.9315,3.9315,3.9348,3.9464,3.9481,3.958,3.9895,4.0293,3.9995,3.9381,3.9007,3.8642,3.7485,3.6437,3.6175,3.6237,3.6406,3.6506,3.6629,3.8627,3.8664,3.9192,3.9388,3.9388,3.9388,3.902,3.8347,3.7704,3.7165,3.6731,3.6372,3.6148,3.6058,3.5714,3.5534,3.5489,3.5489,3.5489,3.5489,3.5489,3.5489,3.5489,3.5489,3.5489,3.5489,3.5489,3.5489,3.5489,3.5489,3.5489,3.5489,3.5489,3.5489,3.5489,3.5489,3.5489,3.5489,3.5489,3.5489,3.5489,3.5489,3.5489,3.5489,3.5489,3.5489,3.5489,3.5489,3.5489,3.5489,3.5489,3.5489,3.5489,3.5489,3.5587,3.5829,3.5814,3.6085,3.6723,3.7589,3.8423,3.8914,3.9191,3.8969,3.8745,3.9121,3.9023,3.8871,3.9023,3.8969,3.8745,3.9121,3.9148,3.8816,3.8843,3.9191,3.9315,3.9315,3.9315,3.9315,3.9315,3.9315,3.9315,3.9315,3.9315,3.9315,3.9315,3.9315,3.9315,3.9315,3.9315,3.9315,3.9315,3.9315,3.9315,3.9315,3.9315,3.9315,3.9315,3.9348,3.9332,3.9315,3.9431,3.9796,3.9497,3.9166,3.8858,3.851,3.7847,3.7136,3.6709,3.6196,3.6056,3.6148,3.6241,3.7744,3.782,3.8323,3.8531,3.8634,3.9141,3.902,3.8392,3.7928,3.7644,3.7345,3.6956,3.6656,3.6402,3.6073,3.5624,3.5534,3.5489,3.5489,3.5489,3.5489,3.5489,3.5489,3.5489,3.5489,3.5489,3.5489,3.5489,3.5489,3.5489,3.5489,3.5489,3.5504,3.5489,3.5489,3.5489,3.5489,3.5489,3.5489,3.5489,3.5489,3.5489,3.5489,3.5489,3.5489,3.5489,3.5489,3.5489,3.5489,3.5489,3.5489,3.5489,3.5489,3.5489,3.5489,3.5489,3.5554,3.5814,3.6415,3.6738,3.7605,3.8411,3.8623,3.8439,3.8124,3.8311,3.8282,3.8311,3.8634,3.859,3.8435,3.8871,3.8745,3.8407,3.8507,3.8887,3.8969,3.8942,3.9245,3.9245,3.9315,3.9315,3.9315,3.9315,3.9315,3.9315,3.9315,3.9315,3.9315,3.9315,3.9315,3.9315,3.9315,3.9315,3.9315,3.9315,3.9315,3.9315,3.9315,3.9315,3.9315,3.9315,3.9315,3.9315,3.9265,3.9149,3.8775,3.8328,3.7947,3.7442,3.692,3.6415,3.586,3.6045,3.6382,3.6841,3.688,3.6894,3.6972,3.7204,3.8546,3.8841,3.8381,3.8351,3.8023,3.7524,3.7539,3.715,3.6626,3.6492,3.6073,3.5594,3.5504,3.5489,3.5489,3.5489,3.5489,3.5489,3.5489,3.5489,3.5489,3.5489,3.5489,3.5504,3.5489,3.5489,3.5579,3.5564,3.5519,3.5489,3.5489,3.5489,3.5489,3.5489,3.5489,3.5489,3.5489,3.5489,3.5489,3.5489,3.5489,3.5489,3.5489,3.5489,3.5489,3.5489,3.5489,3.5489,3.5489,3.5489,3.5489,3.5489,3.5814,3.6133,3.6337,3.66,3.7251,3.734,3.731,3.7458,3.7576,3.7605,3.7663,3.7895,3.8051,3.8165,3.8193,3.821,3.8153,3.8153,3.8294,3.8395,3.859,3.8996,3.9175,3.9245,3.9272,3.9315,3.9315,3.9315,3.9315,3.9315,3.9315,3.9315,3.9315,3.9315,3.9315,3.9315,3.9315,3.9315,3.9315,3.9315,3.9315,3.9315,3.9315,3.9315,3.9315,3.9315,3.9315,3.9315,3.9166,3.8941,3.8659,3.8328,3.7833,3.7452,3.6987,3.6575,3.6764,3.706,3.6056,3.6082,3.666,3.6894,3.6958,3.7396,3.7841,3.8223,3.826,3.8384,3.8811,3.8317,3.7595,3.715,3.6686,3.6085,3.5696,3.5489,3.5489,3.5489,3.5489,3.5489,3.5489,3.5489,3.5489,3.5489,3.5489,3.5534,3.5549,3.5549,3.5893,3.6118,3.5863,3.5684,3.5609,3.5519,3.5579,3.5564,3.5594,3.5489,3.5489,3.5489,3.5489,3.5489,3.5489,3.5489,3.5489,3.5489,3.5489,3.5489,3.5489,3.5489,3.5489,3.5489,3.5489,3.5489,3.5489,3.5587,3.5733,3.5765,3.591,3.6133,3.6164,3.6352,3.6646,3.6966,3.7041,3.7041,3.7251,3.7472,3.7456,3.7472,3.7442,3.7383,3.7472,3.7648,3.7793,3.8153,3.8535,3.8827,3.8925,3.9272,3.9315,3.9315,3.9315,3.9315,3.9315,3.9315,3.9315,3.9315,3.9315,3.9315,3.9315,3.9315,3.9315,3.9315,3.9315,3.9315,3.9315,3.9315,3.9315,3.9315,3.9315,3.9315,3.9315,3.9315,3.9265,3.8984,3.8692,3.8576,3.8221,3.7759,3.7427,3.7611,3.7511,3.5196,3.5277,3.5682,3.5923,3.5923,3.5909,3.6399,3.7169,3.7553,3.8136,3.8789,3.8084,3.7615,3.7175,3.6362,3.5692,3.541,3.5071,3.5085,3.5489,3.5424,3.5489,3.5489,3.5424,3.5489,3.5504,3.5532,3.5669,3.5798,3.6189,3.6567,3.6761,3.6372,3.6297,3.6312,3.6387,3.6309,3.6133,3.5878,3.5594,3.5519,3.5519,3.5504,3.5489,3.5489,3.5489,3.5489,3.5489,3.5489,3.5489,3.5489,3.5489,3.5489,3.5489,3.5489,3.5489,3.5489,3.5489,3.5554,3.5554,3.5489,3.5489,3.5489,3.5701,3.5973,3.6258,3.6227,3.6227,3.6631,3.692,3.6799,3.6677,3.66,3.6492,3.6723,3.6981,3.728,3.7634,3.7982,3.8351,3.8745,3.9148,3.9315,3.9315,3.9315,3.9315,3.9315,3.9315,3.9315,3.9315,3.9315,3.9315,3.9315,3.9315,3.9315,3.9315,3.9315,3.9315,3.9315,3.9315,3.9315,3.9315,3.9315,3.9315,3.9315,3.9315,3.9315,3.9282,3.9116,3.8984,3.8858,3.8579,3.8297,3.8373,3.811,3.4397,3.4439,3.4397,3.4564,3.4397,3.4509,3.495,3.5629,3.636,3.7218,3.7782,3.7266,3.7021,3.6734,3.5939,3.5332,3.4963,3.4631,3.4607,3.5294,3.5001,3.4968,3.5001,3.5261,3.5005,3.5222,3.5418,3.5452,3.6353,3.6635,3.6827,3.7346,3.7285,3.7135,3.7075,3.709,3.6996,3.6911,3.6372,3.5923,3.5729,3.5624,3.5564,3.5504,3.5489,3.5489,3.5489,3.5489,3.5489,3.5489,3.5489,3.5489,3.5489,3.5489,3.5489,3.5489,3.5489,3.5489,3.5489,3.5489,3.5489,3.5489,3.5489,3.5554,3.5701,3.5797,3.5765,3.5797,3.6164,3.6321,3.6258,3.6227,3.6148,3.6116,3.6227,3.6352,3.6492,3.6996,3.7605,3.7994,3.8562,3.8969,3.9315,3.9315,3.9315,3.9315,3.9315,3.9315,3.9315,3.9315,3.9315,3.9315,3.9315,3.9315,3.9315,3.9315,3.9315,3.9315,3.9315,3.9315,3.9315,3.9315,3.9315,3.9315,3.9315,3.9315,3.9299,3.9299,3.9282,3.9232,3.9183,3.9249,3.9199,3.9033,3.8778,3.4397,3.4397,3.4397,3.4397,3.4397,3.4397,3.4522,3.4716,3.4896,3.5883,3.6986,3.693,3.6624,3.6165,3.5737,3.5157,3.4439,3.4193,3.3987,3.396,3.3934,3.4157,3.3908,3.4166,3.42,3.4312,3.4583,3.5175,3.6007,3.6468,3.6798,3.7191,3.7299,3.7357,3.7461,3.7461,3.7327,3.7579,3.7163,3.6634,3.6372,3.6193,3.6103,3.5744,3.5534,3.5534,3.5519,3.5489,3.5489,3.5489,3.5489,3.5489,3.5489,3.5489,3.5489,3.5489,3.5489,3.5489,3.5489,3.5489,3.5489,3.5489,3.5489,3.5489,3.5489,3.5489,3.5522,3.5554,3.5619,3.5716,3.5765,3.5765,3.5765,3.5765,3.5765,3.5765,3.5797,3.6445,3.7161,3.7706,3.8294,3.8717,3.9094,3.9245,3.9315,3.9315,3.9315,3.9315,3.9315,3.9315,3.9315,3.9315,3.9315,3.9315,3.9315,3.9315,3.9315,3.9315,3.9315,3.9315,3.9315,3.9315,3.9315,3.9315,3.9315,3.9315,3.9315,3.9315,3.9299,3.9315,3.9315,3.9315,3.9315,3.9183,3.91,3.4397,3.4397,3.4397,3.4397,3.4397,3.4397,3.4397,3.4397,3.4397,3.4896,3.5682,3.5775,3.5744,3.5531,3.521,3.4777,3.3955,3.3721,3.3547,3.3297,3.3213,3.3537,3.3459,3.3493,3.4092,3.4349,3.482,3.54,3.5807,3.6373,3.6842,3.7009,3.7157,3.7367,3.754,3.7483,3.7582,3.8247,3.786,3.7505,3.7133,3.6982,3.6596,3.6133,3.5923,3.5833,3.5534,3.5489,3.5489,3.5489,3.5489,3.5489,3.5489,3.5489,3.5489,3.5489,3.5489,3.5489,3.5489,3.5489,3.5489,3.5489,3.5489,3.5489,3.5489,3.5489,3.5489,3.5522,3.5522,3.5619,3.5619,3.5619,3.5619,3.5619,3.5619,3.5619,3.5797,3.6211,3.6662,3.6981,3.7589,3.8153,3.8479,3.8717,3.8843,3.9299,3.9299,3.9272,3.9272,3.9315,3.9315,3.9315,3.9315,3.9315,3.9315,3.9315,3.9315,3.9315,3.9315,3.9315,3.9315,3.9315,3.9315,3.9315,3.9315,3.9315,3.9315,3.9315,3.9315,3.9315,3.9315,3.9315,3.9315,3.9315,3.9232,3.4397,3.4397,3.4397,3.4397,3.4397,3.4397,3.4397,3.4397,3.4397,3.4397,3.4522,3.4551,3.4909,3.4859,3.4404,3.402,3.3682,3.3526,3.3274,3.3101,3.3085,3.3221,3.3477,3.3785,3.4024,3.4482,3.5016,3.5261,3.5524,3.6083,3.6515,3.6735,3.7011,3.7266,3.7591,3.7534,3.7438,3.8046,3.8047,3.7981,3.7889,3.7784,3.7206,3.6836,3.6552,3.6282,3.5923,3.5669,3.5669,3.5579,3.5579,3.5489,3.5489,3.5489,3.5489,3.5489,3.5489,3.5489,3.5489,3.5489,3.5489,3.5489,3.5489,3.5489,3.5489,3.5489,3.5489,3.5489,3.5489,3.5489,3.5489,3.5489,3.5489,3.5489,3.5489,3.5489,3.5733,3.5973,3.6164,3.6399,3.692,3.756,3.7879,3.8137,3.8463,3.8952,3.9202,3.9228,3.9272,3.9272,3.9315,3.9315,3.9315,3.9315,3.9315,3.9315,3.9315,3.9315,3.9315,3.9315,3.9315,3.9315,3.9315,3.9315,3.9315,3.9315,3.9315,3.9315,3.9315,3.9315,3.9315,3.9315,3.9315,3.9315,3.9315,3.4397,3.4397,3.4397,3.4397,3.4397,3.4397,3.4397,3.4397,3.4397,3.4397,3.4397,3.4397,3.4551,3.4675,3.4444,3.4092,3.3621,3.3463,3.3107,3.2867,3.2867,3.2914,3.3166,3.3557,3.3449,3.3953,3.4567,3.4657,3.4996,3.5586,3.5936,3.5936,3.6621,3.6894,3.6972,3.6919,3.6919,3.7448,3.7486,3.7215,3.7503,3.7543,3.7779,3.7494,3.7225,3.715,3.6956,3.6552,3.6387,3.6163,3.5789,3.5564,3.5489,3.5489,3.5489,3.5489,3.5489,3.5489,3.5489,3.5489,3.5489,3.5489,3.5489,3.5489,3.5489,3.5489,3.5489,3.5489,3.5489,3.5489,3.5489,3.5489,3.5489,3.5489,3.5489,3.5489,3.5619,3.5733,3.5846,3.6116,3.6461,3.6981,3.7413,3.7648,3.7822,3.8266,3.8618,3.8717,3.9077,3.9175,3.9272,3.9315,3.9315,3.9315,3.9315,3.9315,3.9315,3.9315,3.9315,3.9315,3.9315,3.9315,3.9315,3.9315,3.9315,3.9315,3.9315,3.9315,3.9315,3.9315,3.9315,3.9315,3.9315,3.9315,3.9315]}]]